GFSWCAN_925_rhum_000.txt.gz
RH
82 82 79 81 82 78 76 77 75 68 69 72 77 88 93 94 94 99 98 93 84 91 80 67 68 89 96 88 94 92 99 97 99 98 96 96 77 92 88 80 83 85 89 86 81 93 92 49 38 37 46 52 61 67
83 86 86 85 84 78 72 80 80 70 74 75 77 87 90 94 97 96 100 99 96 92 92 82 72 66 68 74 91 97 98 94 86 91 90 94 85 94 70 95 68 85 77 80 83 79 58 52 47 53 52 61 64 71
88 91 91 87 84 80 78 77 80 79 76 76 76 86 90 91 97 99 99 100 99 96 90 89 86 77 77 75 80 96 97 94 94 82 87 87 72 80 94 86 80 69 63 71 66 57 54 53 52 52 51 62 67 68
86 85 83 78 81 82 79 76 82 81 80 77 80 88 90 92 94 99 99 99 93 91 97 88 84 86 85 87 94 98 99 96 96 99 88 86 85 78 80 66 81 76 72 67 66 58 55 54 52 61 68 66 67 68
86 81 83 89 86 76 83 82 83 83 82 78 84 87 90 94 91 95 100 98 85 93 96 94 82 88 94 99 100 100 98 98 98 99 98 90 91 84 86 81 79 64 75 73 76 56 55 56 63 63 64 68 68 69
88 90 88 89 90 81 85 85 84 85 83 80 83 87 94 93 91 98 100 96 90 85 93 100 88 91 100 100 98 96 97 97 98 99 94 91 83 86 92 89 63 58 55 56 52 57 65 68 66 61 69 70 67 69
91 92 91 87 90 87 85 86 87 86 78 82 85 88 89 88 96 98 98 99 94 86 94 99 99 85 92 94 96 98 97 98 98 97 96 87 83 83 86 91 62 62 56 63 64 60 66 60 69 68 67 68 68 69
94 90 89 87 83 86 88 87 82 77 84 85 87 89 90 95 98 99 79 91 99 86 95 100 100 97 82 98 99 97 93 96 94 94 90 89 82 87 93 78 63 67 68 66 68 63 65 69 67 69 64 62 68 72
92 89 88 88 87 83 83 78 76 81 84 83 84 97 98 99 99 93 87 99 88 85 97 100 100 100 90 96 93 96 98 99 93 96 94 90 90 92 74 70 69 68 60 79 79 70 66 65 66 63 61 62 67 72
91 90 89 88 86 84 80 78 74 76 78 82 96 99 95 90 79 97 99 100 99 100 96 98 94 99 93 96 98 93 96 99 100 96 90 97 97 79 74 72 65 69 78 73 77 86 81 78 72 68 62 60 64 70
92 92 90 88 86 84 81 76 73 79 75 98 99 100 97 84 100 99 99 99 100 100 99 94 91 97 89 93 95 92 99 100 96 94 94 94 96 84 75 80 71 75 72 65 64 65 62 59 60 62 68 68 70 73
93 92 91 88 87 84 79 75 83 90 92 98 99 100 99 99 100 100 100 100 100 97 99 98 98 92 94 84 91 93 96 97 89 92 97 97 86 79 74 80 80 78 76 74 68 66 58 54 57 63 69 76 79 86
92 92 91 89 88 74 76 80 82 87 90 97 99 100 100 99 100 99 99 100 100 100 100 99 97 86 86 87 95 93 93 96 87 96 96 90 90 81 85 90 90 82 75 67 61 59 62 71 65 65 79 83 87 91
91 91 92 90 61 73 86 85 84 90 98 100 99 98 98 99 98 92 91 95 90 100 100 91 95 91 85 92 92 91 96 88 97 100 89 90 90 83 89 88 77 78 68 65 66 66 71 74 83 80 82 83 84 89
90 88 76 55 67 89 86 86 94 97 100 99 100 97 99 99 99 98 99 96 100 94 87 90 93 80 95 92 86 91 97 99 95 84 85 91 95 91 86 77 72 69 68 70 67 66 72 74 77 88 78 75 77 78
90 83 42 64 89 89 87 92 95 100 100 99 99 99 99 100 99 99 97 99 100 86 91 91 91 87 90 89 95 92 94 94 80 91 93 93 92 80 76 73 70 65 60 58 59 63 67 71 76 81 72 68 66 63
88 71 63 80 89 86 81 95 98 99 99 99 99 100 100 100 98 98 88 90 87 85 91 93 82 77 94 98 98 90 85 82 92 100 99 97 90 79 76 73 67 60 58 61 62 64 70 71 68 66 70 66 59 55
89 77 70 89 83 86 92 95 95 98 99 99 99 99 100 100 98 89 85 91 95 98 93 83 91 99 97 90 92 88 97 98 99 98 98 91 83 80 70 71 66 63 64 65 66 69 68 67 69 70 74 65 60 59
89 91 81 72 92 86 86 87 97 100 98 98 98 92 98 98 97 93 92 89 85 86 92 94 89 94 92 93 89 99 100 97 94 97 90 82 77 74 74 69 69 71 74 73 66 66 69 63 66 66 64 61 65 64
54 52 69 56 84 79 85 95 92 97 99 97 98 97 97 98 99 99 98 90 94 97 90 94 89 86 88 88 96 97 96 93 89 94 96 92 85 81 79 73 75 80 81 82 80 75 72 71 69 66 63 64 64 66
52 67 65 65 84 87 89 98 99 96 92 98 98 99 97 99 99 100 100 100 100 100 100 98 91 94 90 89 89 88 84 85 88 85 82 96 88 81 84 82 72 70 72 73 75 72 70 70 70 68 70 70 66 60
68 75 72 76 84 85 98 97 99 96 99 98 97 99 99 98 98 99 99 98 98 97 96 98 98 93 90 90 86 79 84 84 82 79 78 77 84 86 84 80 72 80 77 80 75 75 77 74 69 66 68 70 63 60
82 68 63 65 71 71 70 85 95 98 100 95 97 97 97 97 98 98 97 96 96 97 94 95 99 96 94 90 85 85 83 83 86 82 78 79 81 81 82 81 81 83 87 84 79 79 78 72 71 65 64 58 58 60
74 80 76 79 86 75 74 88 82 98 96 97 98 95 95 97 97 97 95 97 96 95 95 97 95 93 90 87 91 91 97 91 93 93 83 79 86 85 83 83 83 81 80 80 81 82 76 72 69 61 58 56 52 51
58 54 71 61 88 81 100 94 96 96 99 96 98 95 96 97 97 96 96 96 94 92 93 96 96 96 93 93 89 86 83 83 88 92 90 82 87 87 87 84 86 87 82 83 84 84 80 67 60 54 48 46 48 49
66 64 67 79 91 86 95 98 99 98 98 98 96 97 98 97 96 94 93 95 90 94 94 93 92 95 95 90 91 91 96 85 80 87 97 96 87 84 88 86 86 84 78 78 78 77 70 60 53 50 55 65 66 49
76 72 84 78 83 83 90 85 83 96 100 100 97 96 97 96 94 93 89 91 93 94 96 96 96 94 94 93 97 97 97 97 96 96 96 96 94 87 82 80 81 84 74 73 64 55 57 58 60 65 70 64 50 46
79 73 86 91 98 98 94 98 100 100 99 89 86 96 96 95 94 93 94 95 96 96 96 96 96 96 96 96 96 97 97 97 96 96 96 97 94 92 94 93 90 84 68 55 50 48 48 53 57 51 45 48 51 53
92 90 92 100 100 100 100 95 97 98 86 99 100 96 94 92 98 96 92 96 95 96 95 94 96 96 96 96 96 96 96 95 90 93 92 93 93 96 95 88 78 64 60 56 49 46 41 36 40 44 48 50 54 56
85 92 99 100 98 92 94 97 100 85 88 83 78 96 92 94 94 96 96 95 95 95 96 96 96 95 95 94 95 96 96 96 96 89 90 92 94 96 80 68 63 59 53 50 65 77 85 72 70 53 54 56 54 51
97 96 100 99 97 99 99 96 96 77 92 99 95 98 96 97 95 95 95 95 96 96 95 95 95 96 95 95 95 91 91 79 72 73 74 83 84 75 67 59 54 53 56 67 75 70 68 56 53 51 52 60 68 59
99 99 100 100 100 98 98 100 100 100 100 98 99 98 97 95 95 94 96 95 95 95 95 96 94 96 95 83 75 75 72 82 86 73 66 65 62 58 56 59 64 65 64 58 55 56 55 53 51 51 55 58 58 58
98 95 99 100 100 100 99 97 100 99 100 100 99 100 96 94 95 94 96 95 96 96 95 96 96 95 87 82 85 88 74 73 67 61 53 52 53 60 66 64 50 50 53 56 58 57 54 50 52 55 56 57 59 58

GFSWCAN_925_rhum_003.txt.gz
RH
90 91 87 83 84 80 79 77 78 79 79 73 77 79 87 91 88 99 96 95 100 88 79 69 72 87 91 85 93 90 98 99 99 94 97 90 90 91 84 75 82 80 75 93 88 91 85 53 43 50 49 63 57 63
91 86 79 83 78 77 76 78 76 79 81 78 80 77 83 89 91 92 98 94 100 92 89 82 72 65 66 71 85 95 94 95 94 93 92 90 91 94 84 91 74 86 74 78 73 76 60 54 52 56 56 66 66 75
90 81 74 77 83 84 73 81 80 80 80 80 79 77 82 87 92 99 98 97 100 98 93 92 85 74 74 72 66 94 95 90 98 90 91 89 82 89 85 92 81 73 68 74 69 60 58 53 56 59 63 70 78 76
87 86 86 85 84 87 87 81 83 82 82 82 79 79 81 90 95 96 97 91 100 94 98 87 83 85 86 85 80 86 98 98 99 99 97 90 85 78 83 76 83 80 68 72 72 60 58 55 56 70 75 73 72 72
92 88 89 88 87 86 85 83 84 85 84 87 78 80 83 90 95 87 77 80 96 100 98 94 84 93 97 96 99 99 99 98 99 99 100 92 91 87 90 85 86 75 76 76 80 60 54 58 68 70 71 74 70 68
90 93 86 86 85 81 84 88 89 88 83 74 80 82 86 91 95 87 98 93 96 100 93 100 90 95 99 100 98 98 97 98 99 99 96 93 84 85 93 93 72 65 62 63 60 63 72 75 70 65 74 73 68 70
92 93 87 84 83 84 82 82 80 76 74 76 80 82 86 91 93 95 93 98 97 100 98 100 98 89 96 92 97 99 98 99 99 99 98 93 93 88 89 92 66 64 59 64 70 64 68 63 72 74 73 74 72 75
94 92 88 87 85 82 80 78 76 76 71 71 76 79 88 94 94 93 70 70 82 99 96 100 99 98 91 99 99 97 94 96 96 98 95 95 88 87 93 80 69 70 75 73 76 69 66 74 74 75 70 67 72 77
93 92 90 90 87 84 81 79 75 72 75 75 86 92 99 98 99 92 89 95 95 90 98 100 100 100 92 97 94 97 98 99 98 98 97 92 92 94 77 72 77 74 67 78 80 75 72 72 73 70 69 69 73 76
89 92 92 91 90 88 83 80 74 68 76 82 92 95 99 99 84 100 100 100 100 100 98 99 91 94 96 96 99 96 96 99 100 96 94 99 98 80 76 69 68 72 77 73 77 86 84 82 77 72 66 62 60 64
91 93 92 91 91 90 86 76 75 78 79 87 99 100 97 81 98 99 100 100 100 100 99 97 91 93 90 95 96 94 99 99 97 91 97 96 94 87 76 81 77 79 71 66 64 66 62 62 64 65 70 70 70 67
90 91 92 91 91 90 80 76 81 79 86 96 98 99 99 99 100 99 99 100 100 94 99 98 98 92 94 87 92 93 97 94 85 94 98 98 87 81 76 82 83 80 77 72 66 65 63 59 58 64 70 76 79 82
86 88 91 91 90 88 72 84 84 82 85 96 98 100 100 99 99 99 98 100 100 100 100 99 98 90 90 88 95 93 93 96 88 97 96 93 92 83 83 90 91 82 74 68 65 61 62 71 65 65 80 86 87 88
90 90 91 92 73 79 90 86 85 90 98 99 98 96 98 98 99 99 96 97 94 99 99 92 95 91 87 91 93 96 94 86 99 100 88 90 86 80 90 90 83 79 71 68 68 68 72 72 82 81 85 86 85 88
92 92 88 50 80 91 89 87 88 90 99 99 99 97 99 100 100 98 100 98 97 99 88 90 93 82 96 93 88 90 97 99 96 86 88 89 92 94 92 85 82 75 73 75 73 73 80 79 80 92 88 84 83 83
93 84 49 62 91 89 85 87 91 99 93 99 99 98 99 100 100 100 97 97 99 97 94 91 90 90 89 90 95 95 94 95 80 91 93 92 91 87 85 80 78 72 69 68 67 68 68 70 77 85 82 81 80 74
91 72 66 80 91 78 80 85 98 99 98 93 98 100 100 99 100 100 88 86 87 97 96 92 86 78 94 99 98 90 87 84 91 98 100 98 94 87 83 81 75 67 65 66 67 68 75 75 73 72 75 71 68 64
91 80 86 93 88 78 81 87 97 98 94 97 98 98 89 95 100 99 91 86 97 100 93 85 91 99 90 89 89 86 92 99 99 98 98 92 86 84 76 77 74 69 67 66 69 73 74 72 74 76 77 68 62 58
94 94 87 79 82 86 92 81 98 99 98 87 90 99 95 91 91 97 97 92 90 91 93 92 88 94 92 92 87 96 98 97 94 97 92 86 84 81 80 77 75 75 75 73 67 68 70 65 69 68 65 61 63 62
86 70 68 51 76 79 81 88 94 95 97 96 93 92 99 93 94 98 98 98 97 100 98 92 86 81 85 88 95 96 96 94 95 96 93 91 89 86 83 78 79 77 80 76 72 68 68 68 65 63 61 60 59 62
71 72 62 61 84 85 83 95 100 94 92 95 97 100 98 98 99 99 100 100 100 100 100 98 91 91 89 88 86 88 87 89 92 88 92 97 91 88 90 86 76 71 70 68 70 69 66 67 68 65 67 64 59 55
73 75 66 70 83 83 98 94 100 98 99 95 100 100 98 99 98 98 98 99 98 97 97 97 97 92 89 87 88 82 86 86 83 81 79 82 90 91 87 80 73 78 72 73 70 71 76 76 72 67 63 64 57 56
79 66 63 62 70 67 66 86 92 99 99 99 99 98 97 99 97 97 97 96 96 96 96 95 96 95 93 90 89 90 85 87 91 88 82 82 82 82 82 80 80 83 87 85 79 76 75 72 73 67 67 61 59 62
71 76 68 73 80 69 70 88 84 99 97 96 100 98 92 99 97 98 96 96 92 91 92 95 97 96 90 87 94 98 95 84 84 86 81 82 88 86 82 81 81 79 80 81 77 76 74 71 69 64 61 61 60 54
64 55 73 56 86 76 94 96 100 96 100 98 100 97 94 97 97 98 96 95 92 90 93 92 93 96 96 95 93 96 99 90 88 91 82 79 82 82 85 83 84 86 83 81 79 76 76 69 66 64 60 55 50 48
75 69 74 68 85 77 90 85 98 96 100 100 98 96 98 98 97 97 98 97 92 94 93 93 91 90 94 94 94 95 97 97 96 93 96 84 77 80 87 88 89 87 82 80 79 77 74 69 64 58 54 60 59 45
79 73 76 69 78 81 90 86 84 96 100 100 100 99 100 98 96 94 92 93 91 92 95 96 95 94 95 94 96 96 97 97 96 96 97 97 96 89 82 83 86 88 76 71 67 66 66 63 59 58 66 65 48 42
79 70 89 95 99 98 89 98 100 99 100 90 89 100 97 93 91 96 97 89 95 100 96 96 96 96 96 96 96 96 97 97 96 96 96 96 96 97 96 89 83 80 73 73 68 62 52 48 51 57 50 46 50 49
92 86 92 100 100 100 100 90 93 95 86 97 97 97 96 95 97 97 86 88 95 99 96 95 95 96 96 96 96 96 96 96 93 94 93 93 94 96 100 97 96 96 96 91 61 45 41 42 45 40 42 43 46 48
94 93 99 100 98 92 91 96 100 93 90 83 78 96 95 96 88 89 95 95 96 95 96 96 96 96 95 94 95 96 96 97 95 83 88 92 94 97 96 96 93 83 69 62 69 74 80 63 65 47 48 50 45 42
98 96 100 100 97 98 98 95 96 76 94 100 97 99 97 97 90 93 95 96 96 96 96 96 96 96 96 96 95 95 95 96 96 94 92 96 96 96 92 77 68 67 68 69 71 66 61 48 48 49 46 46 55 52
99 100 100 100 100 98 98 100 100 100 100 100 99 100 100 99 99 97 94 96 95 95 95 95 95 96 96 96 96 96 97 96 96 96 95 94 90 73 65 62 60 56 55 53 49 48 45 46 46 45 48 53 55 53
98 99 99 100 100 100 99 98 100 100 100 100 100 100 98 97 97 95 94 96 96 96 95 95 95 95 96 94 95 96 93 88 89 80 60 54 54 54 53 54 55 52 47 48 49 48 46 43 44 48 50 50 52 52

GFSWCAN_925_rhum_006.txt.gz
RH
85 86 87 83 78 83 82 71 80 80 80 80 79 80 78 83 90 98 91 99 100 95 84 68 72 88 86 84 88 92 93 98 99 99 99 98 99 89 87 74 86 89 87 89 89 93 74 56 59 72 59 57 62 68
84 87 84 84 85 83 85 85 84 83 81 83 80 80 76 78 92 94 94 86 100 98 87 85 71 65 65 66 82 91 89 93 92 98 94 91 95 93 88 88 78 90 75 78 80 73 58 56 57 58 60 64 65 75
88 90 85 87 85 82 82 81 81 82 84 82 81 81 77 79 88 98 95 91 95 96 90 91 85 74 71 68 62 90 94 87 96 98 96 91 89 91 93 89 81 74 75 80 72 59 64 55 58 63 70 69 73 80
94 90 86 86 84 82 80 83 86 86 85 85 83 76 79 82 88 94 96 86 96 98 97 86 84 84 84 79 76 77 91 97 98 99 98 94 87 81 86 81 85 79 71 74 75 67 61 57 60 73 82 80 77 75
93 86 91 86 85 83 81 80 78 78 78 76 75 77 79 83 89 89 81 75 79 99 98 95 86 95 95 93 93 93 95 97 98 99 98 97 89 89 92 87 88 78 76 76 80 64 59 59 72 74 77 78 72 72
94 91 91 86 85 84 82 79 77 75 74 75 73 72 77 83 89 90 97 100 100 100 99 99 92 98 100 99 97 97 97 98 99 98 98 96 83 85 94 94 71 71 68 67 64 62 76 78 73 68 78 75 71 70
94 90 86 88 86 84 84 81 78 76 73 72 77 75 77 82 86 92 89 98 91 96 99 100 99 93 94 88 95 99 98 98 99 94 99 97 94 90 94 95 68 70 68 64 68 69 68 67 71 76 75 78 76 76
95 87 85 88 88 86 85 83 80 76 70 70 76 82 86 93 91 95 76 75 77 99 99 100 100 97 94 98 99 97 98 98 99 97 97 97 91 91 98 83 73 71 77 76 71 69 65 79 81 81 75 70 73 76
87 80 86 89 88 87 87 86 82 75 74 80 84 89 97 87 95 92 96 99 89 98 98 99 100 99 95 97 95 99 98 99 97 98 98 98 95 98 83 78 78 78 71 80 83 80 78 78 82 77 71 69 71 78
84 78 87 91 87 90 89 86 78 76 80 77 91 92 98 93 78 86 99 99 100 100 99 99 91 93 93 97 99 97 96 99 100 96 93 99 97 77 76 69 65 75 78 76 80 90 88 86 82 76 69 65 67 71
88 83 82 87 88 91 90 84 77 83 79 94 98 99 93 86 98 99 100 100 100 100 98 97 92 92 94 96 96 95 99 99 99 91 98 98 95 86 80 82 78 74 72 67 62 68 66 67 72 71 71 71 71 70
95 90 89 90 91 91 81 81 86 85 88 96 98 99 99 99 100 100 100 100 95 92 98 98 98 90 95 90 93 94 97 96 87 93 99 97 89 84 82 83 81 78 74 68 66 70 69 65 62 64 69 70 73 74
95 94 93 93 92 84 88 90 85 89 94 92 95 100 99 99 98 99 98 99 100 100 100 99 98 93 91 89 95 92 93 94 89 98 97 93 91 82 81 88 87 83 74 72 72 69 66 72 67 66 77 77 72 71
95 94 95 94 85 88 93 88 86 88 93 94 98 94 98 97 99 99 99 99 95 100 100 95 97 95 87 93 92 97 94 89 98 100 89 90 87 81 88 90 88 83 75 74 74 72 75 76 84 80 80 76 72 76
94 94 92 75 74 94 91 80 80 93 98 97 97 97 98 100 99 99 100 100 97 100 96 92 94 82 95 94 90 94 97 98 97 89 88 91 91 93 92 89 87 82 80 83 80 78 83 81 84 91 85 77 78 78
94 88 53 67 91 92 82 79 82 97 99 94 97 97 94 98 97 98 100 99 97 99 96 96 91 91 88 92 96 99 98 97 82 91 93 94 87 89 89 87 84 80 78 75 75 74 76 79 82 90 87 82 77 72
90 85 68 78 94 86 79 80 89 98 96 86 97 92 92 97 98 98 99 95 86 98 100 96 89 80 92 98 98 90 87 84 91 94 98 99 96 90 87 85 81 77 76 74 73 74 79 81 79 77 82 76 70 66
82 85 91 94 84 70 73 75 94 93 87 92 99 100 96 93 87 88 94 95 98 100 98 94 87 100 91 92 90 87 91 98 99 100 98 94 85 86 82 84 80 77 77 76 73 76 76 74 77 80 82 75 68 64
93 96 96 77 69 83 95 83 96 92 92 86 81 84 95 94 91 88 86 95 98 98 98 100 93 94 91 93 89 94 97 98 94 96 93 88 86 86 85 83 82 81 81 79 70 69 71 67 73 73 68 63 65 65
93 84 77 56 74 81 87 93 95 90 94 96 88 89 92 94 92 94 92 97 99 100 100 99 93 80 85 89 96 96 97 92 94 94 93 91 91 89 89 84 83 82 81 78 73 70 69 69 66 64 62 62 60 63
84 78 63 60 85 86 90 91 96 94 92 86 81 98 98 99 99 98 98 99 99 100 100 99 99 93 86 90 90 91 90 92 90 85 89 99 93 89 91 88 80 74 72 69 68 68 65 65 67 63 65 61 59 55
80 74 64 68 84 86 96 88 97 97 95 90 98 100 98 97 100 99 99 100 98 97 97 96 96 96 95 88 88 85 86 87 86 87 83 85 94 94 92 84 77 82 76 72 68 66 69 71 69 62 58 60 57 60
83 68 62 61 71 66 66 86 92 100 98 99 100 98 97 100 97 96 99 97 97 94 94 95 95 97 97 97 97 91 88 88 92 92 90 91 88 86 86 80 79 83 87 82 74 74 74 70 66 62 62 61 63 64
73 73 69 70 76 62 67 88 85 99 99 99 100 97 89 99 96 99 98 98 87 80 90 94 92 92 94 97 97 97 94 87 90 88 86 86 92 94 85 83 80 75 76 79 75 73 73 69 67 62 61 64 60 52
72 65 71 59 86 75 79 98 100 95 99 100 100 100 95 99 100 100 100 96 96 87 88 90 91 91 93 94 96 97 98 89 90 93 88 84 84 83 84 81 80 80 77 79 78 76 74 71 69 70 67 61 56 52
78 72 75 71 79 72 81 76 98 94 99 100 100 96 100 98 99 98 96 96 95 96 94 90 88 86 83 90 94 96 96 97 88 91 92 81 79 83 89 90 91 90 79 75 82 82 78 75 72 67 64 64 58 44
84 77 69 60 72 77 87 87 83 96 100 100 100 99 100 100 100 91 96 96 98 90 89 97 96 92 91 90 94 96 97 97 95 96 99 98 96 90 83 86 89 91 80 84 84 77 74 72 68 67 69 64 45 37
81 70 90 96 98 96 86 97 99 100 96 90 95 99 100 94 89 96 95 83 79 86 98 95 97 98 98 97 96 96 96 96 97 98 97 98 97 97 97 94 88 90 88 86 78 69 64 61 58 57 52 46 46 43
93 87 91 100 100 100 100 85 87 92 83 94 93 95 93 94 97 98 79 81 89 98 100 96 92 95 96 96 96 96 96 97 94 94 92 94 93 96 97 97 97 97 88 78 74 70 59 45 44 40 38 40 44 46
97 93 96 100 94 89 88 95 100 98 90 81 78 95 95 96 83 82 87 91 97 97 95 99 98 96 96 96 96 96 96 96 97 80 87 91 94 97 96 96 98 98 97 96 93 88 85 60 53 39 42 48 48 43
97 96 99 99 96 98 98 95 96 76 94 100 97 100 97 96 87 92 93 95 97 95 97 96 95 96 96 96 96 95 95 96 97 96 95 96 96 96 96 96 96 96 96 93 82 72 62 44 43 48 47 46 54 49
99 99 100 100 100 98 98 100 100 100 100 100 99 100 100 99 100 97 92 93 95 95 95 95 95 95 95 96 96 96 96 96 97 95 96 96 96 96 96 95 95 87 61 55 47 42 38 41 44 45 52 53 50 47
98 100 100 100 100 100 99 98 100 100 100 100 100 100 100 100 96 94 93 96 96 96 96 96 96 96 95 95 95 96 96 96 97 98 98 97 95 93 82 59 51 48 42 41 42 42 42 42 45 47 46 44 45 44

GFSWCAN_925_rhum_009.txt.gz
RH
81 84 87 82 83 80 78 77 79 81 82 82 82 80 84 78 82 92 93 99 99 99 86 69 76 86 86 86 88 85 92 94 99 99 99 97 94 90 91 76 87 87 97 97 88 94 79 58 74 82 63 62 64 74
83 88 87 85 84 80 77 77 81 83 85 85 83 83 80 77 80 90 94 88 97 99 86 85 75 68 61 66 82 89 85 89 91 90 97 94 91 90 89 90 80 92 75 78 82 73 58 58 60 59 65 68 64 72
92 91 88 83 87 81 79 77 77 75 74 77 77 75 76 75 79 88 95 94 93 99 89 89 83 73 68 64 61 88 94 81 93 97 99 93 99 87 94 93 81 76 77 84 73 61 68 66 57 63 78 73 75 77
93 95 92 88 89 83 82 80 77 76 74 73 73 74 75 76 77 83 94 93 96 99 99 84 84 84 84 75 73 71 84 92 95 99 96 97 97 82 89 82 86 80 78 76 79 70 68 62 61 70 84 82 79 74
95 95 94 88 87 85 84 82 81 78 76 75 74 72 76 76 78 81 73 80 93 98 97 93 88 94 96 90 90 89 89 93 98 99 98 95 87 86 92 90 91 84 76 80 77 64 64 62 71 76 79 81 77 72
95 97 93 81 86 85 85 84 83 81 79 78 72 69 75 77 79 84 96 100 100 100 100 100 94 97 96 95 98 97 97 98 98 97 92 87 80 78 94 95 71 71 70 70 66 62 72 77 73 71 79 78 74 73
94 96 82 77 84 85 84 84 84 83 81 77 75 74 78 84 85 89 94 96 84 91 100 100 98 95 96 93 94 96 97 99 99 95 96 97 98 95 95 99 66 70 72 67 66 71 68 70 70 75 74 76 73 71
96 89 82 75 83 83 83 83 82 82 82 77 78 81 89 95 93 91 82 74 100 100 99 100 98 94 93 98 98 97 99 99 99 96 98 99 95 96 99 83 74 67 71 68 74 68 71 81 81 82 74 70 73 74
93 92 84 78 84 83 85 86 85 84 77 80 82 84 97 92 94 90 90 94 100 100 100 99 99 90 97 97 95 99 99 99 94 99 97 97 96 99 83 79 75 83 75 72 82 82 82 81 82 77 72 71 72 74
97 96 90 86 78 81 90 87 85 80 82 80 77 90 98 89 79 86 93 99 100 100 100 99 90 92 90 97 99 98 96 98 100 96 96 99 98 78 76 75 69 77 79 81 82 93 91 89 85 77 71 65 65 68
97 98 96 92 92 87 88 84 86 86 77 82 90 94 93 86 98 95 100 97 100 96 98 96 90 93 94 97 96 95 99 100 100 92 98 98 97 85 80 81 77 75 74 69 60 66 66 68 72 71 72 71 73 72
97 98 95 92 93 92 90 86 88 87 88 97 99 100 99 97 100 100 100 99 98 96 98 98 97 90 95 92 94 96 97 98 93 92 98 96 90 81 82 84 80 76 74 66 63 70 71 69 66 66 71 74 75 76
97 96 95 94 94 93 90 91 89 87 93 88 93 94 97 99 98 98 98 99 100 100 100 99 99 92 92 91 96 93 97 94 89 94 96 94 90 81 81 87 86 79 72 73 75 74 71 75 69 66 74 72 71 72
96 95 96 95 93 91 94 90 90 84 91 89 97 98 97 98 98 99 99 99 99 100 100 97 96 93 90 94 94 94 92 92 96 99 96 90 86 77 88 89 87 84 77 77 77 76 78 77 81 76 72 69 66 67
95 90 96 90 74 95 92 75 81 88 92 93 90 96 99 98 99 100 100 100 99 98 100 96 95 85 96 92 92 94 97 96 91 94 89 91 89 91 91 89 89 85 84 86 83 83 86 82 80 85 75 67 70 70
94 83 67 70 94 95 70 78 75 92 97 96 91 94 83 95 96 84 96 99 99 98 99 98 96 93 89 92 98 99 98 96 82 92 93 95 86 88 89 87 85 82 81 80 80 80 81 79 78 84 78 74 72 68
93 83 75 83 96 74 73 76 77 93 95 92 96 96 89 94 99 82 84 92 88 100 100 100 99 82 91 98 99 93 90 84 88 93 99 99 97 91 87 84 83 82 80 80 80 80 85 86 79 74 78 77 70 67
96 76 81 95 90 64 72 76 84 83 85 88 97 94 86 93 98 93 85 86 97 99 100 100 99 99 95 99 93 89 92 97 100 99 98 95 87 86 84 86 84 83 83 82 81 84 82 75 73 78 80 76 72 68
88 92 97 88 68 75 93 88 89 88 88 83 81 76 84 87 93 94 94 86 90 96 100 100 99 98 93 96 94 92 94 98 92 93 93 89 86 87 87 86 87 87 86 85 79 74 73 68 74 75 72 68 69 68
95 92 83 67 59 82 88 97 91 88 91 90 81 86 87 90 93 97 97 93 96 97 100 99 98 98 98 96 97 96 94 92 94 91 90 90 90 92 92 88 89 87 84 80 76 73 73 74 72 70 67 66 64 65
87 85 68 59 86 87 92 89 93 90 85 87 80 87 97 94 98 96 83 97 99 94 99 98 93 87 89 96 98 94 92 94 94 89 84 98 93 93 94 91 85 80 77 74 74 71 68 69 69 66 67 64 61 58
84 73 66 66 84 92 95 90 94 94 96 95 92 96 98 97 96 100 99 97 99 99 95 93 92 91 87 87 94 98 96 93 91 90 84 86 96 97 95 88 81 84 78 75 68 66 68 68 67 62 60 61 60 62
85 72 62 61 72 69 70 86 91 97 98 99 100 99 99 100 98 96 96 98 98 99 91 93 93 94 94 92 98 98 99 96 94 94 92 92 90 86 89 84 82 83 85 80 72 72 70 66 63 62 63 64 64 66
70 72 74 72 76 65 66 88 86 99 100 100 99 100 85 99 96 100 100 99 94 93 95 95 93 87 77 88 92 94 97 98 97 90 89 93 97 95 86 85 80 75 74 77 74 71 67 64 64 63 61 64 59 52
75 71 72 61 87 76 74 90 97 95 92 100 100 100 100 98 100 100 100 96 97 96 96 95 90 86 91 82 86 89 96 98 97 96 95 88 91 89 89 84 82 80 76 77 77 74 70 67 64 69 67 61 57 57
75 74 71 69 82 72 76 78 97 92 98 100 100 99 100 98 97 100 96 97 95 96 97 97 92 92 85 78 89 87 91 97 98 96 96 95 87 86 90 90 89 86 79 75 74 75 75 75 74 69 66 63 59 49
84 79 67 54 65 71 85 85 81 94 100 99 99 99 100 100 100 88 96 98 97 87 82 82 94 98 95 88 87 94 97 96 97 97 97 97 96 86 83 84 85 85 80 85 90 84 80 77 72 69 70 68 51 41
81 70 83 94 97 96 85 97 98 96 93 89 94 99 97 98 86 90 94 75 76 78 88 88 90 94 100 100 98 98 96 96 96 97 96 96 97 96 88 82 83 92 94 91 88 86 82 73 71 67 57 50 43 38
92 86 91 100 100 100 94 81 82 88 79 95 92 93 91 92 95 96 72 73 84 94 99 97 90 87 96 97 95 96 96 96 96 96 95 95 96 97 97 98 98 97 97 97 96 81 65 57 53 45 38 37 41 43
97 92 95 100 92 89 87 93 96 98 89 81 79 94 94 95 82 79 78 82 92 99 96 98 98 100 96 97 95 95 96 96 96 96 94 94 94 97 99 98 97 97 97 96 97 97 98 90 70 37 40 46 43 40
96 95 98 98 95 97 99 94 97 76 95 100 97 100 98 96 85 85 89 91 94 97 100 99 95 95 96 96 96 95 95 96 95 97 96 95 96 97 97 97 97 97 98 99 98 96 87 56 42 47 46 44 48 43
98 99 100 100 100 98 98 100 100 100 100 100 99 100 100 100 100 97 89 93 91 94 92 95 96 94 95 96 96 96 96 96 96 96 96 96 97 97 96 96 96 97 96 96 95 70 38 44 53 48 47 49 48 49
99 100 100 100 100 100 99 98 100 100 100 100 100 100 100 99 96 92 90 95 98 100 97 95 96 96 96 96 95 96 95 95 96 98 99 98 98 96 95 96 96 96 93 74 50 38 39 40 42 43 43 44 45 53

GFSWCAN_925_rhum_012.txt.gz
RH
85 84 87 86 82 85 80 79 78 76 75 76 81 80 77 78 79 85 84 97 98 98 84 67 61 73 76 68 71 73 81 87 94 96 96 86 86 67 73 62 67 64 78 87 78 76 78 51 58 58 53 52 54 62
89 87 89 88 81 86 81 80 80 78 76 75 74 73 74 76 78 81 89 88 88 99 92 88 77 69 61 56 68 81 75 80 80 93 93 94 82 75 68 67 63 74 59 57 60 54 46 49 52 48 55 57 57 61
88 89 94 90 89 87 84 81 81 80 78 75 73 72 72 73 76 79 85 88 89 98 88 82 72 78 69 63 61 73 90 73 88 86 94 93 97 88 75 69 66 63 60 66 65 49 54 50 50 53 60 62 62 64
89 91 95 94 89 81 86 83 83 81 80 77 75 73 72 73 76 77 85 85 90 96 100 78 83 81 84 74 70 71 75 84 89 96 93 89 94 69 70 69 68 60 67 64 63 53 50 51 52 57 65 63 63 60
88 91 96 95 86 86 88 83 82 81 79 79 79 79 72 73 79 81 77 86 85 95 98 86 84 98 94 88 86 83 78 82 89 95 98 92 80 88 72 76 70 60 57 55 48 52 50 50 57 61 63 63 60 60
94 92 96 92 82 75 86 84 77 78 75 81 80 80 78 78 82 85 92 100 90 95 100 97 90 91 93 92 90 89 88 89 87 94 91 86 73 82 86 76 53 50 54 51 48 52 54 59 59 60 62 64 58 57
92 92 96 96 87 78 82 86 83 79 78 79 80 78 79 81 83 84 87 97 87 96 98 99 94 93 95 90 91 89 89 92 92 94 96 88 82 93 96 81 52 53 52 53 56 55 59 61 56 60 61 62 59 53
94 94 97 94 88 80 76 79 84 81 82 80 80 80 88 94 91 88 84 74 88 100 98 100 96 88 92 95 90 84 92 98 98 95 96 99 95 99 98 72 60 56 59 59 57 59 61 60 63 65 62 59 59 57
93 96 97 95 95 88 83 83 80 83 82 82 85 76 91 76 85 93 87 90 93 100 99 100 100 95 94 94 87 99 96 99 90 100 98 98 90 98 77 66 63 61 62 58 68 66 66 64 67 67 63 60 59 59
94 96 97 98 96 88 87 89 88 84 84 78 75 87 97 90 89 95 97 96 100 99 100 98 79 90 85 91 97 92 95 98 100 92 96 99 97 72 67 65 61 59 62 69 75 91 95 93 86 69 66 56 55 56
92 94 95 99 95 94 92 91 86 88 72 89 85 94 98 93 99 92 100 100 99 100 97 88 81 82 84 90 90 88 96 100 100 90 95 96 85 71 67 66 68 64 60 61 56 58 60 60 63 62 60 58 57 55
94 94 97 98 95 94 91 91 90 89 88 91 98 96 98 100 100 100 100 100 97 96 98 96 86 81 90 87 89 94 98 98 99 81 95 96 75 74 67 68 76 67 62 62 57 60 59 60 57 57 61 60 58 62
93 93 96 97 95 94 94 93 89 95 95 85 88 90 95 98 96 95 96 99 99 100 100 99 99 87 89 85 91 92 96 93 80 96 91 81 75 68 65 74 77 69 63 63 68 66 63 65 64 60 63 64 63 61
92 94 94 95 96 94 95 89 75 81 81 83 90 96 93 95 94 95 99 100 100 100 99 98 97 93 86 96 88 95 84 87 96 98 92 83 71 65 73 80 79 72 66 67 70 69 74 72 71 68 67 66 62 62
94 92 96 97 86 92 88 64 78 84 82 88 87 98 95 92 99 99 100 100 99 98 99 97 96 82 95 95 85 94 96 95 86 86 82 81 75 76 80 81 79 72 69 74 74 74 75 74 66 71 70 63 61 61
90 98 86 72 80 96 60 75 75 83 91 93 92 95 84 90 90 88 88 97 98 98 100 98 99 98 97 92 97 99 97 93 82 96 83 72 75 77 80 79 76 70 67 69 68 70 69 67 65 68 66 62 60 59
98 92 70 76 84 83 64 75 74 89 76 89 92 92 91 92 94 90 73 80 79 98 100 100 100 100 93 95 96 89 90 90 92 88 83 92 90 80 78 76 75 72 70 70 73 70 70 71 67 64 65 65 62 58
99 81 80 83 87 64 72 79 81 83 84 78 88 87 81 81 90 85 80 79 82 98 99 100 99 98 95 98 94 89 85 89 84 85 88 84 80 77 78 75 75 74 74 76 77 82 78 70 66 65 74 73 70 65
98 86 89 93 79 61 85 94 88 93 87 80 79 74 78 81 81 83 84 83 78 86 99 100 100 95 90 87 91 96 93 92 93 85 80 78 79 78 78 82 84 84 85 85 78 74 70 64 66 69 68 62 62 62
100 100 98 84 64 80 87 93 90 88 95 87 81 85 82 83 81 87 91 94 94 99 98 100 93 95 94 91 92 92 90 87 86 85 78 73 78 86 86 84 78 85 84 84 79 74 71 70 68 66 64 64 61 62
95 94 84 66 83 84 86 90 92 88 86 86 83 85 93 84 92 92 95 94 92 92 94 93 88 86 81 78 78 89 86 87 90 86 83 87 75 83 84 88 88 78 73 72 69 69 66 66 68 70 70 62 62 60
83 72 66 66 82 93 91 88 92 91 93 91 86 89 96 92 94 97 95 97 93 92 87 80 82 85 80 79 83 90 92 97 95 90 87 84 85 86 86 85 83 83 78 77 68 66 66 67 67 64 60 62 61 64
77 71 61 65 70 68 78 86 90 94 100 98 98 100 98 98 94 93 96 85 87 84 82 84 88 86 84 81 88 92 92 94 90 92 91 83 84 87 87 89 83 86 86 78 73 71 69 68 65 60 62 63 65 67
67 68 72 73 71 70 64 85 81 94 97 100 100 99 87 93 91 100 96 95 83 83 82 86 76 70 65 71 70 71 81 91 91 90 98 97 90 85 86 84 82 81 77 78 74 71 67 64 64 62 59 61 60 52
71 76 72 68 83 72 74 83 93 93 92 100 100 95 91 92 98 100 99 92 88 81 82 80 73 72 74 70 71 70 76 87 90 91 89 98 97 94 91 88 82 80 77 78 74 72 68 67 63 64 66 60 56 55
85 81 72 69 80 67 72 72 91 88 92 100 98 90 96 97 100 98 90 86 79 81 80 76 72 75 73 71 76 75 75 82 96 90 84 97 98 96 95 92 88 86 80 74 73 72 71 68 70 68 65 62 58 58
89 84 65 49 56 63 74 78 75 84 100 84 86 98 96 100 100 82 76 83 82 82 72 72 81 86 86 83 83 85 87 90 98 95 97 97 97 97 97 93 88 81 80 78 74 71 76 82 80 72 67 65 62 57
77 66 75 83 90 85 81 92 90 87 77 76 85 100 92 92 75 76 82 75 74 70 72 77 82 88 96 95 95 98 100 98 99 97 96 97 96 97 97 97 97 89 81 78 81 92 93 86 81 74 73 69 68 58
87 76 83 100 100 100 86 76 75 76 68 88 84 83 82 80 83 82 72 69 72 84 95 93 86 84 90 90 91 93 99 100 94 92 92 92 94 96 97 97 97 98 100 98 99 95 92 90 83 70 57 54 50 43
97 86 87 99 88 84 84 86 87 90 84 78 76 86 87 87 80 76 75 81 91 91 87 96 99 100 99 98 95 93 86 90 99 93 94 94 94 95 96 97 96 97 98 98 98 97 98 98 90 57 48 55 50 53
92 90 93 93 90 93 96 91 95 74 94 97 95 96 92 93 83 78 84 87 87 94 100 99 97 92 100 99 98 97 93 82 88 95 96 96 96 96 96 96 96 96 97 97 97 98 96 84 77 80 76 59 52 43
95 96 95 100 100 96 95 100 100 100 100 100 96 100 95 94 95 87 85 91 94 96 93 96 100 96 93 95 96 97 100 100 94 95 96 96 96 96 96 97 97 97 96 97 97 97 95 96 92 77 66 55 49 45
96 97 100 100 100 100 98 96 100 100 98 100 99 98 99 95 94 86 86 94 95 97 98 99 99 97 98 99 97 97 99 96 95 96 98 97 96 95 96 96 96 96 96 97 97 96 95 79 70 54 48 49 49 57

GFSWCAN_925_rhum_015.txt.gz
RH
90 84 84 88 92 87 81 83 82 81 80 78 75 73 73 76 78 80 83 90 93 97 85 64 45 54 56 53 60 66 73 73 79 82 78 74 75 59 62 47 55 62 71 78 80 95 81 42 45 60 51 47 46 48
86 86 82 90 94 92 84 88 82 82 81 79 77 74 72 72 74 79 82 77 89 97 89 89 71 64 52 45 57 63 70 67 71 84 94 91 93 64 57 67 48 63 47 56 53 50 38 40 46 42 47 50 48 52
93 88 86 91 95 93 85 85 88 81 82 78 78 77 75 72 72 76 78 86 91 96 92 94 68 69 69 65 66 62 72 66 70 70 93 92 98 87 91 61 52 48 44 56 57 41 42 41 40 46 50 53 53 54
90 90 86 90 95 93 78 78 86 83 80 82 78 72 74 79 70 75 78 85 90 97 100 79 80 71 85 71 71 70 67 78 82 86 96 93 94 75 71 65 64 54 57 56 53 45 40 44 46 50 54 53 56 56
92 91 92 92 96 96 85 76 86 85 80 82 76 77 78 81 77 78 77 86 89 95 99 89 78 96 90 80 76 73 63 70 86 96 97 92 83 77 60 66 64 48 53 58 48 45 46 46 50 51 53 55 54 53
92 93 90 92 95 97 89 81 78 86 88 87 82 81 84 79 80 80 86 99 100 100 99 96 86 83 86 81 77 76 76 84 92 96 91 86 74 82 95 68 43 36 36 37 42 45 46 51 52 51 53 54 52 52
95 95 91 94 96 97 94 84 78 78 88 82 78 80 82 83 85 79 77 99 98 98 98 99 94 93 88 83 87 88 84 92 95 93 95 86 78 93 90 80 46 40 42 43 44 48 52 54 51 54 54 54 52 50
97 95 93 95 96 98 95 88 85 83 87 81 83 84 90 96 94 86 79 85 72 99 96 100 95 84 88 92 87 82 93 93 96 95 92 95 93 93 93 64 55 50 46 47 49 48 53 51 54 58 56 52 53 52
97 96 93 95 97 100 92 87 91 88 84 85 78 77 89 76 70 90 89 95 96 100 100 98 97 97 88 89 80 95 85 98 89 96 95 98 93 98 71 64 58 53 59 54 56 55 56 57 59 60 56 54 53 54
97 96 96 95 97 99 94 93 90 88 88 73 86 79 87 86 89 93 97 97 100 99 99 94 67 86 80 81 89 84 94 94 100 84 86 100 96 67 57 52 53 60 54 62 74 89 98 97 82 62 59 51 50 51
96 97 97 96 97 98 94 88 91 91 78 85 80 86 94 96 99 96 100 100 98 100 91 77 66 70 78 81 80 84 92 99 100 87 85 88 80 60 59 54 54 58 59 56 51 51 59 56 59 59 56 52 51 49
100 100 97 93 96 98 88 92 93 88 85 88 95 93 99 100 100 100 100 100 94 98 90 82 77 69 82 81 86 88 99 96 100 75 89 90 71 72 59 56 61 66 62 56 53 53 54 53 52 54 54 54 51 49
98 98 97 95 99 98 94 95 83 90 92 91 85 97 99 98 99 96 91 95 100 100 100 99 98 83 84 84 88 90 98 96 75 95 89 76 73 60 54 63 70 65 60 57 60 58 57 59 56 56 56 53 53 51
95 94 95 96 99 97 96 90 70 78 88 84 89 91 95 95 88 90 93 99 100 100 99 98 97 91 82 94 84 99 82 82 92 96 90 88 78 64 63 70 74 68 63 63 65 64 71 68 66 61 60 56 51 51
98 98 96 96 99 92 91 60 77 76 78 90 89 95 88 85 99 100 100 100 99 99 99 99 99 82 98 99 82 93 93 94 83 82 88 84 74 69 70 73 73 67 65 71 71 73 72 71 65 68 64 56 55 56
98 96 87 89 90 89 81 65 77 75 90 99 94 94 85 94 93 87 90 98 93 88 100 100 100 99 100 96 95 96 92 92 90 98 88 76 76 72 70 71 70 66 61 64 63 65 66 62 64 64 61 57 55 53
100 93 78 66 85 88 65 75 81 84 90 81 87 82 85 89 87 78 64 65 65 92 100 100 100 100 98 97 97 87 93 93 92 90 82 80 84 76 72 74 74 70 64 63 66 64 63 62 62 57 58 57 55 54
96 88 83 80 86 83 72 79 84 79 84 81 86 79 74 73 80 70 67 67 76 94 100 100 100 100 96 96 95 88 87 94 86 79 78 72 70 69 72 75 74 72 69 70 69 74 72 67 65 62 66 64 63 57
91 86 94 89 89 60 80 90 95 89 83 80 75 73 73 75 70 70 71 70 70 70 93 100 100 93 88 95 93 91 89 92 94 85 76 66 69 71 78 86 86 83 82 83 78 71 68 63 61 66 65 57 56 56
94 100 100 96 74 77 81 90 92 86 87 82 75 82 78 76 71 75 82 87 81 94 95 95 93 90 86 84 91 91 85 79 84 88 80 63 65 77 83 88 78 82 81 82 76 69 66 65 64 62 57 56 56 58
100 100 99 84 74 84 79 85 88 81 78 82 78 80 83 78 85 89 90 92 90 83 81 74 78 76 76 77 78 84 82 76 81 85 89 90 78 78 78 80 88 79 75 73 71 67 64 62 62 60 61 58 59 57
99 98 72 71 80 89 85 87 85 86 88 83 83 82 90 88 88 86 93 93 91 78 78 72 73 70 58 56 59 66 70 83 86 83 84 82 84 83 80 79 85 83 79 77 69 68 62 64 65 64 59 60 59 61
97 74 69 79 74 70 78 84 92 91 92 90 93 94 92 94 89 91 96 79 75 73 70 71 79 78 73 70 74 75 77 78 76 76 76 78 82 85 86 86 85 89 89 81 74 70 69 66 65 60 62 60 64 67
72 73 76 71 69 70 65 83 75 86 89 87 86 76 87 89 87 94 91 81 76 75 78 84 66 59 52 65 61 52 59 69 73 74 77 76 84 82 92 96 83 85 83 80 76 73 69 66 64 62 61 62 62 57
91 87 74 77 79 74 78 83 85 84 84 89 87 80 87 87 90 93 91 78 84 78 76 73 66 62 62 55 54 55 63 68 70 79 78 80 80 86 90 98 98 90 82 81 78 76 71 67 64 64 67 65 58 56
95 88 80 73 75 72 69 77 86 84 79 92 88 83 91 89 95 86 74 76 71 73 76 74 66 62 57 56 62 62 61 68 74 78 79 81 85 88 93 92 94 96 95 82 77 75 71 70 68 73 72 66 60 60
95 93 64 45 48 54 57 62 61 71 85 80 77 92 90 94 87 72 60 67 70 76 76 74 70 70 71 69 69 72 76 80 88 87 87 91 95 96 99 95 94 96 96 96 82 74 73 70 75 85 82 75 68 62
77 65 76 71 70 70 76 72 78 80 70 61 73 90 88 79 68 69 73 79 81 70 68 69 72 79 87 87 88 90 92 92 95 99 100 99 99 100 99 97 98 97 97 97 95 81 74 76 85 94 88 83 81 77
84 71 70 91 87 82 78 70 68 63 53 74 79 73 74 68 73 75 74 70 66 74 87 83 84 90 96 94 94 93 95 100 95 95 94 88 83 87 91 97 97 97 97 97 97 90 91 96 97 96 92 90 82 70
92 72 75 88 84 79 79 75 79 82 74 71 70 73 74 76 79 68 71 79 89 86 87 91 94 100 96 96 93 92 89 94 100 96 92 88 82 91 94 96 97 97 96 97 98 98 98 98 98 98 95 90 84 84
81 81 85 78 82 87 89 83 85 68 84 89 88 89 83 86 79 78 80 86 89 90 95 94 94 95 98 94 94 93 90 83 87 97 98 97 96 95 96 97 97 97 97 97 97 98 97 98 96 90 85 87 85 54
88 90 88 90 91 92 89 92 92 90 90 91 88 94 88 88 88 79 81 88 94 92 90 94 94 92 93 100 99 98 99 98 100 100 100 100 98 95 96 96 96 97 96 96 97 97 95 95 93 91 95 96 84 51
93 92 93 91 94 95 93 91 91 91 93 92 89 90 90 88 88 78 77 86 89 93 93 93 94 99 100 100 100 97 97 96 97 100 100 100 100 98 96 96 96 96 96 96 96 97 96 96 96 96 93 73 62 56

GFSWCAN_925_rhum_018.txt.gz
RH
92 91 90 85 86 91 97 90 81 86 82 82 80 80 76 74 74 77 78 83 88 98 88 70 65 64 53 58 64 74 82 78 83 90 81 79 82 67 70 58 69 75 86 91 91 98 94 44 49 65 62 57 56 57
88 93 93 92 88 92 99 90 78 81 84 83 83 79 77 76 73 74 72 78 75 98 89 84 79 75 71 66 67 69 74 70 79 88 89 88 90 89 77 80 57 67 59 66 69 71 47 47 52 46 53 59 59 60
87 91 93 91 90 90 96 88 73 76 83 82 80 79 74 72 79 67 76 78 80 97 94 95 87 68 66 62 64 73 80 67 74 81 91 92 96 90 94 78 70 51 47 68 60 47 48 49 48 53 56 60 59 60
88 90 93 96 92 92 94 97 86 75 87 81 79 79 70 72 82 76 76 74 88 94 100 90 75 72 76 69 67 67 72 80 89 89 94 88 95 80 88 80 78 66 60 64 65 58 50 55 56 56 58 57 64 57
83 96 95 97 91 91 95 99 90 83 77 83 86 85 83 83 86 78 77 81 80 92 100 96 82 88 85 78 74 70 72 82 91 98 98 94 88 85 78 74 78 59 66 75 73 53 55 60 56 53 59 61 59 62
87 97 98 97 90 93 95 98 96 87 84 83 84 86 78 78 79 82 79 98 100 86 100 100 88 87 84 77 73 73 75 87 91 94 94 89 72 84 98 83 56 50 47 47 51 49 53 58 57 53 60 59 59 62
85 90 98 98 95 91 96 99 93 81 85 88 84 86 89 88 85 82 74 99 100 100 100 100 100 94 82 79 85 90 86 94 92 96 98 89 85 90 96 95 60 47 49 52 46 52 56 57 63 60 60 59 56 56
87 92 97 98 97 93 94 99 92 89 90 86 86 88 97 93 94 93 70 83 100 100 97 100 100 96 86 92 96 89 96 96 98 93 94 96 90 95 97 78 66 60 55 58 56 54 59 61 63 64 58 57 60 61
85 98 98 98 98 92 94 99 92 88 88 88 77 79 79 78 73 94 96 96 99 100 100 99 100 100 92 90 92 94 91 99 93 98 96 96 93 98 85 76 68 63 64 62 66 62 62 65 68 65 60 59 59 58
85 97 90 96 98 94 96 96 87 92 88 84 84 75 82 84 90 97 98 99 100 98 99 100 74 97 90 93 96 94 97 95 100 92 90 99 92 72 69 64 66 69 63 71 73 87 89 87 81 70 64 56 54 55
89 88 90 96 98 95 97 96 91 91 79 83 79 85 90 89 97 97 100 100 100 100 97 89 81 86 86 86 89 91 98 100 100 95 89 98 88 74 66 59 60 65 68 69 66 60 71 69 70 69 64 58 55 53
87 92 95 96 98 95 99 92 95 89 87 91 93 93 97 99 100 100 100 100 100 99 96 92 89 86 88 90 87 91 100 98 99 83 93 96 89 76 60 61 68 72 70 69 61 56 62 62 63 64 62 58 54 53
97 96 95 97 98 94 100 86 95 82 82 87 86 95 97 100 99 97 98 100 99 99 100 100 98 92 92 94 94 91 100 97 84 96 87 94 88 70 70 72 77 71 65 64 66 60 58 68 60 58 60 54 54 51
97 96 99 98 98 98 100 81 72 78 85 87 84 94 94 83 85 95 98 100 100 100 99 99 98 96 88 98 93 91 88 87 90 96 94 97 90 79 74 74 77 76 71 72 73 74 76 79 72 61 61 66 54 50
98 98 98 98 96 98 94 71 62 78 74 87 86 90 92 93 100 100 100 100 100 99 100 100 100 88 100 98 89 98 91 88 81 93 99 93 90 84 78 76 78 77 70 74 76 77 77 75 73 72 60 52 53 54
97 99 96 93 90 98 78 63 77 76 71 96 92 97 88 98 92 84 98 99 97 90 100 100 100 100 100 96 94 90 88 90 98 98 97 92 87 85 79 78 80 78 70 68 68 70 70 70 69 67 58 57 55 53
98 99 95 90 74 80 81 73 82 93 88 87 88 83 95 94 94 94 73 71 68 95 100 100 98 99 99 99 92 91 90 100 96 97 97 89 89 83 80 82 83 80 76 71 68 67 67 66 64 59 61 59 55 54
99 94 96 91 87 88 72 82 96 88 92 89 84 81 71 71 80 77 75 77 86 98 99 100 99 99 99 94 88 100 96 96 96 95 94 89 85 80 78 88 87 83 81 78 76 69 67 65 73 72 66 62 59 56
98 98 99 100 92 68 92 96 94 97 92 82 79 71 79 74 80 76 77 74 76 76 92 99 100 99 97 98 96 97 96 92 92 88 90 84 73 78 84 85 86 84 86 84 81 78 73 67 66 68 67 59 59 59
99 99 98 100 92 75 92 96 92 97 96 91 77 80 82 93 84 86 89 84 87 92 94 95 94 91 88 89 93 93 91 89 83 86 89 85 81 83 86 84 89 88 83 82 76 72 69 69 67 64 60 59 58 60
100 100 100 100 80 76 91 93 95 94 95 96 88 82 95 94 96 90 84 80 88 96 96 94 93 93 84 79 77 79 87 81 88 83 82 88 83 81 82 84 80 85 85 84 86 77 70 71 65 61 60 58 57 60
100 100 99 98 89 91 94 89 97 91 94 97 96 92 96 98 98 95 92 90 88 95 95 93 94 92 85 81 80 63 67 74 82 86 77 76 80 84 81 86 87 96 87 80 78 77 71 64 62 61 60 61 59 63
99 98 97 84 88 83 85 86 97 94 97 97 97 98 97 97 93 87 93 96 94 93 88 91 87 72 79 65 66 66 64 78 91 84 79 80 80 78 81 84 88 92 97 89 78 72 65 65 66 61 62 62 68 73
95 97 96 93 91 84 75 93 79 91 95 96 97 88 95 99 91 93 99 96 95 94 94 94 85 83 78 83 92 93 58 59 70 75 74 78 94 86 80 81 88 93 92 93 85 74 67 70 67 63 63 67 70 68
95 96 94 96 89 81 86 92 90 92 93 96 93 90 96 98 99 99 96 93 97 96 96 96 90 88 89 88 86 58 54 59 77 86 75 74 79 87 86 82 87 91 96 100 98 87 74 70 68 66 68 71 69 61
96 94 93 84 84 79 77 86 89 88 90 96 94 96 98 99 100 86 91 93 93 93 91 89 84 86 84 75 83 86 62 61 67 83 76 74 79 89 92 89 88 83 88 95 98 98 94 76 71 71 71 70 66 67
96 97 79 53 58 57 63 67 67 87 90 89 95 99 98 95 87 82 88 91 91 78 72 73 72 80 88 75 62 63 65 70 74 77 74 79 83 84 90 91 90 86 88 89 98 98 97 96 82 74 73 73 80 79
83 68 78 72 74 83 78 84 82 82 85 82 81 94 92 75 67 87 93 77 72 72 71 72 70 65 64 63 68 77 82 83 87 90 92 94 92 83 85 95 99 99 99 100 98 99 98 97 96 89 86 93 96 82
88 75 76 90 89 85 81 73 78 84 67 87 84 86 84 90 90 91 68 64 66 72 75 77 67 67 77 81 83 84 87 94 100 100 100 95 90 78 71 88 96 98 98 98 99 99 96 96 96 97 96 96 96 92
96 76 83 87 83 78 88 93 94 92 80 78 77 90 92 93 71 64 66 70 75 82 73 77 84 90 94 96 95 92 86 89 99 98 96 94 88 76 94 95 95 96 98 98 98 98 99 98 98 97 97 97 96 96
87 89 90 86 89 98 98 88 90 65 90 96 93 97 96 95 76 71 78 79 82 86 88 89 86 90 97 100 100 97 92 83 81 88 97 98 98 97 93 90 86 97 98 97 97 97 98 98 96 96 96 96 95 87
93 93 91 93 98 97 96 97 98 97 97 97 97 99 97 97 94 93 77 81 90 93 91 90 96 91 88 96 98 99 100 99 99 96 94 96 94 91 93 93 95 98 97 97 97 96 95 96 96 96 96 96 92 85
97 96 94 94 98 98 96 95 96 96 97 98 97 97 97 97 87 90 76 81 79 84 85 84 88 95 96 98 99 100 100 100 99 100 98 99 99 98 96 98 98 97 96 96 97 96 96 96 96 96 97 96 96 95

GFSWCAN_925_rhum_021.txt.gz
RH
92 93 96 90 94 88 90 94 94 78 82 88 79 82 81 80 79 73 72 91 73 99 91 73 69 86 92 63 70 79 81 82 90 96 91 90 88 78 76 74 86 88 94 96 97 99 93 49 60 69 58 59 59 61
87 93 94 95 95 91 89 92 99 82 72 80 83 81 81 73 78 79 71 69 83 96 87 84 74 66 69 76 83 76 79 79 82 92 91 89 88 87 87 90 61 76 71 78 79 75 51 49 52 54 58 63 61 64
83 93 90 94 95 96 92 93 96 95 82 81 86 75 80 78 79 79 81 71 80 96 81 92 87 60 66 72 71 78 82 74 83 83 91 88 94 84 90 93 77 62 53 63 65 56 54 51 58 57 58 60 61 65
95 92 93 89 95 95 92 92 94 97 91 83 75 81 85 86 80 80 86 75 81 93 100 86 75 82 74 71 65 66 74 84 86 88 92 92 92 83 75 85 89 76 68 70 76 65 60 59 58 57 60 66 61 64
95 90 94 93 97 99 92 93 95 99 96 81 87 83 86 88 84 78 81 76 70 86 99 98 90 83 82 74 68 68 76 86 93 97 97 94 87 88 81 80 86 70 72 80 82 58 60 62 58 56 62 65 64 67
95 93 95 95 96 96 95 92 96 99 94 76 82 90 86 91 92 100 93 96 99 88 96 99 93 94 85 79 78 80 80 90 90 91 94 90 79 86 90 93 64 60 59 55 57 52 58 58 59 56 63 64 64 66
97 97 98 96 96 95 98 93 95 99 93 85 85 85 89 94 94 97 82 97 100 92 100 99 100 96 83 84 89 93 88 93 90 94 98 91 89 88 97 89 66 64 61 57 57 54 60 63 66 62 63 64 60 60
96 97 99 96 93 97 97 93 94 97 85 87 88 88 84 90 88 91 80 96 97 100 100 99 100 98 88 98 98 92 99 98 98 93 94 97 91 93 96 80 74 72 70 66 69 63 60 68 69 68 64 60 62 61
95 97 89 90 90 98 97 96 97 94 91 89 87 74 85 83 79 92 96 87 93 100 100 100 100 100 96 95 96 98 92 99 92 96 95 94 92 99 86 82 74 69 75 74 67 67 68 69 73 69 66 64 62 61
98 98 85 86 92 96 90 91 99 96 74 83 79 72 92 80 87 96 100 99 100 100 100 100 85 99 91 93 100 96 98 97 100 95 94 99 97 78 63 59 61 64 67 78 77 82 85 85 84 74 69 60 57 58
97 93 90 89 94 94 88 89 100 87 72 80 86 80 84 84 97 97 100 100 100 100 98 94 86 91 88 91 97 93 100 100 100 95 92 99 95 71 66 67 66 72 74 77 76 78 70 70 76 74 70 62 58 64
98 96 87 88 94 96 92 96 98 83 75 85 98 93 97 100 100 100 98 100 100 100 97 96 94 91 92 91 91 94 100 99 98 86 94 88 92 81 75 75 76 74 72 70 69 77 67 69 71 68 66 63 58 55
97 92 90 94 96 96 90 90 99 70 75 83 97 95 99 99 99 99 97 99 98 99 100 99 99 96 91 91 97 94 96 97 87 96 88 90 91 82 80 77 77 73 69 72 74 71 62 66 66 63 62 60 58 62
98 97 95 95 99 97 95 96 83 66 84 90 94 95 98 95 86 95 98 99 99 100 99 99 99 98 94 97 94 85 89 85 89 98 92 99 94 90 82 77 78 80 77 78 79 80 80 78 78 69 64 59 61 72
99 97 96 99 99 98 97 91 69 77 75 93 93 95 95 92 99 99 100 100 100 99 99 99 100 91 99 100 90 96 94 91 78 88 99 98 94 89 86 80 80 82 79 75 81 79 80 85 85 93 86 80 76 56
98 99 100 98 98 98 98 76 70 82 76 96 95 98 90 98 98 95 97 99 98 92 99 100 100 99 99 88 97 89 85 86 96 99 98 96 92 89 85 80 82 82 78 74 72 72 71 72 74 72 64 56 55 54
98 100 98 94 88 81 85 66 83 92 90 89 96 88 95 97 95 98 80 78 74 98 100 100 99 95 99 99 96 84 95 100 98 94 98 92 93 92 84 86 86 88 82 78 78 71 70 70 65 61 63 61 56 55
98 98 94 95 97 98 76 83 97 94 98 94 95 94 84 79 82 88 88 86 89 98 99 99 99 99 98 99 92 99 98 97 98 97 96 92 91 85 84 92 88 89 89 86 82 73 72 68 74 76 68 62 59 56
98 98 98 98 98 75 95 96 92 99 94 96 91 90 86 86 84 85 87 87 87 88 94 99 99 98 96 97 97 98 96 96 94 91 90 86 86 89 90 88 90 89 91 89 89 84 77 71 68 67 66 61 61 60
99 100 99 100 99 68 92 98 92 100 98 91 93 93 88 89 90 92 92 90 95 89 96 97 92 90 94 94 94 92 92 92 94 95 89 88 82 80 81 82 88 87 87 84 80 78 76 75 70 66 62 61 62 62
100 100 100 99 98 76 92 98 98 98 98 98 96 93 96 96 98 92 94 87 82 100 98 94 93 95 87 86 82 82 88 89 89 90 88 97 86 81 83 78 80 85 92 91 93 88 76 78 71 67 64 63 59 61
100 100 99 99 93 89 94 92 97 96 97 98 96 97 98 99 100 94 95 90 89 94 95 96 97 96 92 88 88 72 62 68 74 85 84 85 94 97 94 83 81 84 90 95 93 91 82 75 69 66 64 61 63 63
99 99 98 96 93 92 90 87 98 98 97 95 97 96 97 98 97 93 99 94 94 93 93 95 88 73 79 65 58 55 58 70 84 77 76 81 79 77 83 83 81 83 84 90 92 92 85 73 69 68 63 65 65 73
97 98 97 95 96 96 83 96 89 96 97 94 95 84 94 98 95 96 99 94 93 97 95 93 86 88 85 87 91 88 54 59 67 66 66 75 92 84 78 80 81 82 82 89 96 97 94 75 70 68 66 66 71 78
95 96 96 96 95 83 92 98 96 97 90 89 94 88 94 97 99 100 99 90 98 98 98 96 92 91 82 91 93 68 51 54 72 83 68 69 73 79 86 81 80 80 81 89 96 98 94 84 75 68 68 74 77 73
96 95 95 89 92 80 79 91 92 90 86 90 91 94 96 99 100 75 83 92 96 96 96 94 91 93 88 81 84 92 60 56 61 81 68 67 71 87 98 96 94 85 77 74 91 100 98 96 94 84 83 77 76 68
97 98 92 71 64 64 70 69 68 81 87 85 91 96 97 87 73 70 86 94 93 79 71 72 78 86 84 81 68 67 63 63 65 67 69 76 79 80 85 91 88 79 76 76 78 100 99 98 98 97 97 97 91 73
83 72 89 79 79 86 75 77 77 78 77 77 77 88 82 66 58 78 87 75 70 70 73 75 78 77 75 72 61 58 62 68 76 83 84 83 78 75 75 79 81 82 98 100 98 95 100 98 98 98 97 96 97 94
85 79 75 91 86 83 78 71 72 72 66 82 75 75 80 86 90 92 65 70 75 76 73 72 64 60 58 62 68 73 78 86 100 100 100 94 88 79 71 71 76 79 88 97 97 99 98 99 98 97 97 96 96 95
99 86 84 84 92 92 79 83 87 87 80 80 78 90 92 92 64 60 66 68 70 73 61 62 65 74 84 89 91 87 76 79 87 100 98 94 86 80 81 84 83 84 88 93 98 96 98 99 98 98 97 97 97 96
91 89 87 84 84 92 90 84 88 67 93 97 96 94 92 94 74 63 71 72 72 74 81 89 85 81 89 95 98 100 96 83 80 83 86 93 98 100 98 92 90 93 94 95 98 98 98 98 97 98 97 96 96 96
92 90 88 90 95 93 92 94 96 97 98 97 96 100 96 96 90 88 74 79 93 96 91 85 92 87 80 91 96 100 100 100 100 99 99 98 97 93 90 88 87 91 96 98 98 98 96 94 96 96 96 96 96 96
98 95 92 93 94 98 95 93 97 95 96 98 98 98 99 97 81 85 77 82 75 73 75 80 82 88 93 98 100 100 99 98 100 100 96 97 100 96 90 93 96 96 98 98 96 96 96 96 96 96 96 96 96 96

GFSWCAN_925_rhum_024.txt.gz
RH
97 95 95 94 95 97 94 94 93 99 85 77 78 86 82 84 78 80 75 88 81 95 85 70 73 83 89 77 84 80 82 84 93 95 93 88 88 84 82 78 88 86 95 99 99 100 92 53 67 73 58 61 59 61
98 94 96 96 86 82 96 94 94 95 100 84 81 88 77 80 81 76 74 72 72 90 86 76 72 65 70 72 94 81 74 85 86 93 92 90 90 88 89 89 71 90 74 82 84 78 52 48 54 54 60 66 62 64
98 97 97 96 92 90 97 93 92 93 97 95 90 78 75 83 88 83 81 78 76 92 80 83 70 35 45 43 48 98 85 75 86 82 92 90 88 82 89 84 80 68 58 69 70 59 61 59 58 57 58 61 65 67
96 97 96 96 96 96 96 98 92 94 96 96 88 79 81 84 86 88 90 80 92 86 93 81 79 80 69 94 75 78 78 84 87 88 91 93 89 85 76 82 91 81 75 71 74 69 63 59 57 58 59 64 61 68
95 99 98 97 95 96 97 96 93 94 95 99 91 82 86 91 88 90 92 82 79 78 90 84 62 48 66 93 86 81 79 85 91 93 94 95 88 89 89 80 88 78 80 83 76 61 61 61 56 57 62 64 62 70
95 95 97 96 96 95 95 94 97 94 94 98 86 88 86 88 94 89 99 99 88 87 96 98 88 91 96 93 82 82 87 90 89 89 93 89 80 83 98 93 68 70 66 60 66 56 60 61 59 58 61 64 64 67
95 95 95 96 96 97 96 92 95 94 98 96 87 89 89 88 98 96 82 93 98 98 98 98 98 92 91 86 94 95 90 94 90 89 94 90 89 88 97 95 62 70 75 80 74 66 68 66 65 65 63 65 64 62
93 95 97 95 96 99 89 95 96 88 99 94 90 93 84 89 84 96 96 99 86 99 100 99 98 99 90 98 98 93 99 95 97 92 95 96 92 92 99 80 74 68 59 67 66 67 66 70 70 69 68 65 67 67
94 95 96 97 97 86 89 91 89 96 97 78 86 75 82 83 85 93 92 100 99 98 100 100 99 100 94 98 98 97 95 98 93 97 95 92 92 98 78 65 62 67 72 71 74 72 69 68 73 72 68 68 68 66
92 94 97 95 97 92 93 89 82 99 72 75 77 75 99 91 82 93 100 100 100 100 100 99 98 99 94 91 100 95 98 96 100 97 97 99 95 76 66 66 70 75 79 83 94 88 89 85 87 76 74 67 65 64
97 96 98 97 96 90 95 86 95 84 57 78 92 92 85 88 95 98 100 100 100 100 100 98 93 96 91 93 98 96 99 100 100 97 96 99 96 70 72 77 76 78 80 79 80 81 82 81 78 81 76 69 65 64
96 94 96 98 91 92 94 86 96 90 73 80 92 96 96 99 96 100 99 99 100 99 96 99 98 95 93 90 95 96 99 100 99 87 95 95 89 85 84 82 78 76 77 78 76 78 79 83 79 78 72 67 63 65
95 98 95 91 92 95 94 87 96 82 74 89 98 94 97 98 99 99 97 99 100 99 100 99 99 99 90 90 96 94 94 97 89 97 89 94 90 86 85 84 80 74 76 77 84 81 80 71 70 69 66 62 62 59
99 94 93 96 96 97 92 88 95 67 83 93 96 95 98 99 97 96 99 99 99 100 99 99 99 98 95 98 94 89 90 86 98 97 88 96 96 94 86 82 82 82 80 80 91 85 88 89 85 74 65 60 60 63
100 100 98 99 98 99 98 96 86 72 79 95 97 98 97 92 98 99 99 99 100 99 99 99 100 94 100 97 93 96 97 95 86 82 97 98 97 93 91 84 84 85 84 81 77 89 78 87 87 96 90 81 73 82
100 100 99 98 99 97 98 91 72 82 82 95 98 99 89 96 97 97 96 99 98 99 99 100 100 100 100 95 98 94 86 84 93 99 99 96 91 92 92 86 88 86 84 81 79 76 74 74 82 91 97 96 91 82
100 98 98 98 97 96 91 82 83 91 93 95 98 93 96 98 98 91 81 84 76 99 100 100 99 87 98 100 98 89 92 97 98 94 99 93 92 93 92 91 91 89 86 86 87 80 77 73 68 68 68 71 79 82
98 98 96 96 92 92 87 81 93 97 100 95 98 94 89 84 87 85 90 86 90 99 99 100 99 99 99 99 96 99 98 96 96 98 96 93 88 89 90 95 94 94 91 90 91 89 78 75 75 75 67 64 64 61
93 99 99 99 96 80 92 95 94 100 94 96 95 95 91 89 85 84 88 88 90 90 98 99 99 98 93 97 99 99 96 93 88 89 89 85 88 88 87 82 83 89 92 92 92 92 87 81 76 70 68 65 64 61
100 100 99 100 98 69 86 96 97 100 100 91 96 95 95 92 88 87 88 87 96 96 96 99 91 84 94 93 97 96 97 88 90 81 74 84 80 83 84 89 88 85 85 91 92 86 82 78 74 71 68 64 63 62
100 100 100 99 99 75 88 98 98 97 98 97 96 96 97 96 97 97 96 94 95 98 100 95 93 94 88 89 83 81 90 89 89 75 64 93 82 86 86 80 76 84 83 85 92 97 95 89 79 73 70 68 63 59
99 100 99 100 98 90 91 92 94 96 97 96 97 98 98 98 99 98 96 96 94 93 94 94 96 96 94 93 92 73 62 71 69 75 79 85 93 96 94 80 90 96 88 84 87 97 99 96 89 77 71 68 67 62
99 100 99 98 96 92 90 91 93 97 97 94 96 95 96 98 97 94 100 95 91 90 91 96 92 87 89 76 69 65 56 61 76 75 72 74 73 72 76 78 82 93 94 85 80 83 97 98 94 83 71 71 67 68
100 99 97 96 97 96 88 97 94 99 98 98 98 92 90 97 98 98 100 90 90 97 97 93 89 85 84 84 89 86 52 54 63 67 61 66 87 69 60 67 70 74 76 76 86 90 94 97 99 83 73 70 69 71
98 97 97 96 94 88 92 100 100 100 95 92 95 89 93 98 99 100 93 86 96 99 96 95 93 87 81 87 93 70 52 52 78 85 55 53 56 64 79 74 69 68 67 81 93 87 94 99 98 89 72 72 76 80
97 96 92 91 99 81 84 92 94 93 92 95 95 95 97 94 99 74 76 88 93 96 96 92 88 90 88 80 87 93 59 52 54 76 65 59 65 79 92 92 89 82 70 70 76 77 86 96 100 97 84 80 90 94
96 96 93 70 72 72 78 76 74 85 93 95 93 95 93 88 72 66 72 85 92 80 75 77 80 86 88 83 72 68 65 60 61 62 62 69 75 77 79 89 89 80 75 76 77 80 84 91 95 98 97 95 97 98
94 88 95 89 84 89 77 85 83 81 83 79 79 89 81 69 58 73 80 73 76 76 78 79 79 77 77 76 75 71 65 62 64 70 73 71 70 70 70 73 79 79 94 96 94 94 96 96 98 99 98 97 97 97
88 80 77 91 85 81 77 71 74 69 64 79 80 72 74 76 84 91 65 77 80 79 74 75 74 76 74 66 60 60 66 76 90 100 95 88 95 76 71 75 78 85 95 96 93 100 98 98 95 97 98 97 96 96
94 90 83 87 90 89 88 80 83 86 77 79 75 85 86 89 63 61 66 70 78 80 65 63 61 62 66 75 78 77 76 74 80 90 97 92 87 79 84 86 86 82 84 94 95 89 88 96 98 99 99 99 98 97
91 91 83 85 88 96 96 83 83 66 89 96 93 92 86 92 72 52 58 68 71 70 71 78 77 79 84 88 97 100 97 78 82 86 90 94 96 95 93 93 94 92 89 88 92 98 97 98 99 98 98 99 97 96
94 86 84 86 93 93 92 96 97 95 96 96 94 100 94 93 88 85 71 83 88 93 88 83 82 71 75 80 88 94 100 100 99 96 100 96 93 92 92 93 95 97 97 96 96 98 98 98 96 97 97 97 96 96
93 92 92 94 95 95 96 89 93 93 96 97 96 98 98 95 78 83 72 80 72 69 66 68 77 83 84 89 91 92 96 94 92 96 100 100 98 96 96 91 93 95 97 97 98 99 98 96 96 96 97 96 96 96

GFSWCAN_925_rhum_027.txt.gz
RH
94 97 98 96 98 97 94 97 95 80 95 99 90 83 89 84 75 82 69 79 72 95 86 72 77 83 85 90 87 77 82 85 94 91 92 91 90 87 87 80 93 93 95 99 93 100 94 60 73 73 62 64 62 63
93 94 99 99 99 92 90 98 96 93 93 95 99 91 83 79 81 87 78 68 70 93 81 65 62 56 68 76 82 86 78 86 89 92 95 92 95 92 87 91 77 93 87 92 85 77 54 54 58 57 62 69 64 67
88 90 96 100 94 94 96 97 96 97 95 95 96 96 81 78 82 86 87 84 78 97 88 83 77 50 58 65 53 93 92 77 86 81 92 91 86 88 94 93 82 72 64 71 77 64 66 59 60 59 58 60 64 70
88 92 99 93 94 96 96 96 99 99 89 88 96 98 88 81 83 89 95 96 97 99 98 80 53 70 66 60 65 56 67 89 87 86 89 92 86 81 85 80 83 83 77 79 80 68 66 63 59 54 57 63 64 68
87 92 99 97 94 96 94 97 95 94 98 93 94 97 88 91 89 91 91 89 95 99 95 85 64 50 44 48 67 90 73 88 94 92 92 92 88 89 91 88 93 82 79 86 85 65 71 69 58 56 64 64 63 69
98 100 94 94 95 95 95 94 95 95 94 94 93 96 90 91 92 92 96 93 91 100 100 94 76 86 81 66 90 94 91 95 89 89 92 92 79 82 92 94 72 76 68 65 73 78 77 65 70 61 62 61 63 70
98 97 96 96 95 96 95 94 94 97 94 92 96 94 90 90 93 88 86 79 92 98 99 97 98 82 74 90 96 98 96 97 90 88 95 92 90 86 90 87 69 78 74 66 71 70 81 74 72 64 62 63 65 65
98 96 98 96 96 96 96 95 98 84 84 96 93 93 95 95 92 94 82 90 93 100 100 98 94 99 86 97 99 98 99 94 96 94 96 95 95 92 98 83 62 59 64 60 64 68 71 74 72 67 68 69 67 69
97 92 94 95 95 96 95 95 95 83 87 85 78 87 92 89 87 89 92 100 98 99 99 98 98 100 98 98 97 97 90 98 96 97 95 89 93 98 82 71 67 71 82 83 82 85 80 76 71 71 70 69 69 69
96 93 91 93 94 96 94 96 94 92 80 61 78 86 87 88 90 99 100 100 100 100 100 99 100 100 94 92 99 95 88 98 100 94 96 97 95 76 70 69 70 74 85 90 99 93 88 88 90 78 77 70 68 67
89 89 92 93 92 95 93 95 93 88 66 69 92 87 85 84 95 91 100 100 99 100 100 99 98 98 95 93 98 92 100 100 100 99 98 100 98 72 76 76 77 84 85 86 87 85 83 89 89 86 83 75 70 68
99 95 98 94 92 95 91 96 92 95 90 79 90 94 94 99 99 100 99 99 100 100 98 100 99 99 98 92 95 97 100 100 99 88 95 98 91 85 86 88 86 85 83 82 81 84 85 88 88 89 87 80 70 65
100 91 89 93 95 94 96 96 90 96 68 91 99 99 98 97 97 96 97 99 99 99 100 99 100 100 94 90 98 94 94 98 90 99 92 92 91 89 91 88 86 80 75 74 85 89 86 90 75 72 72 67 65 74
99 95 93 96 93 96 97 98 94 82 80 91 93 92 99 99 97 97 96 100 98 100 98 98 99 98 96 98 94 89 93 90 100 99 90 97 93 92 90 86 86 85 82 81 78 92 90 93 93 80 66 65 63 62
100 98 91 88 97 97 99 99 99 67 84 95 95 99 99 91 96 99 100 99 99 99 99 98 100 96 100 92 93 97 98 97 88 86 97 96 97 91 91 87 90 89 85 84 81 80 78 82 91 95 93 83 74 67
99 100 100 95 95 98 95 98 78 78 87 96 100 100 92 97 96 98 98 97 98 99 99 100 100 99 98 96 99 96 87 86 87 99 97 95 89 90 92 91 92 93 87 83 83 84 78 77 78 89 99 99 95 90
99 97 92 94 98 99 92 82 80 93 94 99 99 94 98 98 98 97 83 87 81 100 100 100 99 87 99 98 99 91 94 95 99 99 98 93 90 91 93 92 92 94 92 89 90 89 89 79 71 70 80 86 97 97
95 87 95 100 98 97 92 84 90 99 97 96 100 95 91 88 94 87 86 86 95 99 100 99 99 99 99 99 97 96 99 97 95 95 97 92 86 90 88 93 90 90 92 92 94 92 89 87 83 79 71 67 77 86
86 85 100 100 98 96 87 93 96 100 96 96 96 97 93 91 88 86 85 84 89 93 98 98 100 99 93 96 98 100 100 96 88 88 87 82 87 86 84 86 87 87 91 91 98 99 94 84 82 80 74 71 68 66
84 93 100 100 99 77 83 93 100 98 100 93 97 96 96 95 90 90 90 84 94 97 99 98 92 87 92 91 96 96 96 91 86 73 63 79 85 83 82 88 85 81 87 83 86 95 97 93 87 83 74 71 68 65
100 100 100 99 100 93 87 96 97 97 98 98 97 97 94 94 96 97 97 94 97 98 98 90 92 92 88 89 88 86 91 86 78 52 44 82 73 86 88 81 76 76 91 92 91 86 93 97 91 96 86 74 70 66
99 100 99 100 99 98 97 87 90 96 98 96 97 97 98 97 97 97 96 99 97 89 89 86 93 95 97 95 93 75 71 74 67 71 77 81 87 92 91 74 84 96 98 94 87 88 88 81 80 100 97 80 73 69
100 99 99 99 97 96 92 95 89 96 94 93 96 95 93 97 96 93 100 96 91 86 90 95 93 94 92 83 77 71 62 65 74 70 69 70 65 64 66 61 65 88 95 81 72 77 84 89 91 98 98 85 75 70
99 98 98 97 97 96 93 96 96 100 99 99 98 92 88 94 97 97 100 90 80 89 96 96 94 87 84 84 84 83 62 56 61 62 57 61 88 68 56 61 64 68 69 70 72 76 89 86 94 98 98 90 75 71
97 96 97 96 96 94 93 100 100 100 100 95 98 95 93 98 98 100 99 86 96 99 98 96 92 94 92 92 90 62 49 49 76 75 51 57 56 56 58 53 53 56 59 67 74 75 88 88 86 98 100 93 79 74
97 92 96 90 98 90 88 94 99 94 94 96 95 97 96 96 99 78 79 87 91 94 95 93 89 91 91 86 88 89 57 48 54 66 51 51 52 61 83 90 81 70 63 62 66 77 79 75 82 85 94 96 93 87
99 97 93 73 80 75 80 80 78 92 95 95 96 95 94 91 76 68 73 83 87 80 82 81 83 87 91 84 71 66 60 54 53 56 56 61 63 64 66 78 84 73 75 78 76 76 79 84 87 90 88 95 96 96
90 89 95 94 88 92 81 91 87 88 90 92 83 94 83 73 61 76 79 66 79 85 80 80 80 75 71 67 66 64 66 66 64 65 63 58 58 64 69 70 74 75 93 99 100 97 96 98 100 98 96 96 97 94
100 90 84 92 89 93 81 76 78 77 67 81 77 76 76 75 81 87 62 75 80 84 81 84 86 86 85 81 77 73 67 63 74 84 92 86 96 70 68 74 78 80 80 87 93 100 98 97 94 93 91 92 90 95
94 84 89 81 79 75 77 81 90 91 81 77 72 85 86 84 61 55 59 66 82 85 70 67 64 69 68 71 68 68 68 70 75 79 93 89 84 78 87 88 87 86 87 92 90 87 90 96 96 93 96 98 97 98
89 94 91 90 87 95 96 88 85 65 88 95 89 91 86 89 68 44 46 52 63 68 69 75 72 67 67 78 87 99 90 73 78 81 86 92 96 93 86 82 86 94 96 98 98 96 93 93 99 98 98 98 96 98
92 85 86 89 93 95 95 94 95 93 96 96 93 100 93 92 83 79 62 73 85 91 86 77 75 65 61 67 74 77 85 90 92 93 96 97 95 88 86 87 95 99 97 96 96 96 94 97 98 98 98 98 96 96
94 93 93 94 96 97 95 90 92 94 96 97 95 96 96 90 76 82 66 78 74 73 69 70 72 80 77 77 84 92 97 94 88 89 100 100 100 97 96 99 98 99 99 96 96 96 97 97 97 97 96 96 96 96

GFSWCAN_925_rhum_030.txt.gz
RH
77 81 94 96 97 97 99 93 87 92 88 76 95 98 94 87 82 85 81 67 72 89 82 68 70 74 78 85 93 83 84 85 92 88 90 90 91 89 87 83 91 88 95 90 84 99 95 62 74 73 61 62 62 64
70 82 85 88 93 100 95 82 91 98 94 97 93 96 98 89 80 84 89 78 78 88 80 62 62 60 61 64 75 80 90 83 88 91 94 92 96 95 88 94 80 92 82 92 84 81 56 53 59 56 66 66 61 64
76 84 82 87 90 98 87 85 91 97 99 92 89 88 100 91 85 82 85 87 85 100 87 89 85 57 57 66 56 80 88 82 86 81 92 90 86 90 97 95 83 76 70 81 80 67 70 64 62 61 62 60 59 67
80 84 84 83 92 89 91 92 94 97 96 97 96 88 92 95 89 90 93 95 96 99 98 78 55 60 47 68 67 58 56 66 80 92 88 92 86 82 88 81 88 82 78 80 82 72 66 62 61 57 57 60 66 66
80 89 86 90 95 96 94 96 94 94 96 98 95 93 94 95 91 92 88 87 86 98 98 86 73 66 59 50 57 63 63 66 92 99 93 92 91 90 93 89 94 86 78 83 80 71 75 72 66 60 63 67 66 69
92 95 99 99 90 94 94 94 95 94 96 97 84 97 95 94 94 88 92 87 83 99 99 97 72 78 59 63 62 55 64 91 95 98 91 92 78 82 93 84 74 77 75 70 85 79 82 80 84 76 70 72 69 69
90 95 98 98 92 95 95 96 95 96 97 77 97 96 82 96 92 88 84 74 92 98 100 97 96 89 84 76 73 71 79 96 93 96 92 93 94 87 88 90 76 76 64 63 66 70 78 72 80 78 78 66 64 65
93 92 91 95 98 94 95 95 95 96 96 91 94 76 95 90 93 92 83 91 86 98 100 98 95 100 88 90 93 86 93 94 98 95 95 95 97 90 92 76 63 63 68 63 72 76 77 75 75 80 69 73 70 71
100 92 91 91 91 92 95 92 94 97 94 91 66 91 95 95 91 86 92 99 96 98 99 98 98 98 91 96 96 99 96 98 97 93 95 89 96 94 82 77 68 72 79 86 89 90 90 90 87 77 72 71 73 72
93 89 93 88 90 91 86 92 95 91 82 61 77 84 92 88 90 98 100 100 98 100 100 98 99 96 99 94 98 94 91 96 93 85 96 97 92 82 75 75 76 78 82 89 96 94 93 92 92 90 83 76 75 71
92 90 87 85 93 91 91 90 98 88 76 59 91 92 85 80 92 97 98 100 97 100 100 99 100 98 94 94 97 92 98 96 98 98 99 94 84 85 82 80 81 85 86 86 89 90 92 94 93 92 88 86 78 72
98 95 94 95 96 91 90 92 96 95 98 79 86 90 89 99 100 100 96 99 100 99 100 100 98 99 97 93 94 96 97 97 98 94 99 98 93 89 86 84 85 87 85 80 75 87 89 86 91 90 88 86 81 72
99 100 98 91 92 90 93 96 92 95 85 92 99 100 98 98 98 99 94 98 99 99 100 99 99 100 95 92 98 99 99 98 94 100 96 96 94 90 90 88 86 83 76 76 76 84 90 91 93 85 75 70 72 71
94 95 97 87 88 90 98 98 93 94 75 92 96 97 98 96 92 97 95 98 95 100 98 98 99 99 97 99 95 92 96 92 100 100 93 98 92 92 90 89 91 91 85 85 81 86 92 95 97 97 82 70 69 74
97 90 96 93 88 91 100 97 93 77 83 94 93 97 97 91 97 98 100 98 97 98 98 98 100 98 100 98 92 97 99 98 90 89 95 98 92 91 92 90 94 94 89 86 84 85 81 80 81 90 98 86 66 64
96 99 99 90 91 99 99 92 84 73 90 94 98 99 90 98 95 96 98 98 96 97 99 100 99 99 99 98 98 94 89 85 85 100 99 91 92 92 91 90 91 94 91 86 86 87 88 83 81 77 99 99 95 87
90 95 87 99 98 100 96 85 77 95 96 98 98 93 98 100 98 97 89 90 84 98 99 99 98 91 99 99 99 92 93 91 98 99 95 90 90 91 91 85 89 92 91 90 93 91 91 85 78 74 76 72 96 100
96 85 91 100 100 98 92 86 92 100 95 98 99 94 93 92 94 93 88 87 97 99 99 99 99 99 99 97 97 93 100 98 96 91 91 92 87 92 84 87 89 86 87 92 97 98 96 92 88 87 82 73 74 88
86 82 99 99 98 98 90 91 93 99 97 97 97 98 95 90 92 92 88 86 92 97 99 98 98 98 88 96 96 99 100 98 96 94 91 84 84 86 82 86 78 80 88 91 91 95 99 94 92 91 84 75 73 68
87 98 100 100 99 85 89 92 98 97 100 90 98 98 98 97 91 90 90 88 95 98 98 98 94 89 93 89 95 96 97 92 91 86 72 86 90 85 84 88 88 74 84 82 80 78 82 80 72 73 94 90 80 73
97 100 100 100 99 98 93 96 97 98 99 99 98 100 98 96 98 98 96 96 98 98 98 85 91 92 88 89 88 88 92 85 79 68 52 81 77 82 86 84 75 68 86 87 90 81 75 83 79 77 98 100 89 76
90 100 98 99 99 98 99 88 90 95 100 97 97 100 100 99 97 97 96 100 98 91 88 89 90 85 89 96 94 86 81 76 65 62 69 67 82 91 92 72 80 88 82 79 81 81 76 74 85 93 94 99 97 79
98 100 99 99 98 97 91 97 98 96 87 89 97 96 95 98 96 96 100 95 90 83 82 92 90 91 93 88 83 75 74 69 76 68 69 67 58 59 68 66 62 73 89 64 59 69 75 79 89 88 92 96 94 82
99 98 98 98 98 97 92 96 93 100 100 100 100 93 84 96 97 98 100 89 78 92 95 96 97 94 89 88 94 92 71 67 61 60 54 58 87 55 47 45 49 54 57 57 64 72 75 76 89 86 94 100 93 89
98 94 99 97 97 95 98 99 100 100 100 99 100 97 95 98 99 100 94 84 94 95 96 97 96 96 95 96 93 72 65 57 73 71 47 51 51 62 63 60 56 52 49 56 65 69 70 77 86 81 85 94 99 96
96 88 98 93 99 95 93 98 100 98 97 98 98 97 97 97 98 76 79 86 87 94 97 94 93 97 94 92 92 91 62 51 50 66 44 42 50 62 81 86 84 64 52 58 64 68 71 76 82 80 79 79 82 93
88 96 96 75 82 80 81 80 78 94 100 96 98 100 95 90 75 67 76 90 88 78 84 89 85 89 96 87 73 66 54 52 51 52 51 52 53 55 57 68 78 58 67 76 79 80 81 84 87 90 91 87 87 89
91 90 99 97 92 93 83 94 91 91 89 89 86 93 92 87 74 74 72 54 70 79 86 88 91 85 79 64 59 59 66 66 65 64 64 66 65 60 55 58 63 69 74 81 86 92 97 98 100 100 100 98 93 86
96 98 90 94 91 95 84 78 81 82 75 93 91 85 78 79 83 87 54 55 66 78 83 84 80 84 84 79 77 75 73 70 74 79 80 83 93 59 60 66 70 76 82 86 86 96 95 95 95 95 92 91 87 94
92 92 95 95 89 92 86 77 85 92 85 83 79 85 85 85 55 47 50 55 65 74 58 62 64 79 83 83 72 71 69 64 62 66 83 84 81 72 78 84 84 82 85 94 96 93 92 98 94 92 90 93 96 96
94 94 95 94 89 90 94 92 91 68 90 94 93 92 86 90 68 43 42 42 46 57 65 78 82 82 76 74 74 92 81 57 62 69 75 78 82 86 83 84 83 84 89 98 99 99 98 98 96 95 94 97 96 97
93 88 87 94 93 95 97 95 96 92 96 96 92 100 93 93 83 78 60 64 74 84 78 74 77 65 55 56 59 63 70 73 78 85 90 89 91 92 94 94 92 91 94 98 100 100 99 99 99 99 98 96 95 96
95 95 94 93 96 97 97 93 94 93 98 97 94 95 96 91 78 80 63 71 74 74 69 67 71 75 68 67 72 79 84 88 87 83 100 100 99 96 97 94 92 98 100 98 97 98 98 99 98 97 97 97 96 97

GFSWCAN_925_rhum_033.txt.gz
RH
90 84 82 90 90 92 92 94 76 95 96 92 94 95 98 99 88 83 82 81 71 85 76 66 62 84 79 78 97 88 91 88 91 87 90 88 90 89 88 82 78 79 92 86 78 93 93 61 71 78 64 61 61 64
90 81 77 83 84 84 84 93 94 93 88 99 92 97 96 98 94 93 90 84 81 90 79 63 60 56 48 51 59 65 93 92 89 88 92 91 96 95 88 97 83 92 79 86 79 75 58 60 63 57 64 64 61 63
86 72 73 84 81 79 94 93 90 86 94 92 94 97 86 97 97 91 84 86 99 100 95 93 92 64 66 66 62 77 82 88 92 88 91 91 86 91 97 96 85 82 76 86 80 68 72 65 58 63 61 63 58 62
70 74 77 83 84 84 87 94 96 92 99 95 98 95 81 92 98 91 95 93 94 99 99 82 61 66 48 51 65 65 54 63 74 93 94 92 86 84 91 80 85 81 84 84 85 76 66 65 63 58 58 59 63 67
84 78 80 86 90 97 96 93 91 91 92 92 98 81 84 94 92 95 94 95 94 95 96 89 68 64 64 56 68 68 65 64 83 99 98 92 90 91 94 90 94 88 84 90 90 73 73 72 69 71 74 82 78 72
80 80 84 90 96 97 90 98 92 93 92 99 97 98 96 91 93 91 92 80 89 100 99 97 75 77 64 71 73 79 77 77 97 99 96 92 80 82 95 98 74 80 78 70 81 77 86 83 81 77 75 76 73 73
80 82 90 88 98 90 92 94 94 94 95 95 95 94 90 96 93 87 82 71 85 94 95 98 92 78 95 81 79 78 63 86 98 99 95 96 95 86 92 95 74 83 74 62 70 70 77 75 76 78 81 82 76 65
87 90 94 88 89 100 94 94 94 93 95 90 97 93 94 92 91 87 81 89 95 99 97 97 95 96 83 83 96 88 84 83 100 97 97 97 98 92 94 77 74 65 66 66 78 77 76 81 86 82 78 75 73 74
99 99 96 88 89 91 91 92 89 92 89 83 65 85 96 94 88 84 94 99 100 99 99 99 98 96 94 96 92 93 86 98 95 98 94 89 98 96 81 84 74 72 70 76 85 87 88 88 90 89 86 74 76 76
100 93 86 91 87 90 87 87 90 92 79 70 74 82 95 88 81 85 100 100 100 100 100 98 98 97 96 98 99 98 95 100 100 96 95 97 97 83 76 80 80 79 80 84 92 91 94 97 96 95 92 88 80 74
96 85 83 85 89 93 90 94 90 89 80 77 83 94 82 75 90 97 99 99 95 98 99 99 99 98 96 100 97 96 98 98 98 98 90 94 93 91 85 84 85 85 84 86 89 89 86 86 95 96 96 91 89 83
88 94 92 88 95 93 94 91 93 90 96 98 98 92 94 97 100 100 96 96 98 98 100 100 99 98 96 95 93 95 99 98 97 96 98 98 92 91 85 84 85 87 85 83 76 79 86 87 90 94 92 90 89 83
85 92 100 96 92 88 94 87 88 86 90 92 98 100 96 97 98 97 94 97 98 99 99 98 98 99 96 94 98 97 94 93 95 98 96 96 94 92 92 90 87 87 83 82 83 84 90 93 95 98 94 87 78 74
97 90 98 91 87 86 88 93 90 86 74 93 93 95 97 95 98 98 98 98 95 93 89 97 99 100 99 100 96 99 99 91 98 100 94 95 92 95 92 92 90 92 88 87 86 84 84 87 89 90 100 90 70 74
97 86 91 89 89 90 92 96 88 78 83 93 92 86 96 90 96 96 98 99 96 92 93 96 98 100 100 100 98 98 99 99 93 75 94 98 94 90 91 90 94 94 91 87 86 86 85 83 78 76 91 98 87 67
92 89 94 92 87 86 95 89 78 74 92 94 93 99 89 99 95 95 97 98 96 97 95 99 99 99 100 100 100 95 92 92 83 98 98 91 90 91 89 85 89 90 88 85 88 88 88 86 85 78 75 80 97 94
95 86 88 100 95 100 98 85 74 98 98 98 97 93 98 99 97 95 90 91 86 98 99 99 99 99 99 99 99 94 91 87 94 100 96 88 91 91 89 83 86 86 85 86 91 94 94 89 81 81 82 78 74 92
93 89 86 100 99 100 96 86 93 96 99 98 98 93 96 93 95 94 93 90 97 100 99 98 98 99 98 98 94 93 97 100 99 98 90 86 89 92 82 85 82 75 83 87 95 99 96 94 94 94 91 81 73 70
90 90 99 100 99 90 93 95 90 93 92 96 97 98 98 94 93 93 94 89 92 98 100 99 99 97 94 95 94 98 99 99 94 93 88 85 82 90 82 82 74 79 87 89 87 88 91 83 83 75 84 99 88 77
81 84 95 100 99 84 86 92 98 98 97 87 99 99 99 97 96 95 94 96 98 98 99 100 92 86 90 89 93 89 91 92 94 95 89 86 89 86 86 85 80 69 84 81 72 73 75 66 66 69 83 99 100 90
87 100 100 99 99 99 96 99 99 100 99 98 98 100 98 96 98 100 98 98 99 98 97 87 80 84 84 86 85 87 90 91 92 86 80 88 90 83 87 88 77 65 76 71 76 70 70 75 73 88 98 93 99 99
91 97 100 100 99 99 98 91 91 95 99 98 96 100 100 100 99 99 99 100 98 90 90 88 83 85 86 91 90 88 83 85 73 54 59 67 88 96 96 80 82 77 67 60 65 71 68 68 75 92 90 89 94 93
86 98 100 100 98 98 94 96 97 96 92 88 97 94 94 100 98 92 100 96 93 86 86 94 89 80 89 81 86 85 84 82 81 71 67 64 55 54 52 58 58 63 77 50 48 57 65 69 71 87 88 84 92 92
91 99 98 98 95 92 93 98 93 98 98 100 100 95 82 97 97 96 100 93 85 89 93 93 94 96 93 93 96 94 80 81 70 62 55 62 89 61 52 50 49 49 49 47 55 64 64 68 76 91 90 86 78 92
95 94 99 89 96 94 98 98 98 98 100 98 100 98 94 99 97 100 99 89 95 84 85 91 96 94 89 96 96 85 77 71 77 73 51 53 52 56 56 51 48 45 48 55 60 61 64 70 75 85 80 83 85 81
100 86 98 94 98 97 96 100 100 100 100 98 98 96 100 97 94 77 84 86 81 84 85 86 88 94 95 92 94 91 72 70 60 65 45 41 45 49 71 82 84 59 51 49 56 64 69 73 78 83 85 82 85 87
99 89 90 84 85 87 87 82 80 94 99 95 94 100 96 87 84 72 78 90 83 61 69 82 93 92 93 89 78 69 56 62 58 52 46 43 43 42 46 62 75 57 57 60 68 74 80 85 88 90 93 92 91 88
88 89 99 99 91 92 84 94 94 95 89 87 89 100 96 91 81 83 78 43 40 58 71 77 86 87 88 80 66 73 74 68 61 61 62 62 61 59 59 61 64 65 73 78 82 90 94 94 95 95 96 96 92 85
98 93 91 98 96 96 88 82 84 84 72 92 92 91 84 86 87 86 42 42 50 57 75 78 69 81 83 81 76 69 68 67 75 82 81 83 90 52 48 54 63 66 70 76 81 92 97 97 96 95 92 91 93 95
93 91 97 98 91 90 84 82 85 89 88 86 82 89 89 88 48 42 45 51 61 67 47 39 46 67 80 90 81 80 74 70 71 71 80 78 72 62 69 72 74 76 81 86 86 86 89 98 95 97 94 95 95 94
94 96 97 97 91 85 93 92 94 70 92 95 95 93 80 89 66 44 42 42 44 54 64 68 68 69 81 82 85 84 72 44 46 54 61 66 70 76 76 77 84 92 94 93 90 94 95 98 99 98 98 98 92 97
100 96 93 95 92 93 96 96 94 94 98 98 90 100 95 93 85 77 44 49 66 78 71 70 78 71 55 62 64 55 53 57 67 71 78 84 83 79 83 85 89 98 98 93 96 97 96 96 96 97 98 97 94 94
100 98 98 96 96 94 95 89 97 91 100 100 93 94 94 89 74 80 65 65 65 64 66 65 66 72 70 62 60 65 73 79 81 83 97 100 100 98 96 95 93 98 99 99 100 98 97 97 97 96 95 95 95 95

GFSWCAN_925_rhum_036.txt.gz
RH
80 86 88 80 81 82 88 83 85 94 96 92 92 86 93 95 95 98 87 80 77 78 61 57 50 56 55 44 91 82 87 86 84 84 73 73 58 63 69 58 65 64 71 85 73 80 76 48 61 64 56 54 55 63
85 91 86 73 82 79 76 82 83 91 93 85 87 90 92 93 98 96 94 82 85 84 72 67 60 53 48 46 50 50 92 83 74 78 75 68 71 69 63 76 64 70 53 56 55 52 40 50 55 53 51 51 57 57
89 88 75 76 83 84 85 80 85 94 93 95 89 91 92 95 98 99 98 90 96 100 91 92 80 70 75 66 58 61 53 76 90 89 83 73 74 65 72 68 68 64 56 64 65 47 49 48 49 57 56 56 54 54
79 68 69 73 78 82 86 90 94 89 85 89 93 93 85 93 94 93 98 92 92 91 97 69 64 68 51 56 69 63 53 60 82 100 96 84 73 68 66 60 62 61 65 61 63 58 58 54 52 52 54 56 59 59
80 82 78 73 76 88 99 94 94 89 89 90 95 92 96 98 97 93 96 94 92 91 82 72 66 67 65 63 69 70 64 62 68 88 99 98 72 72 72 68 69 66 66 68 62 51 48 51 54 64 67 65 59 63
89 80 79 84 87 98 94 90 95 89 91 92 92 92 95 96 94 89 87 80 84 99 98 91 68 66 64 70 66 67 66 67 71 75 87 98 73 66 79 72 54 56 61 57 55 56 60 62 64 67 65 61 58 61
87 80 81 82 82 88 93 91 88 88 88 92 90 94 95 95 95 87 73 68 78 92 97 88 82 61 88 75 72 72 70 82 75 77 78 95 90 73 75 67 54 56 58 64 63 59 61 65 65 64 63 63 67 66
93 92 90 88 86 94 93 90 90 86 88 88 91 82 88 91 94 94 88 97 94 99 98 92 87 82 75 76 83 67 79 68 82 95 74 83 96 83 83 66 66 64 60 59 63 64 64 63 65 66 70 68 68 64
99 98 99 93 86 85 86 90 87 89 88 85 74 76 98 93 88 83 92 96 100 98 93 91 90 91 99 94 81 76 64 78 77 100 94 94 94 98 72 70 65 61 61 65 69 67 66 71 75 77 77 72 71 66
100 99 88 84 84 87 89 89 90 86 82 78 66 83 89 88 79 82 100 100 100 100 100 96 96 93 99 98 94 100 81 78 100 98 93 98 97 80 70 68 62 65 66 70 70 79 89 94 87 84 83 78 76 74
95 88 84 85 82 86 91 90 86 79 82 83 90 85 78 73 91 93 99 98 95 93 95 95 97 96 97 100 96 96 100 100 100 99 97 97 87 82 72 74 70 68 68 71 72 74 74 79 86 89 87 82 77 78
79 80 80 85 88 89 83 91 81 78 88 95 98 92 95 93 100 98 92 94 97 96 100 100 100 99 98 98 99 95 100 99 97 92 93 93 86 84 74 74 73 71 72 72 71 73 82 85 88 93 94 85 78 72
83 83 91 94 92 88 88 90 89 81 80 91 90 99 91 91 95 95 95 94 91 97 93 96 96 100 97 99 99 98 99 96 96 100 89 84 86 80 79 76 76 73 73 73 73 76 75 88 95 96 97 96 89 87
95 94 91 100 89 88 89 86 78 74 66 87 88 76 91 91 88 92 92 92 87 92 88 91 97 100 98 100 97 100 100 98 99 95 84 86 83 80 79 79 75 77 76 75 77 77 78 83 79 76 91 100 78 66
97 87 93 94 90 94 95 93 88 77 76 88 82 65 85 82 89 89 92 97 91 89 91 88 97 100 99 100 100 99 98 93 84 74 80 88 83 83 81 80 79 78 76 76 78 76 76 78 74 70 79 91 94 81
89 87 88 92 94 100 98 94 80 77 93 92 90 87 81 94 89 87 90 94 88 88 90 98 100 100 100 100 100 97 90 87 78 89 87 80 83 80 73 72 78 76 70 68 79 81 81 80 78 76 73 74 75 95
88 82 84 97 97 96 98 82 75 96 95 98 89 87 88 93 90 84 77 79 80 91 94 96 98 97 99 99 96 88 86 88 89 90 87 81 84 77 72 71 74 70 65 73 84 87 88 88 83 80 79 81 80 75
89 85 90 90 100 100 97 87 90 94 91 92 90 82 81 79 84 82 83 83 86 93 94 96 96 95 94 95 88 96 90 95 93 86 83 81 76 79 73 68 70 64 68 75 85 92 90 83 67 63 75 97 85 76
76 89 90 99 100 86 93 97 91 93 90 88 87 85 86 82 82 81 86 87 86 91 96 97 100 96 85 86 90 95 91 89 80 81 78 78 80 82 74 74 66 77 81 82 76 74 78 77 74 72 75 91 96 87
77 93 100 99 96 87 91 91 98 98 87 78 91 94 92 88 87 88 87 87 91 96 97 96 91 73 78 74 81 81 82 79 79 82 79 76 80 87 83 76 61 67 78 80 70 69 66 58 65 75 88 87 93 98
99 100 100 93 98 99 94 97 96 98 94 92 93 94 92 94 94 96 96 92 94 98 96 82 74 66 72 78 82 81 80 81 78 72 72 79 77 82 81 85 75 66 63 55 52 52 62 60 68 78 91 85 86 90
97 100 98 98 99 98 98 92 87 89 97 94 93 96 97 100 94 94 95 99 91 87 82 79 72 70 72 74 71 81 80 82 85 72 63 76 80 84 80 80 82 67 64 60 56 54 57 59 63 80 90 86 86 86
99 96 100 100 96 95 95 95 96 96 95 88 93 91 89 94 93 90 99 94 87 77 78 84 85 82 79 71 73 74 79 90 82 69 60 59 57 69 66 67 56 58 65 50 43 51 59 60 73 75 88 91 82 74
98 98 99 98 97 91 91 96 90 92 96 98 100 91 84 84 91 94 96 84 70 72 80 84 81 79 79 86 83 78 78 86 87 79 63 62 63 56 51 47 45 42 40 44 51 55 57 64 74 74 83 92 87 83
88 86 97 99 95 96 96 95 96 97 100 95 100 92 90 94 88 94 94 83 80 73 69 73 76 81 83 77 78 77 75 84 85 78 65 59 55 54 57 52 46 39 41 51 60 59 59 64 69 72 77 84 84 82
96 85 97 88 93 95 92 97 98 99 100 100 96 90 95 91 90 85 78 76 65 66 65 69 76 81 78 84 84 82 76 78 75 71 62 53 50 52 66 66 64 50 40 46 52 53 59 70 77 81 87 84 86 88
96 93 89 88 90 88 88 77 77 87 98 95 88 99 94 92 85 72 64 69 66 50 51 63 79 86 84 82 80 80 73 70 73 67 62 49 43 40 41 55 65 42 44 52 54 58 68 74 79 83 87 90 88 87
87 85 96 96 94 90 89 87 89 92 83 78 84 100 94 88 76 76 76 40 35 37 44 48 61 66 60 72 77 67 73 70 70 64 59 57 53 51 50 52 54 57 61 65 67 75 80 84 87 89 91 92 89 84
97 91 88 98 95 96 91 87 83 78 66 85 87 86 84 80 80 76 40 35 38 47 57 50 38 47 64 60 66 74 72 71 81 82 78 72 76 56 53 57 64 66 68 73 81 93 90 91 93 95 95 96 95 96
99 92 90 94 96 93 85 84 86 83 79 79 80 86 83 80 51 41 44 48 57 62 49 46 45 49 63 72 74 74 75 76 74 71 74 71 68 49 53 61 66 70 73 76 79 79 81 94 95 92 93 94 96 98
90 96 98 96 91 85 91 87 88 69 85 90 91 92 67 71 62 44 43 43 45 53 61 65 66 67 68 76 81 80 76 57 64 70 72 75 73 64 65 69 72 80 91 97 98 94 90 94 97 98 96 96 92 99
100 98 96 100 94 94 96 99 96 95 92 94 87 95 92 88 86 56 40 40 55 72 66 67 75 68 62 61 65 64 69 58 53 57 61 66 72 76 77 79 83 93 97 99 99 99 98 97 98 98 97 95 94 94
100 100 100 96 95 96 98 92 94 97 98 94 91 89 87 80 78 75 61 60 59 60 62 59 59 61 63 64 62 68 66 66 73 78 83 94 99 99 98 96 90 88 93 99 100 100 100 99 98 97 96 96 95 95

GFSWCAN_925_rhum_039.txt.gz
RH
74 80 87 83 70 80 76 73 80 82 92 84 85 88 87 88 95 94 85 82 75 65 54 48 45 45 42 40 69 75 74 81 84 77 76 59 53 49 51 46 54 61 67 67 61 69 73 41 59 62 53 48 52 54
76 83 90 80 74 82 79 76 77 80 92 91 89 86 89 94 99 95 97 92 89 87 61 58 56 55 55 42 50 46 76 76 93 85 62 51 49 44 48 57 43 59 44 48 47 48 38 39 41 48 45 47 51 53
84 86 85 74 68 79 79 82 86 83 90 82 90 87 87 93 95 97 100 98 100 96 71 67 63 64 72 72 60 63 46 54 95 100 97 78 70 45 54 50 54 50 40 53 50 40 41 39 42 46 49 51 51 50
84 73 65 61 66 79 83 92 98 95 83 85 95 89 87 94 91 99 99 97 95 84 87 58 59 60 60 63 66 60 51 58 68 94 98 98 88 46 48 44 48 45 51 54 52 45 52 45 40 47 51 51 54 55
78 72 77 72 74 86 94 98 87 88 88 86 88 87 86 92 97 89 94 96 91 84 82 72 64 64 61 59 58 60 58 58 65 69 91 100 91 64 56 55 53 52 52 56 52 38 40 38 43 49 54 57 54 54
79 82 73 72 87 84 84 86 84 84 82 87 87 89 94 94 93 95 79 72 79 100 97 83 57 56 55 66 57 58 59 58 66 68 60 63 84 96 75 57 37 37 40 40 43 44 46 49 53 55 57 56 54 54
83 80 75 80 87 81 83 87 86 86 83 84 95 96 92 82 95 84 76 78 84 93 91 83 78 52 71 70 65 67 63 77 70 73 62 60 81 99 90 56 41 39 42 49 52 54 57 55 57 59 56 54 57 58
84 78 81 94 94 85 90 85 82 82 85 92 93 92 75 90 94 90 96 94 91 98 96 87 83 80 69 68 70 58 64 69 94 70 56 56 55 92 99 49 51 48 50 54 55 54 56 54 53 54 59 60 62 59
85 88 94 99 90 81 79 80 78 87 85 86 80 74 94 93 78 91 85 91 100 99 93 90 92 89 95 98 75 69 60 77 49 81 70 66 67 96 88 62 58 57 57 55 61 58 56 58 61 70 71 68 67 63
89 90 100 89 82 80 72 81 84 81 80 79 71 73 78 85 79 78 100 100 100 100 100 95 95 92 99 100 97 83 77 88 95 73 74 95 97 68 74 61 53 57 58 57 61 73 88 94 81 72 74 72 72 70
71 83 92 82 80 77 80 86 82 77 76 86 82 77 84 75 94 84 98 98 98 94 95 94 95 94 92 100 100 98 99 96 98 98 90 96 88 81 67 66 61 58 56 60 60 64 65 70 79 83 86 85 79 69
77 82 80 84 83 83 79 82 79 86 86 86 96 93 98 82 96 99 96 99 97 98 98 96 80 84 99 97 100 98 100 100 100 96 100 95 84 76 67 67 65 61 61 64 63 67 77 82 85 89 92 91 87 83
78 74 76 82 89 84 84 85 87 75 77 97 85 88 84 89 87 87 91 87 88 89 81 90 90 83 98 98 100 100 100 100 96 99 86 80 83 74 69 67 68 64 64 65 66 70 70 74 85 88 90 97 99 90
80 77 74 88 92 87 84 90 85 79 82 80 83 64 88 87 79 81 81 83 76 90 88 86 88 91 98 100 100 100 98 100 99 94 80 82 77 69 67 67 65 68 67 69 70 71 72 74 72 70 74 89 89 76
88 89 91 94 89 85 85 88 93 76 82 85 84 63 76 73 86 88 95 91 82 82 84 86 88 95 100 100 100 100 99 90 83 89 84 86 76 73 71 68 67 67 67 68 70 68 68 70 67 67 72 71 71 87
90 90 92 88 88 96 100 97 82 76 94 92 89 82 69 85 86 86 90 88 80 80 80 94 99 94 96 100 100 100 97 82 84 98 90 74 76 75 66 65 66 63 57 56 69 72 71 72 73 72 70 72 72 72
81 80 80 91 99 100 99 86 79 94 89 91 82 73 77 83 79 70 59 61 69 82 88 90 95 98 92 97 96 96 100 97 98 91 81 76 81 75 60 63 68 60 51 60 78 81 77 78 66 56 57 79 90 80
81 80 85 82 95 98 89 85 92 89 86 84 84 81 66 60 65 60 61 66 76 82 85 89 94 94 91 91 81 99 99 100 95 82 78 77 74 70 62 60 62 54 55 59 70 81 78 68 57 54 59 65 84 81
76 79 86 94 94 89 92 96 94 94 86 83 76 73 71 69 63 62 65 67 78 79 90 90 93 93 82 78 89 100 97 88 86 79 71 72 76 74 68 66 60 66 71 72 64 59 62 66 59 61 63 73 78 85
83 98 100 99 91 87 93 93 97 93 85 79 77 82 78 74 74 72 74 76 81 86 91 92 86 68 66 60 79 89 82 75 70 71 71 69 70 80 83 74 55 57 65 71 66 64 52 50 56 61 73 79 75 73
98 99 100 98 88 92 92 95 93 91 87 84 83 85 80 82 85 87 89 81 90 85 89 72 65 60 60 61 60 72 74 74 74 72 69 74 67 73 77 79 73 57 52 45 40 38 51 45 54 60 74 74 76 77
94 96 94 93 98 98 94 93 91 84 91 87 88 87 88 88 86 90 90 95 89 81 73 65 64 66 64 62 61 72 71 76 78 81 73 71 73 80 78 74 78 66 56 55 48 43 44 49 55 63 71 74 79 71
99 97 98 99 93 90 94 93 95 93 94 87 87 88 84 87 87 85 95 85 79 66 66 68 74 77 79 71 77 79 75 79 76 78 73 64 59 72 74 76 73 74 74 60 48 56 61 58 63 67 66 79 79 71
80 97 99 95 93 94 86 92 85 89 90 91 95 88 81 83 83 90 85 74 67 58 64 78 68 60 55 75 75 69 72 80 78 82 75 63 63 51 60 66 53 56 48 49 48 54 59 57 63 66 67 79 82 78
88 90 97 95 90 95 97 94 93 92 100 89 90 86 86 90 88 86 81 81 76 64 67 58 56 62 69 66 68 69 72 80 78 80 75 70 58 54 53 51 47 42 40 45 56 56 62 62 63 73 77 80 79 82
94 86 96 89 93 95 86 95 97 94 88 91 88 81 89 90 93 88 76 75 64 66 59 56 59 61 62 72 74 73 75 73 85 80 74 71 65 62 73 70 64 52 33 33 44 59 64 63 66 72 76 76 80 82
92 94 83 77 73 78 84 75 71 82 91 93 81 91 92 95 89 73 58 60 63 52 37 44 63 69 68 69 66 64 65 72 73 76 73 66 63 61 55 66 67 45 38 38 44 53 61 66 72 77 81 83 87 87
81 75 95 90 88 83 90 91 93 94 87 71 74 98 90 83 74 72 74 46 34 33 33 40 43 40 41 43 48 58 64 64 72 70 67 62 56 52 49 49 49 49 50 54 58 61 62 64 72 80 86 89 89 86
91 85 81 98 94 93 92 90 82 71 59 74 83 78 75 71 74 72 45 41 44 52 70 60 52 45 47 44 46 48 61 74 85 83 80 70 75 57 48 53 56 59 62 66 68 88 78 78 81 86 88 93 96 99
94 84 84 92 93 92 77 79 84 80 68 68 70 72 68 66 47 38 46 51 60 59 52 51 52 57 62 63 64 66 60 56 69 74 71 69 65 55 44 45 50 56 62 65 69 72 75 86 91 96 96 95 96 98
87 93 93 87 88 67 63 79 81 62 73 82 82 85 63 59 48 45 48 50 54 55 60 64 63 64 73 67 72 75 73 66 61 60 70 80 75 69 61 57 63 68 73 78 88 95 97 96 95 97 97 96 95 99
94 95 94 96 83 89 87 89 85 87 86 89 86 88 86 84 76 52 37 40 62 68 64 64 67 64 62 65 63 65 73 70 63 54 60 79 81 73 67 70 75 78 85 94 98 99 99 99 98 99 98 96 95 94
96 94 96 93 90 86 93 86 87 91 92 91 87 82 73 77 80 70 54 56 65 74 69 68 67 66 69 67 65 62 66 68 68 71 73 75 78 81 86 94 96 97 97 98 99 98 98 98 98 98 98 97 96 95

GFSWCAN_925_rhum_042.txt.gz
RH
70 73 82 86 69 75 73 70 74 76 79 92 91 86 92 95 98 93 87 89 83 75 64 50 46 53 51 47 56 58 74 80 88 88 88 92 66 60 53 46 64 69 82 78 71 81 84 57 62 72 65 60 60 61
73 81 83 86 68 76 76 77 80 86 87 86 83 85 83 82 95 99 97 98 96 96 73 66 68 60 55 55 58 55 65 62 97 98 87 79 67 49 55 67 48 69 58 64 60 67 48 47 54 53 53 57 59 64
77 84 84 81 69 71 75 79 82 96 93 81 91 88 86 83 86 91 97 97 98 98 78 66 62 61 68 72 64 67 58 63 99 100 100 98 96 67 68 63 54 49 45 60 52 46 46 46 50 50 51 56 58 58
81 83 75 61 62 66 71 75 87 99 94 89 81 85 87 85 86 98 92 93 93 85 92 64 57 59 61 60 75 68 63 64 79 90 94 98 100 70 65 58 54 57 55 58 60 52 51 50 48 58 57 58 59 58
81 69 62 74 72 75 79 85 84 87 87 82 86 88 89 91 89 81 92 89 92 95 94 83 70 62 59 58 62 64 62 66 74 86 95 92 96 97 82 72 70 61 66 72 68 49 52 46 49 55 62 64 59 57
74 71 77 74 76 76 70 81 88 89 87 87 87 94 89 89 68 90 91 75 80 90 97 92 63 57 55 70 57 59 62 67 75 79 79 75 66 88 98 95 54 46 47 47 52 53 62 66 66 62 60 62 57 58
76 81 82 78 75 71 79 90 91 90 88 90 90 89 77 71 85 90 94 90 85 88 94 94 88 59 69 67 68 69 63 76 77 84 81 75 70 96 100 84 59 42 44 57 56 63 67 60 74 64 60 59 59 60
81 84 84 82 81 80 85 88 90 88 86 84 79 74 76 84 85 94 94 91 93 98 96 96 89 88 69 83 78 68 74 80 89 87 73 74 66 73 84 73 84 62 58 62 64 62 64 62 59 62 64 66 71 72
80 85 88 76 70 78 76 80 85 83 80 78 70 79 89 89 82 98 87 89 100 99 99 94 97 97 97 98 88 79 73 87 72 92 80 73 80 93 71 53 68 82 63 67 68 62 60 66 72 75 76 75 78 79
80 89 86 75 78 76 75 85 85 75 74 78 72 66 83 90 72 76 100 99 100 100 100 97 99 94 99 99 100 91 87 94 98 81 75 88 91 56 77 85 81 67 66 69 74 87 92 94 83 80 84 85 85 84
82 87 85 76 76 79 80 87 79 77 75 83 86 86 88 80 90 93 99 99 100 98 98 92 95 96 83 100 98 97 97 98 98 96 90 99 88 84 74 74 66 62 61 65 68 70 73 78 87 88 89 88 87 81
74 81 80 74 76 80 82 84 80 87 85 88 88 85 88 85 97 97 98 98 98 100 95 100 86 84 89 97 100 98 99 100 99 96 100 99 100 95 73 72 77 64 64 66 66 78 82 83 87 89 91 91 93 92
77 80 76 74 81 84 84 82 77 80 86 90 80 87 88 96 86 84 92 91 94 95 95 92 92 83 88 98 100 100 100 99 99 99 95 99 89 77 72 71 70 66 66 67 71 72 73 80 77 74 78 85 94 91
75 73 72 74 82 82 76 78 84 76 79 94 90 72 94 92 88 92 92 96 95 97 93 90 92 89 88 99 100 100 99 99 99 99 99 99 84 76 71 68 69 72 72 75 76 75 77 77 74 70 73 73 74 87
76 77 77 84 88 82 81 86 92 76 82 93 90 75 90 88 95 95 100 97 94 94 96 89 91 93 96 99 100 99 99 99 99 99 99 98 82 75 73 70 73 74 73 75 73 71 72 72 71 71 72 72 71 70
83 85 91 87 94 89 95 97 82 79 87 94 94 92 84 94 96 96 97 97 95 90 94 96 98 99 97 99 99 99 99 99 100 100 99 96 94 77 71 71 69 62 56 64 72 71 72 76 77 74 70 78 84 78
83 87 84 91 99 97 98 84 81 94 92 90 94 85 91 94 95 90 68 69 72 92 89 87 88 98 95 98 98 100 99 99 99 98 98 88 84 75 62 73 71 57 54 70 80 87 92 74 58 50 53 57 73 83
90 82 87 93 98 96 89 79 90 93 94 95 95 96 78 71 77 74 69 74 87 91 76 85 98 94 96 97 92 100 96 100 99 98 98 88 77 70 62 66 61 54 53 57 76 80 77 65 60 61 58 63 73 81
80 82 86 92 84 89 95 94 96 99 94 95 93 90 84 82 78 72 75 71 76 74 89 85 92 91 94 92 96 99 99 100 98 91 90 77 76 74 73 64 56 58 64 71 62 61 58 57 54 56 60 72 78 76
85 98 95 90 89 85 93 96 96 96 93 94 92 95 94 94 86 84 86 84 79 78 86 88 87 88 88 80 94 96 95 87 88 88 84 79 76 76 87 98 97 86 63 68 60 60 54 52 51 52 59 76 78 77
94 100 98 98 90 89 88 93 95 94 96 96 96 96 97 95 97 97 86 76 87 84 92 90 85 77 67 69 66 69 72 80 87 87 86 92 75 74 80 81 68 58 60 58 59 47 47 49 47 50 57 71 74 76
99 93 93 88 90 90 91 95 96 93 96 96 97 97 98 98 97 91 86 93 91 94 92 94 91 90 83 79 72 65 68 75 74 75 77 80 85 93 89 83 83 78 57 48 45 43 41 42 43 46 59 65 75 76
92 86 94 99 93 89 91 91 96 94 99 96 96 98 95 97 97 94 100 96 94 88 82 82 76 72 79 65 66 69 72 81 90 83 81 82 76 72 75 76 78 81 83 60 48 49 49 49 49 58 57 64 75 74
85 89 96 97 93 94 90 98 90 96 94 99 100 96 90 96 96 100 99 94 92 85 87 86 73 86 80 71 93 82 67 72 80 82 77 82 86 67 61 72 74 72 68 49 47 46 48 50 52 54 59 64 70 77
92 96 98 97 96 96 99 100 100 93 100 95 99 95 95 97 99 98 95 89 95 92 91 83 78 89 91 91 86 66 63 75 86 93 81 78 75 60 52 49 49 48 50 54 50 48 48 52 57 57 61 70 75 75
96 94 96 91 96 96 94 99 99 96 96 98 96 94 96 98 100 92 91 92 90 91 88 82 83 87 90 80 88 89 60 63 73 89 76 75 76 68 85 89 87 53 37 32 33 44 49 56 60 60 64 67 76 76
96 96 94 79 82 84 89 83 80 93 97 96 94 97 97 95 94 82 87 91 84 48 30 27 38 67 75 52 39 37 38 49 57 61 63 70 71 66 68 76 80 55 45 38 37 40 44 51 58 61 63 68 75 77
87 82 96 90 97 94 93 95 94 95 92 88 94 95 95 91 79 87 88 46 32 29 31 32 32 36 38 38 38 41 39 41 52 61 63 59 55 53 59 54 54 59 58 51 46 46 52 57 60 64 71 75 76 76
89 91 93 97 97 99 96 93 90 85 72 86 92 87 84 84 84 82 39 37 43 49 54 59 55 49 51 55 52 50 51 56 83 88 77 69 66 60 47 47 54 52 53 57 66 65 66 68 68 72 76 81 86 92
93 92 92 94 95 94 89 84 91 92 80 78 77 84 75 74 43 37 39 46 59 60 51 52 53 58 63 64 68 67 63 64 66 74 73 68 62 57 55 50 47 52 59 66 70 70 84 91 88 91 91 96 99 99
94 95 98 93 95 88 81 90 85 66 78 91 91 85 66 66 49 44 45 49 52 57 61 64 63 63 69 71 76 80 78 65 62 65 69 73 78 74 59 57 56 53 57 64 69 72 79 90 92 93 92 93 92 100
99 97 98 99 94 95 94 95 95 97 96 100 93 97 97 96 90 80 37 37 55 68 65 63 68 66 63 62 64 67 70 70 70 69 63 61 83 91 89 78 69 67 71 76 83 89 94 97 99 99 98 96 96 96
99 98 100 98 97 93 97 92 93 96 99 100 94 88 76 84 82 78 50 51 56 60 74 77 76 77 76 74 71 69 65 63 66 68 66 65 68 74 76 78 86 92 93 94 96 98 99 98 98 98 98 98 97 96

GFSWCAN_925_rhum_045.txt.gz
RH
61 69 82 81 70 75 74 75 78 80 75 77 76 80 81 79 84 88 92 92 92 96 87 59 64 66 62 59 64 65 75 85 93 94 89 88 80 66 60 60 77 83 88 91 84 83 87 56 61 73 64 60 61 62
63 74 81 80 76 73 78 78 78 88 86 83 78 81 85 84 96 96 91 97 99 97 87 68 69 69 68 61 72 67 70 64 100 100 100 98 83 68 69 75 57 73 68 78 72 71 50 60 55 54 59 65 60 61
71 77 78 82 75 69 74 73 82 96 98 87 84 89 86 90 96 95 97 91 97 97 90 75 67 64 60 63 66 73 76 84 97 97 100 100 100 91 78 75 62 54 54 62 56 49 51 49 57 55 52 58 61 62
72 77 79 73 65 61 68 82 92 90 87 87 79 84 91 85 87 94 89 95 96 94 95 74 58 63 61 64 68 70 71 77 84 93 93 94 98 93 95 81 70 63 60 63 65 57 54 50 57 61 62 63 63 62
76 78 65 56 61 66 82 86 89 84 80 78 80 87 93 85 89 83 81 82 90 94 97 90 70 60 60 62 71 74 73 75 80 90 99 93 88 96 93 98 79 64 63 71 73 57 54 53 54 64 69 71 69 64
79 62 66 70 71 80 81 80 80 80 81 80 86 92 83 72 68 93 93 72 78 86 96 98 69 60 60 70 60 65 66 72 80 86 87 82 71 85 99 93 65 53 59 55 56 58 64 75 71 64 72 70 63 62
74 68 72 72 76 80 82 74 82 86 84 85 86 82 73 78 81 84 89 81 88 88 98 97 91 66 69 69 73 76 67 81 84 90 90 80 73 85 95 83 52 49 71 79 67 70 71 67 75 69 67 64 62 62
74 77 75 77 81 83 77 68 74 78 80 82 78 72 82 82 89 89 87 91 95 97 93 97 92 90 73 88 87 78 83 88 91 93 88 85 77 81 92 59 48 47 82 76 67 68 72 71 70 72 72 72 75 77
81 78 78 84 84 79 70 72 77 76 75 79 73 83 84 80 86 91 86 94 98 99 99 97 100 99 95 92 97 89 80 95 83 97 88 80 84 90 68 67 55 40 95 94 78 69 72 74 82 82 79 82 83 86
80 81 82 79 77 72 71 74 75 74 73 78 74 77 95 84 78 81 100 100 98 99 99 95 96 97 96 95 100 97 96 97 99 87 81 84 89 59 61 68 67 79 84 90 80 87 91 97 87 84 87 89 90 91
82 86 83 78 72 71 73 72 70 69 72 83 88 89 82 83 92 93 93 94 95 97 98 96 99 96 80 97 97 98 98 98 99 93 91 98 99 98 84 85 78 87 86 77 76 80 83 84 90 91 90 89 88 88
89 88 81 74 73 77 73 69 70 74 81 82 86 85 87 87 94 92 99 91 95 98 95 97 93 86 88 94 100 98 98 99 98 98 99 99 100 100 100 81 85 77 83 75 77 86 87 85 87 88 88 90 94 94
89 85 78 74 76 72 69 71 75 74 73 84 83 89 89 91 73 80 87 85 92 96 96 97 92 86 85 98 100 100 100 94 99 100 99 100 94 82 100 100 100 96 91 94 82 78 81 82 76 77 84 86 84 90
84 84 76 75 76 75 71 75 81 75 77 94 80 50 82 94 88 93 91 93 91 98 98 96 98 95 86 98 100 100 98 99 98 98 99 99 99 82 78 96 79 96 99 100 99 84 78 77 76 75 74 73 72 75
77 74 74 76 86 86 81 84 85 73 79 93 82 59 85 86 96 98 98 96 93 96 99 98 97 96 96 99 98 99 99 98 98 97 98 98 98 100 78 73 78 75 78 97 86 95 76 74 75 76 75 79 78 76
74 80 82 83 94 92 92 90 80 75 83 93 92 77 90 90 94 99 100 99 96 91 97 97 95 98 92 99 98 98 98 97 98 98 99 97 99 99 99 74 67 59 66 75 74 74 75 74 71 62 60 54 82 84
76 86 85 91 98 99 94 82 79 96 94 87 86 93 96 98 95 96 88 84 81 92 96 87 90 90 96 99 99 97 98 97 99 98 97 99 99 87 70 73 69 56 64 84 92 91 92 92 60 48 56 60 76 82
86 92 96 100 97 94 88 81 89 94 95 97 89 97 88 84 86 84 81 86 90 96 93 89 93 90 98 100 94 99 99 100 98 98 95 93 89 82 86 78 63 64 97 98 98 96 97 83 69 68 56 65 68 71
83 93 96 97 85 83 91 94 92 99 96 97 97 97 92 86 86 82 83 81 83 76 85 85 87 88 94 94 94 97 96 100 89 78 75 78 80 79 86 99 97 84 97 98 81 65 58 54 51 52 55 67 77 73
90 100 97 89 81 79 94 99 97 95 91 92 96 96 97 95 91 90 91 90 79 75 88 88 88 88 91 87 96 94 88 89 90 77 65 73 76 79 85 96 97 98 98 89 76 62 56 49 48 49 50 69 77 74
98 100 92 85 83 85 85 98 98 99 99 94 97 97 94 97 97 100 94 91 84 93 91 88 88 86 77 75 74 74 76 78 77 77 79 90 84 81 80 82 96 96 80 66 65 56 53 51 40 45 48 55 67 75
99 90 84 77 88 90 85 91 90 96 96 97 98 99 99 98 100 98 96 94 88 93 92 95 95 93 88 84 76 66 65 72 78 84 80 78 83 94 88 81 93 89 80 66 54 49 40 37 40 42 46 54 64 71
85 74 92 93 90 85 92 91 96 93 95 96 98 97 94 99 98 95 100 97 93 86 84 88 78 72 78 59 54 55 60 69 86 85 83 84 84 83 85 81 81 89 90 82 64 44 41 38 45 51 49 53 60 66
75 77 94 97 91 96 91 100 94 99 92 99 100 100 91 97 98 100 100 94 86 86 88 85 76 88 76 70 90 70 52 65 73 76 71 84 93 84 77 72 70 75 78 77 68 59 47 43 44 46 50 55 58 62
74 83 90 98 98 96 100 100 100 96 100 99 100 99 93 98 100 100 97 75 89 88 74 80 85 89 83 91 86 56 40 56 74 89 48 64 80 84 76 61 58 53 55 71 69 55 51 46 46 52 54 57 60 64
93 91 98 93 98 89 95 100 100 98 98 100 99 96 98 100 100 94 89 86 92 91 91 80 74 85 90 80 84 76 37 37 61 86 50 48 65 81 90 88 84 72 56 42 43 53 51 48 50 55 62 62 73 76
96 98 96 86 86 88 91 86 84 95 100 100 96 100 99 99 95 84 86 89 90 56 54 38 38 54 60 44 33 32 32 36 48 48 46 57 61 64 72 81 84 63 60 53 42 40 41 41 46 55 61 60 62 65
84 82 98 92 97 96 90 98 99 99 94 88 95 99 95 90 86 83 85 44 37 29 27 28 31 32 34 35 38 41 42 43 48 55 65 66 52 47 46 48 49 55 60 63 56 46 42 44 48 52 61 65 66 70
97 93 92 97 100 100 96 92 92 89 78 91 95 96 93 85 83 68 48 45 40 46 51 52 45 44 46 45 49 56 61 66 84 88 84 72 68 58 48 46 47 51 58 62 66 63 54 57 61 64 65 67 70 81
94 93 94 99 98 96 88 87 90 93 89 81 77 84 72 72 50 46 45 47 57 58 53 54 53 56 60 60 62 62 62 62 64 78 80 76 69 63 63 61 59 59 62 64 66 75 92 94 96 99 100 100 99 98
95 98 97 96 95 92 88 91 91 74 85 91 92 83 68 61 52 51 51 53 57 58 66 65 62 61 71 75 76 80 77 65 60 62 66 70 74 78 80 77 59 52 56 64 72 75 76 82 83 87 92 94 92 100
100 98 100 100 96 91 96 92 94 98 96 100 87 99 99 94 91 56 40 43 50 65 62 61 68 63 63 65 66 65 66 70 72 73 73 71 69 64 78 86 81 77 70 69 73 77 84 94 97 97 96 96 96 97
96 96 100 100 98 94 95 91 93 98 100 100 93 89 87 88 84 77 46 51 59 57 68 69 71 71 72 73 76 80 81 78 76 72 70 67 64 74 86 89 82 77 80 82 85 95 98 98 98 99 98 98 97 96

GFSWCAN_925_rhum_048.txt.gz
RH
58 60 68 78 67 77 69 72 76 80 79 77 68 80 85 92 85 74 90 91 85 94 91 68 70 78 77 65 72 66 78 82 95 95 92 87 83 69 69 68 78 83 84 93 88 94 84 48 60 68 62 62 63 62
58 64 71 86 72 74 71 75 76 84 89 81 84 88 87 94 96 88 89 90 96 94 86 80 75 68 73 67 75 73 80 79 100 100 99 98 96 79 73 76 67 76 71 82 76 74 47 48 58 58 64 63 60 60
62 68 76 86 69 72 75 74 78 91 97 85 84 88 88 92 95 89 90 96 93 93 86 73 63 60 62 64 66 76 84 84 87 94 96 98 100 93 94 79 65 59 61 66 63 53 56 51 55 57 58 60 60 59
64 69 85 83 70 68 66 76 88 86 78 79 77 80 86 94 93 84 87 95 96 94 97 78 63 64 61 65 76 71 73 79 85 93 92 93 97 91 90 93 87 68 60 64 69 60 59 57 56 60 59 63 65 65
68 71 81 78 69 64 78 78 86 81 76 73 74 85 92 86 96 79 80 88 88 85 96 91 71 59 60 64 72 78 79 81 94 90 98 96 89 96 92 97 96 68 69 71 70 56 54 50 50 62 71 70 71 70
68 75 75 63 63 75 75 77 82 77 74 74 81 87 78 76 86 94 92 80 82 83 95 96 72 65 59 70 66 72 75 76 82 87 90 85 73 92 99 91 72 50 66 81 85 72 66 69 69 68 72 76 68 67
73 74 61 72 78 75 78 81 75 71 73 76 78 75 76 80 82 83 90 87 90 84 96 95 92 69 70 71 76 78 71 82 84 87 93 84 76 88 95 92 52 48 44 62 77 80 79 74 74 74 72 70 65 66
73 65 75 77 78 79 79 72 67 71 67 70 71 72 78 85 90 84 84 92 94 89 86 95 91 87 79 91 93 81 85 90 90 92 90 92 79 78 91 63 56 52 48 44 59 87 82 75 75 78 76 74 77 81
68 76 76 81 84 79 71 68 68 68 67 65 71 78 84 79 79 82 94 96 93 95 97 96 100 97 94 91 96 94 82 95 84 96 91 86 83 92 63 56 60 56 59 78 92 94 83 81 87 85 83 83 84 86
77 80 82 89 82 73 71 72 68 71 68 69 68 72 93 83 84 85 98 94 85 87 98 94 98 99 94 95 98 98 97 98 100 87 85 88 89 62 71 91 63 75 89 96 100 97 94 97 89 86 90 92 92 92
84 83 92 88 77 74 73 65 64 69 75 72 84 94 78 88 92 85 87 92 89 91 93 95 98 91 82 96 96 93 97 98 98 92 87 98 98 100 99 97 81 89 90 87 95 93 87 81 90 94 94 89 90 89
86 89 86 80 76 74 67 65 64 65 70 69 73 84 83 88 93 90 100 88 94 92 93 94 94 93 92 93 100 94 99 96 94 95 97 98 100 97 99 100 99 96 87 88 82 88 87 86 87 87 87 90 92 91
90 89 82 77 76 70 68 66 59 51 62 70 76 84 83 86 56 57 63 74 82 92 96 97 93 91 88 94 99 100 100 96 98 99 99 99 98 96 98 100 100 100 98 98 99 98 96 80 78 81 86 78 84 90
95 88 77 76 73 70 73 73 69 70 65 86 71 53 75 81 80 91 86 86 87 100 97 95 88 99 92 99 97 99 85 100 98 96 99 96 97 96 97 100 100 100 100 100 100 98 99 80 81 77 77 76 74 77
96 81 78 79 74 74 76 76 72 71 71 93 76 51 86 83 96 99 97 98 92 98 100 96 87 96 93 100 95 99 99 97 97 96 93 95 97 98 98 100 99 99 100 100 97 99 99 90 77 80 77 75 81 79
88 88 86 88 82 80 83 80 71 68 85 89 91 76 91 86 89 100 98 99 96 93 97 94 79 92 87 99 99 97 96 93 90 99 98 98 98 97 98 100 95 61 72 88 98 99 98 91 82 56 54 55 82 83
81 94 86 92 94 92 86 75 74 95 91 79 86 94 97 98 93 95 94 88 86 91 92 97 99 87 92 95 99 96 93 92 98 98 97 95 98 97 99 95 78 60 77 94 99 99 98 97 91 53 51 60 74 78
83 97 91 97 95 84 81 79 90 92 92 97 88 96 91 83 89 87 86 89 91 96 95 96 90 92 97 99 97 85 92 99 99 98 92 87 89 87 90 97 96 63 92 99 99 98 94 97 95 80 54 63 69 72
98 99 99 97 82 77 90 93 89 94 96 98 97 98 94 87 88 85 87 86 86 84 93 90 88 88 93 92 95 99 99 99 91 78 70 68 69 79 86 85 98 98 98 99 98 92 70 66 59 48 50 60 73 70
99 100 98 88 80 75 94 98 93 92 94 93 96 94 97 96 93 94 93 94 81 81 82 87 89 84 87 88 94 95 93 90 92 83 64 60 66 79 85 87 96 97 99 98 98 99 84 61 48 49 49 55 75 69
100 99 86 77 81 84 92 96 98 100 99 92 97 98 95 96 98 100 98 97 92 90 95 86 79 80 78 78 76 80 85 75 84 83 78 88 80 80 83 78 79 94 100 98 98 94 72 67 45 40 45 46 56 65
99 86 80 75 88 87 95 92 93 98 95 95 99 100 100 93 99 100 99 93 87 92 91 94 94 90 89 88 80 66 59 64 70 79 80 82 92 95 90 83 88 95 95 93 94 90 71 49 39 39 41 41 54 61
77 72 89 85 89 84 98 94 97 96 98 94 99 96 94 100 100 95 100 97 93 86 80 88 82 76 84 72 63 54 53 62 82 75 71 75 79 82 86 85 82 94 94 89 82 82 78 61 38 46 41 47 54 58
70 75 95 96 89 95 90 100 90 95 93 100 100 100 93 99 96 100 100 92 73 86 93 85 87 93 82 77 83 67 42 46 58 63 54 66 88 72 73 78 76 73 73 72 81 82 74 64 48 47 52 51 51 57
68 74 84 100 98 97 100 99 97 98 100 100 100 100 94 98 97 100 99 67 87 83 74 80 89 90 78 82 81 49 31 42 66 80 42 51 58 66 66 59 60 61 65 59 65 74 73 63 57 50 50 52 54 54
84 87 90 91 97 90 94 100 99 99 100 100 100 98 100 100 100 96 88 87 83 88 89 88 80 81 81 74 74 71 40 32 41 81 50 42 46 66 88 88 82 61 48 58 60 55 56 58 56 53 53 52 64 70
97 99 97 83 86 87 92 87 84 95 100 100 98 100 100 100 97 84 86 89 90 51 37 36 63 63 61 48 39 32 32 33 40 42 42 47 50 53 63 78 79 61 54 58 58 55 49 45 46 48 50 47 49 56
84 86 97 97 97 97 92 99 99 99 93 89 90 100 95 91 84 84 83 43 40 42 43 44 42 39 40 35 35 40 41 41 47 53 55 55 52 51 50 52 52 50 62 70 72 66 58 51 48 48 50 51 50 57
98 93 93 96 100 100 95 90 92 88 76 90 93 92 89 85 84 85 46 44 45 50 58 57 54 52 50 49 50 52 56 61 79 88 83 73 81 59 52 56 58 60 64 70 76 86 70 62 58 55 58 62 64 67
95 92 96 100 99 97 89 88 91 91 90 84 81 85 74 66 48 46 49 54 64 69 61 60 59 61 64 63 64 62 59 59 63 74 84 78 72 60 67 66 68 71 68 66 79 82 87 90 87 90 83 79 84 93
96 96 96 98 97 93 89 93 92 81 91 94 95 87 71 65 53 51 51 56 60 63 69 71 70 72 75 76 76 82 79 67 61 59 60 63 65 68 71 74 77 82 65 67 76 76 81 94 96 99 100 97 92 98
100 98 100 100 99 92 97 97 99 100 98 100 89 99 96 94 93 76 39 44 47 68 66 67 76 72 74 74 76 79 80 82 78 77 78 78 77 76 78 72 72 76 73 72 71 75 76 79 82 88 94 95 95 95
97 98 99 100 100 97 96 92 93 96 100 100 94 95 95 91 82 78 54 60 66 71 71 69 70 74 78 73 70 70 70 75 82 82 78 74 69 66 68 83 94 85 76 75 78 82 89 96 98 99 98 98 98 98

GFSWCAN_925_rhum_051.txt.gz
RH
73 59 66 71 59 71 63 68 73 74 80 82 80 79 78 85 85 76 86 82 85 92 88 77 76 78 80 73 76 69 84 82 95 94 96 88 90 74 73 70 77 83 87 92 89 95 90 47 59 67 60 66 64 66
60 60 65 64 60 67 63 71 76 87 90 85 86 85 80 81 84 81 87 95 86 88 84 86 77 72 73 70 76 77 86 92 98 100 98 97 87 92 77 78 71 79 71 81 81 76 50 46 61 55 64 70 60 61
57 58 69 59 61 64 71 77 81 91 85 86 77 78 84 91 83 78 92 93 80 91 79 71 67 63 64 65 68 76 90 84 84 92 94 96 99 90 93 87 72 60 62 70 67 55 60 54 51 64 58 63 59 59
57 58 72 65 64 71 80 80 83 93 91 78 77 80 88 80 80 71 83 87 97 88 94 75 64 64 64 68 73 75 79 81 84 93 91 93 93 84 87 90 93 74 69 69 74 62 61 56 59 54 61 61 64 63
56 66 72 70 64 84 78 80 88 79 76 73 81 83 80 75 75 66 78 85 91 85 94 84 70 61 60 65 73 77 83 84 90 93 98 93 89 94 90 93 97 71 67 82 78 82 89 73 62 64 67 70 72 70
59 69 78 71 76 72 80 83 84 78 73 78 76 71 68 69 74 74 88 82 91 89 93 88 74 66 61 70 70 77 80 81 84 85 88 87 77 94 96 93 67 66 72 76 87 87 68 65 75 73 73 73 75 74
66 77 80 76 71 74 79 80 81 77 78 78 68 68 68 73 73 79 93 97 95 88 94 89 91 72 73 73 79 81 74 85 84 89 93 88 79 92 94 94 53 51 49 45 42 57 58 76 87 82 78 74 70 70
74 79 76 70 68 80 76 79 80 78 82 70 66 66 68 72 76 78 93 90 85 89 84 94 88 88 83 94 93 82 87 91 89 92 91 95 82 80 87 68 56 54 57 56 56 73 90 90 83 79 76 76 78 82
75 78 63 67 81 78 76 78 74 73 68 72 70 64 64 64 75 77 88 87 91 91 96 95 99 97 89 92 98 94 86 96 86 94 91 85 83 92 64 85 92 96 90 68 84 92 92 96 83 89 84 81 84 88
80 63 68 82 83 78 73 74 67 65 80 70 64 65 88 82 81 84 98 86 91 85 96 94 94 98 95 91 97 98 96 93 100 84 87 88 87 69 82 98 99 97 93 96 100 97 97 100 98 93 92 92 91 92
68 70 79 86 83 73 75 72 72 74 75 67 82 92 86 90 87 83 88 92 94 89 86 87 93 90 82 97 94 94 97 96 99 90 85 97 97 96 95 96 100 99 97 90 94 99 100 98 98 96 97 91 92 91
74 80 87 88 76 78 70 70 79 70 65 57 67 81 86 89 89 78 99 86 89 81 93 92 92 94 95 93 100 99 99 99 96 89 96 97 93 97 97 96 97 98 100 98 97 100 100 96 86 89 89 92 92 87
79 90 89 79 82 74 72 76 71 61 58 55 66 81 77 83 50 42 42 69 75 90 97 98 95 93 89 91 96 100 97 95 99 98 97 96 93 95 97 97 97 97 96 99 99 97 98 98 91 83 77 76 81 83
88 91 79 84 77 71 64 55 54 59 54 80 69 48 64 73 71 85 78 81 83 98 99 94 94 95 95 98 93 98 86 100 97 95 90 95 98 97 96 98 98 99 100 100 99 99 98 99 91 80 86 81 76 79
88 80 87 80 72 69 69 67 66 62 62 88 71 39 85 83 98 98 98 97 94 98 99 96 94 91 88 96 93 97 95 95 92 89 91 93 98 96 91 96 99 97 87 99 97 99 99 99 95 82 66 59 83 80
82 92 94 80 72 75 76 72 65 62 81 86 89 78 93 86 89 98 100 99 95 94 97 92 91 88 74 97 85 94 100 94 87 96 96 96 94 94 93 90 97 94 66 86 98 99 99 99 98 96 62 54 76 82
88 99 88 79 84 85 78 68 70 92 87 75 88 94 93 97 90 97 97 88 88 88 85 96 100 84 91 94 94 91 96 89 96 99 98 92 92 84 79 85 95 89 64 80 95 99 99 98 98 97 74 50 65 71
90 93 91 87 86 73 72 77 88 89 92 100 87 94 90 81 88 89 90 91 92 96 96 87 90 92 98 99 89 91 98 97 99 99 90 82 77 80 75 85 89 93 77 88 98 99 98 93 94 90 80 52 63 67
98 98 93 87 70 69 90 94 87 93 98 99 98 99 94 88 89 85 89 91 88 86 93 97 94 92 93 91 93 95 98 98 97 88 81 68 65 68 78 83 88 98 100 99 99 99 98 83 82 70 51 53 78 69
100 100 94 78 69 73 94 99 85 90 93 93 96 95 97 96 95 96 95 94 91 92 93 94 91 83 83 84 92 91 94 88 93 86 65 63 58 69 80 85 88 82 93 99 99 99 98 98 87 55 49 50 66 80
100 95 83 67 79 76 95 95 100 98 100 93 98 97 94 95 99 100 98 98 90 98 96 87 83 74 69 73 72 78 80 87 89 83 73 85 68 84 86 82 78 85 99 100 99 98 99 98 98 71 42 46 48 50
97 77 70 75 88 87 95 98 95 97 92 97 99 99 98 92 98 100 98 95 92 91 90 92 88 75 81 83 75 73 72 70 64 70 76 79 93 91 80 80 93 94 92 91 92 94 93 92 92 84 45 38 43 52
70 66 83 75 87 86 99 92 96 97 95 96 98 94 95 100 100 94 100 99 92 88 83 88 74 70 79 73 74 72 68 64 73 69 64 65 65 64 71 68 76 91 93 85 78 84 85 79 80 62 42 43 47 55
68 78 93 93 88 100 90 100 90 94 95 99 100 100 93 98 95 100 100 91 80 84 89 77 68 84 84 88 94 75 63 50 62 56 46 59 76 55 45 54 54 58 63 67 73 76 77 79 75 62 52 49 50 50
63 80 87 99 97 96 100 99 96 95 100 100 100 100 96 98 99 100 99 84 91 86 84 65 84 95 90 78 72 65 45 44 59 62 39 47 49 58 54 47 44 43 49 57 64 69 69 68 73 71 58 52 52 51
82 93 82 96 98 89 98 100 98 99 100 100 100 100 100 100 100 96 88 88 86 84 83 89 88 93 93 82 77 71 48 32 41 72 48 42 45 57 74 76 72 59 48 50 55 61 63 65 64 65 63 58 64 64
97 99 97 79 86 86 92 87 84 96 100 100 100 100 100 99 97 83 86 87 86 46 37 41 41 56 68 51 44 41 37 37 38 38 38 41 44 46 53 70 70 59 55 61 67 68 66 64 63 59 56 53 51 50
83 88 97 98 97 96 93 100 99 100 93 89 91 100 93 89 81 81 81 41 34 33 35 37 40 44 49 51 51 50 49 49 50 54 56 53 50 46 45 44 44 47 55 64 73 82 87 82 73 68 62 55 48 47
93 88 89 98 100 100 95 90 91 90 77 90 88 90 87 84 80 76 39 37 40 49 59 60 54 56 57 57 57 57 60 64 73 79 78 83 88 56 46 50 54 59 65 68 68 73 92 93 90 75 64 61 58 61
99 94 96 100 99 99 91 90 91 93 90 83 82 88 76 63 46 46 49 53 59 68 68 69 68 71 74 74 74 72 68 66 68 78 80 80 76 57 58 63 68 70 72 73 76 72 71 91 94 90 83 74 73 73
95 95 97 100 98 94 94 97 92 80 93 98 97 88 70 74 55 48 47 46 54 61 70 76 77 76 80 85 86 88 85 74 71 70 71 74 73 73 74 75 77 75 69 70 67 70 82 96 94 93 97 96 95 98
100 97 100 100 100 94 96 100 100 100 100 100 92 100 96 95 93 78 49 55 55 63 72 77 74 75 78 85 87 86 87 86 86 84 84 84 85 86 87 84 82 76 76 71 71 79 84 90 95 93 92 94 95 95
97 98 99 100 100 99 97 93 95 97 99 100 96 97 98 91 80 80 69 72 68 73 81 82 82 83 81 83 88 88 90 92 91 77 98 99 94 88 72 72 78 89 87 81 79 80 82 85 91 95 96 97 96 95

GFSWCAN_925_rhum_054.txt.gz
RH
99 86 67 54 73 68 91 67 67 69 70 75 78 74 79 78 71 68 96 82 78 94 86 82 78 78 81 78 77 70 87 82 96 91 95 94 92 81 77 69 77 84 90 94 91 93 92 50 59 67 56 65 67 70
97 76 60 68 61 69 80 68 68 74 80 84 87 79 80 81 69 74 95 82 78 85 86 87 78 74 74 74 80 80 90 95 94 99 94 92 79 96 84 80 68 82 73 78 81 77 52 46 59 55 65 73 68 66
92 81 66 62 63 67 72 66 72 86 90 90 88 80 92 85 70 70 85 79 74 88 74 71 71 64 64 67 72 75 92 88 85 91 92 94 96 98 87 90 91 64 65 78 69 56 59 60 59 59 68 71 70 63
95 67 56 60 62 67 67 66 75 89 95 90 96 88 89 81 67 68 79 89 78 89 90 74 66 65 67 70 75 75 80 82 84 93 95 91 88 88 88 91 90 81 82 78 80 65 78 61 67 72 57 71 75 70
71 66 66 57 66 67 64 68 79 94 94 89 95 92 84 69 68 70 79 87 82 76 91 77 70 63 62 67 73 79 81 87 92 95 98 95 87 91 88 86 91 76 77 86 90 94 87 74 53 44 76 82 75 79
71 71 67 60 61 67 65 73 88 92 76 93 90 79 72 63 61 67 92 87 85 80 89 86 74 68 64 71 71 81 87 85 88 90 91 87 78 91 88 82 62 58 58 64 60 52 57 54 52 54 88 73 80 82
62 69 72 54 66 68 67 89 89 78 86 79 73 72 69 73 73 75 82 87 89 78 89 88 90 72 77 76 82 84 78 89 86 91 90 88 79 90 95 88 54 59 56 66 75 62 64 53 62 81 85 76 78 73
74 72 65 57 70 65 85 95 88 94 86 80 82 74 65 66 72 87 92 88 82 81 82 91 84 90 91 96 91 86 90 91 89 94 91 93 82 82 84 67 60 75 85 85 78 70 78 80 84 78 86 82 81 82
78 66 63 68 66 76 95 95 91 96 89 96 98 83 69 65 75 88 88 85 81 79 93 95 98 95 84 92 97 94 90 92 89 92 91 85 84 93 86 82 95 95 98 96 96 96 94 97 97 93 88 88 92 90
70 64 69 70 66 92 96 91 93 93 94 97 82 64 88 90 85 89 88 86 92 95 94 98 94 96 90 92 92 99 96 96 100 84 87 85 86 69 67 93 93 90 96 97 98 97 97 97 97 96 90 95 96 95
77 74 82 61 87 96 91 92 95 91 100 81 79 94 96 95 82 88 95 91 93 86 91 87 88 94 83 98 98 91 99 98 97 96 94 96 94 84 85 91 84 88 95 96 99 98 100 100 99 100 99 99 99 96
77 88 64 80 94 86 82 90 91 83 73 62 74 89 88 85 86 65 94 82 83 68 94 96 90 92 93 93 96 99 100 98 96 96 97 96 92 94 92 92 88 88 92 93 97 99 98 98 97 100 100 100 98 100
90 70 78 88 84 85 85 86 84 62 64 59 67 78 74 84 47 33 31 69 69 91 97 98 87 94 91 94 94 99 99 97 98 98 93 89 93 90 86 89 88 92 92 94 96 98 98 97 99 99 91 86 78 80
82 84 88 85 86 88 89 90 77 64 56 76 65 51 63 66 62 76 70 78 82 96 100 99 98 95 96 99 92 95 84 99 99 99 92 94 94 93 92 89 86 87 94 90 95 98 99 98 98 96 80 83 90 85
87 91 86 84 82 79 92 90 76 64 60 79 66 38 76 87 99 95 96 96 96 98 99 97 95 92 92 85 92 89 76 98 94 87 92 91 92 92 91 85 85 85 89 92 90 98 99 98 98 91 79 72 96 93
95 96 84 78 69 70 96 74 67 60 75 85 85 82 92 89 99 99 97 99 96 96 96 92 95 95 88 92 80 83 89 96 84 95 94 96 92 87 85 84 80 81 90 87 77 94 100 99 99 98 94 56 73 77
80 92 77 78 77 73 71 66 66 88 84 78 92 88 90 92 87 96 98 87 89 88 82 95 69 60 82 93 90 82 89 88 97 97 99 91 90 88 83 81 78 83 91 86 74 86 99 99 98 98 97 92 80 87
100 94 84 89 77 74 71 74 84 86 89 100 86 96 86 83 88 90 91 94 92 96 94 79 90 100 99 99 89 90 97 93 94 98 96 87 81 72 70 79 83 88 95 92 86 96 99 99 98 96 97 85 53 60
100 93 81 79 62 60 91 93 84 92 100 100 99 99 94 90 91 88 91 93 88 86 94 99 96 98 92 91 89 92 95 97 98 90 86 77 65 64 65 74 81 86 84 88 96 99 99 99 99 98 88 83 76 69
82 87 86 71 58 70 86 96 80 88 95 96 94 96 97 96 96 97 96 95 94 96 99 100 94 82 83 79 89 84 88 86 92 91 74 66 54 62 75 82 87 85 86 86 95 99 100 99 98 98 88 57 67 70
97 84 70 53 69 77 95 98 99 98 100 95 99 97 97 96 100 100 100 98 94 97 98 92 90 76 69 68 67 72 81 87 91 91 83 79 62 70 79 64 67 80 89 89 96 94 91 98 98 99 98 76 50 52
86 72 66 72 83 88 97 98 97 96 95 99 100 98 98 93 100 100 97 96 93 92 92 92 91 84 80 78 69 66 64 70 80 82 77 75 89 84 73 63 75 87 87 85 86 91 88 83 85 94 98 98 62 47
62 58 73 69 81 86 100 92 96 96 90 100 98 90 95 100 100 94 100 97 93 89 82 87 76 68 75 59 63 68 73 81 87 80 67 70 64 58 66 57 53 76 86 66 58 72 79 76 84 85 83 76 61 46
55 82 90 88 84 100 87 99 88 92 94 100 100 97 90 99 96 100 100 90 83 84 92 80 65 82 78 80 97 79 61 70 74 72 60 62 74 56 38 39 44 48 55 52 52 60 65 68 79 80 76 70 52 50
66 91 85 100 97 93 98 98 94 93 100 100 100 100 98 98 100 100 99 85 94 90 85 69 81 90 88 90 85 62 46 63 80 80 52 45 39 46 53 50 49 46 48 53 53 51 53 61 68 75 78 76 63 58
86 95 81 98 99 84 97 100 100 100 100 100 100 100 100 100 100 84 85 87 86 87 81 71 72 89 89 82 77 74 45 38 54 73 58 47 45 61 77 73 66 53 44 47 51 54 58 61 65 69 74 71 76 74
98 100 96 80 82 83 92 88 85 95 100 100 100 100 99 97 94 81 85 85 84 41 32 32 40 65 57 46 45 47 46 47 50 53 47 46 46 50 52 61 66 52 48 53 60 67 72 78 83 81 78 71 65 59
87 93 97 99 99 96 96 100 99 96 93 90 90 100 91 86 76 79 80 40 36 33 37 40 44 49 57 58 59 63 64 62 63 63 64 65 62 58 55 52 49 47 52 56 65 72 82 88 91 91 90 86 77 67
92 92 90 99 100 100 95 91 91 92 78 91 86 88 84 82 80 75 36 35 38 48 61 67 66 64 66 68 68 69 69 71 86 90 88 83 81 68 56 58 58 56 57 61 66 72 78 85 87 91 97 96 81 68
100 95 97 100 100 98 92 92 92 94 89 81 79 89 88 72 45 45 48 50 60 66 67 70 74 79 85 88 87 84 81 81 80 88 89 86 83 69 68 67 64 68 71 75 75 68 66 71 84 95 98 88 81 76
97 95 98 99 99 95 95 96 96 79 95 99 98 92 73 85 62 49 52 58 58 53 53 69 60 66 76 87 95 95 91 86 86 94 98 97 94 89 81 79 83 84 84 83 79 73 71 82 99 99 94 90 90 94
98 98 100 100 100 96 96 100 100 100 100 100 96 100 98 95 95 85 63 58 51 58 72 76 85 88 88 87 88 95 100 100 95 95 96 95 86 82 84 81 87 90 88 83 79 75 84 92 100 100 100 100 99 96
96 99 100 100 100 99 96 92 96 98 98 100 98 99 100 95 78 80 63 63 63 78 88 94 89 81 82 88 93 95 97 97 96 100 100 99 98 97 96 82 78 77 82 87 85 85 86 86 90 92 95 95 95 95

GFSWCAN_925_rhum_057.txt.gz
RH
100 100 100 93 90 80 63 92 72 68 64 67 71 73 72 70 69 67 90 80 63 96 90 84 78 82 80 80 79 72 88 83 95 96 93 97 92 84 78 69 78 85 91 96 90 95 89 50 56 66 65 74 73 75
100 100 97 89 82 87 80 69 75 68 64 71 75 74 74 69 71 74 79 74 64 85 90 81 78 77 76 78 84 81 91 96 96 99 94 92 76 95 88 80 70 82 75 78 81 76 54 55 56 62 74 73 76 81
100 100 96 83 86 81 70 72 76 70 69 78 83 82 84 69 66 65 75 73 58 86 80 75 74 65 69 71 75 76 90 89 85 91 93 97 94 94 86 88 95 71 70 79 70 59 75 77 64 69 54 52 60 76
100 100 87 67 70 74 65 74 83 73 79 92 94 96 95 67 65 65 72 72 63 81 88 78 66 66 70 72 78 76 80 84 85 93 93 88 87 88 85 91 94 86 82 85 83 81 72 68 49 48 48 49 74 78
98 100 83 75 87 66 70 73 80 84 93 93 95 98 87 65 65 64 69 76 68 68 86 80 71 66 66 70 75 83 84 87 91 92 97 97 88 92 88 86 92 84 90 94 92 70 81 64 57 55 58 57 83 74
100 99 96 91 70 62 68 75 79 99 94 92 96 98 83 66 64 68 86 72 66 63 85 90 75 70 74 72 76 84 90 90 91 88 94 87 77 91 89 82 61 59 57 57 71 64 75 77 64 55 61 76 76 83
100 99 96 78 76 65 69 74 87 98 93 95 94 96 89 71 72 76 76 74 69 62 84 91 91 70 82 80 85 86 83 92 88 93 92 89 80 87 90 79 51 59 72 78 76 83 87 67 82 77 82 84 84 88
100 92 86 90 71 64 72 77 87 94 98 93 95 95 82 76 84 87 92 79 73 68 79 85 82 88 89 95 81 86 93 91 95 95 92 91 82 81 76 62 63 75 85 85 83 87 92 94 87 82 81 81 87 91
100 97 96 92 62 70 77 78 84 98 96 94 99 96 81 73 82 91 85 76 69 67 91 94 98 79 82 90 96 96 92 93 92 93 90 85 83 93 72 79 83 88 94 96 95 95 87 90 95 88 95 96 92 92
96 97 99 70 66 76 79 77 90 91 91 97 93 80 93 92 94 98 84 84 91 95 94 98 86 97 90 92 92 88 96 98 99 90 89 93 92 70 68 73 88 85 90 94 97 96 96 97 96 96 96 97 97 97
99 95 93 69 80 84 83 86 92 89 96 90 82 96 100 97 86 85 95 85 90 79 96 99 93 96 85 98 98 91 88 98 97 93 98 98 97 88 84 90 89 88 87 90 94 96 97 99 98 97 99 100 97 97
100 100 84 81 90 91 80 90 91 91 85 73 82 95 92 80 82 59 91 80 76 60 95 98 92 91 90 91 93 84 97 94 96 97 99 99 89 91 94 91 90 89 91 85 87 96 97 97 96 98 98 98 99 99
100 100 96 94 92 86 86 90 92 72 67 75 70 73 72 79 42 34 43 69 72 92 98 98 84 92 90 94 95 95 94 97 94 98 97 91 89 89 87 92 92 87 89 90 89 87 95 95 99 99 96 80 91 85
100 97 94 93 92 84 89 94 72 66 47 78 69 51 61 61 56 68 67 77 84 97 98 97 99 94 88 92 83 90 87 98 98 100 97 94 91 78 88 90 93 91 88 91 95 91 96 98 97 99 99 94 85 98
98 99 98 98 85 88 98 81 72 62 57 75 66 47 74 90 97 96 95 96 98 94 98 98 96 92 96 85 77 80 83 76 94 90 90 90 90 91 88 86 88 89 90 91 89 94 92 97 98 97 98 91 78 89
100 100 99 84 85 95 96 85 68 59 74 82 84 89 92 91 100 96 98 95 96 98 90 92 97 95 93 94 81 90 89 89 87 94 94 96 98 88 84 84 83 81 83 88 93 91 88 95 99 98 98 98 82 91
86 97 90 91 99 92 86 63 62 84 83 79 93 85 88 89 88 95 92 85 90 86 85 93 71 56 81 89 87 78 84 90 91 97 95 97 98 88 86 78 73 76 85 89 93 92 86 92 100 99 98 98 97 97
97 94 87 99 96 81 72 74 83 84 89 97 84 94 80 83 91 94 91 97 89 89 89 76 88 100 96 98 90 90 94 96 96 92 92 97 89 80 73 74 72 79 86 87 86 89 98 100 99 98 98 98 96 95
100 99 91 85 70 63 90 90 81 94 100 99 99 98 92 91 93 90 94 93 88 85 94 98 97 98 85 90 86 90 91 92 77 71 86 80 78 79 66 62 70 79 78 83 90 93 95 98 99 99 98 99 96 91
93 81 82 83 65 69 85 93 77 88 96 97 95 97 97 98 96 97 98 95 93 97 99 100 89 76 77 75 89 87 84 77 85 88 70 66 68 60 61 68 77 72 74 69 73 82 92 96 99 98 99 98 98 89
98 88 77 56 68 80 94 97 98 97 98 96 99 96 98 96 100 100 100 98 96 97 97 93 91 77 69 65 64 68 76 81 86 88 74 77 73 71 74 73 68 65 77 73 85 77 79 89 84 89 100 98 98 97
82 66 63 73 84 90 96 96 96 94 95 100 98 95 97 95 100 100 98 97 98 93 92 92 92 91 78 73 60 54 56 66 74 82 80 86 91 92 79 64 78 80 71 66 67 76 72 66 72 85 96 98 98 98
64 59 70 67 80 81 100 91 93 96 85 100 97 86 98 100 99 94 100 97 95 89 83 88 79 69 74 60 55 51 50 64 84 82 83 84 80 76 74 69 62 64 73 51 48 55 67 69 71 80 85 91 98 97
51 81 88 88 82 100 82 97 88 96 98 98 99 86 92 99 96 99 100 92 85 86 94 87 83 88 74 77 92 70 44 58 58 66 62 84 85 70 55 51 45 43 46 44 48 49 52 58 67 73 80 83 83 95
66 88 81 98 95 87 93 97 97 96 100 100 100 100 98 98 98 100 100 87 94 90 88 73 81 90 79 76 77 63 46 52 57 73 54 54 72 68 64 56 48 43 44 49 49 48 46 53 59 66 69 77 82 79
89 98 80 93 98 79 92 97 100 99 99 100 100 100 100 100 100 87 86 88 88 88 83 80 73 79 76 76 69 62 53 49 54 79 62 59 59 71 72 70 64 54 44 48 48 50 52 57 66 72 74 75 80 81
91 100 94 77 78 80 90 88 84 91 100 100 100 100 99 88 91 79 85 84 84 40 29 30 35 52 62 52 53 56 58 60 65 69 66 66 68 65 62 72 73 59 56 56 57 58 62 67 74 83 87 87 87 82
92 89 96 100 96 96 95 99 96 92 91 90 89 100 86 82 71 78 79 38 33 34 38 44 50 57 62 64 66 69 70 71 75 77 76 71 67 67 66 65 64 62 64 72 77 80 84 82 83 86 90 93 91 94
96 92 90 100 100 100 94 88 87 91 78 91 84 87 84 84 78 73 35 37 46 54 64 69 69 74 69 66 65 71 80 84 97 96 95 91 89 79 76 80 78 73 68 66 73 86 88 90 89 93 94 100 99 92
100 92 96 100 100 98 93 93 92 95 90 80 77 89 91 84 43 44 48 50 63 70 67 68 66 66 75 84 91 86 78 84 94 98 97 95 95 94 89 90 90 86 87 82 83 82 80 76 70 74 98 96 94 80
93 96 98 100 96 96 96 95 96 79 95 100 98 94 87 95 67 66 55 55 53 54 69 77 84 88 93 94 99 100 95 87 88 92 98 100 98 96 90 88 87 86 88 90 89 90 87 78 79 94 100 97 92 91
97 100 100 100 100 97 98 100 100 100 100 100 96 100 98 95 92 90 63 57 70 86 88 93 95 90 86 93 96 99 100 100 98 97 98 96 94 96 97 99 100 97 98 100 99 90 82 85 93 100 100 100 100 100
96 100 100 100 100 100 97 92 99 100 97 100 98 100 100 96 77 81 59 63 77 87 87 79 81 79 80 85 90 96 99 97 92 99 100 100 99 97 94 96 92 90 90 90 90 91 90 89 92 95 95 96 97 98

GFSWCAN_925_rhum_060.txt.gz
RH
100 98 100 100 100 96 88 91 95 69 66 67 68 66 61 58 59 57 83 60 62 68 78 72 67 64 64 58 57 56 74 74 95 84 75 79 68 64 64 61 65 64 65 67 66 71 72 50 54 59 63 47 47 45
99 98 100 100 96 94 86 94 85 71 76 65 75 70 63 63 58 55 80 65 58 68 70 83 81 78 75 70 61 67 81 88 85 100 81 74 70 74 67 62 58 74 62 61 62 57 56 50 55 57 44 44 42 43
99 90 100 100 100 95 93 92 72 73 70 70 81 70 66 66 65 52 62 58 60 69 64 62 66 73 72 76 72 54 74 79 72 77 79 83 80 81 70 71 72 65 66 72 65 63 56 42 57 41 45 52 51 44
98 99 100 100 100 100 87 78 72 72 72 94 94 78 66 61 59 51 62 61 57 66 67 69 67 69 74 80 79 75 74 80 73 76 70 71 75 70 70 74 73 66 60 61 55 50 47 55 43 48 57 55 50 49
97 100 99 100 100 94 92 67 81 86 92 95 98 89 65 60 59 54 53 61 61 71 69 70 71 70 74 78 84 84 75 69 66 70 77 76 74 71 67 63 64 58 63 67 60 55 64 61 59 63 66 62 60 70
98 98 100 100 91 96 82 83 89 90 92 86 99 81 62 62 58 52 70 61 60 61 83 80 71 73 78 77 79 79 76 72 72 66 71 69 67 75 64 52 48 52 52 62 74 66 73 74 70 67 67 74 74 74
93 100 100 100 93 93 95 90 93 90 88 93 91 77 66 65 63 74 68 72 59 53 71 86 83 66 86 77 75 71 76 78 71 75 72 67 65 73 68 56 42 53 62 74 73 76 88 81 86 80 85 80 78 79
97 100 100 96 90 98 90 96 91 87 94 99 99 98 71 66 74 79 84 70 61 56 69 82 76 81 80 78 80 76 75 74 80 78 75 68 66 65 62 46 49 60 69 74 73 77 86 83 84 80 77 79 88 94
99 99 100 100 94 93 97 95 88 93 94 96 99 84 68 66 82 86 77 68 62 64 77 73 68 70 69 78 89 83 74 74 76 73 70 74 65 80 54 48 52 60 74 76 78 83 84 87 93 86 86 88 97 96
100 100 100 97 97 100 98 91 91 88 90 97 72 73 87 98 88 97 81 72 80 80 77 90 81 73 75 79 85 84 80 82 88 73 72 79 74 58 56 56 58 65 65 70 87 91 90 92 96 95 91 89 97 97
100 100 99 96 100 98 100 89 90 90 96 76 81 93 100 100 88 74 78 72 63 64 80 88 81 74 77 83 81 80 86 89 89 84 82 83 79 65 58 65 64 64 68 69 68 71 78 85 96 92 90 85 89 94
100 100 99 100 100 100 94 91 90 77 66 67 86 97 93 71 70 59 79 69 56 59 89 77 82 74 81 82 76 91 88 87 92 86 90 91 70 78 78 73 68 65 66 67 69 68 74 81 85 87 92 94 87 92
100 100 100 100 100 93 92 90 62 62 69 74 66 72 65 68 46 41 44 65 76 86 96 88 83 77 82 81 84 85 86 86 86 92 88 75 75 72 71 83 77 71 67 64 69 70 73 81 85 90 91 90 70 74
100 100 100 100 97 96 96 73 60 65 46 76 70 52 60 54 50 55 57 73 75 89 89 79 87 85 80 84 75 83 75 88 89 94 92 76 73 70 64 61 65 68 67 68 77 82 87 93 90 89 93 94 90 80
100 100 100 100 96 96 86 64 67 55 54 68 65 52 67 85 90 88 92 94 91 84 86 89 88 76 94 81 70 75 81 88 71 82 73 74 77 83 73 61 61 63 70 77 75 83 88 96 91 88 92 100 98 75
100 100 100 97 98 93 73 67 64 54 74 79 84 88 84 86 97 92 92 97 91 85 79 75 88 87 90 83 80 84 90 89 78 83 79 77 83 86 79 69 64 61 60 65 77 83 88 96 92 94 98 100 100 92
90 95 98 99 92 75 67 65 60 83 82 73 90 76 80 80 82 80 67 74 84 73 72 77 62 53 80 90 86 74 83 77 79 77 75 78 82 72 72 73 68 61 61 66 80 82 86 88 94 99 96 92 99 98
94 100 100 93 76 72 70 73 81 84 87 91 83 86 70 73 76 81 83 83 76 74 72 68 77 85 76 74 72 74 79 83 77 74 72 68 68 74 73 70 67 63 74 79 79 83 86 94 91 89 94 99 99 98
99 100 97 80 63 61 91 87 84 95 100 94 92 88 84 83 87 84 86 86 82 74 82 86 80 76 64 71 72 75 75 70 56 51 56 56 65 68 68 72 68 68 71 75 73 69 72 83 91 96 99 100 97 98
100 95 86 68 64 78 88 91 77 88 93 94 88 90 89 90 90 93 91 87 83 89 91 86 68 54 52 54 69 64 62 58 62 62 50 44 56 64 70 71 71 72 77 68 65 64 67 67 67 82 92 99 99 98
98 87 81 60 72 77 89 91 96 95 93 94 94 86 96 93 99 100 99 92 90 93 89 76 66 58 64 59 59 63 63 68 62 61 56 62 55 74 77 79 83 78 68 63 55 51 57 60 64 75 84 94 99 98
94 81 72 74 86 90 94 93 94 90 90 95 90 88 92 89 100 100 96 95 96 87 80 73 70 66 66 66 56 58 52 54 59 71 75 75 71 65 66 71 80 73 74 74 62 64 60 58 65 76 86 91 98 98
65 57 71 81 85 85 100 90 88 90 79 89 91 85 94 94 95 92 98 92 91 82 80 82 80 74 75 64 60 52 48 53 65 63 64 65 66 66 77 79 79 84 76 62 54 64 60 52 61 62 68 79 91 97
49 83 92 92 86 97 79 95 82 90 89 86 81 88 92 93 91 94 84 83 73 76 77 80 79 73 66 71 71 54 41 49 58 64 66 71 66 56 55 67 65 64 60 55 53 53 57 52 52 56 61 69 77 89
66 89 86 92 89 83 87 91 93 82 94 98 91 97 96 94 88 95 89 82 78 67 64 66 70 71 64 59 59 53 41 49 59 60 56 58 64 66 70 75 70 65 62 65 69 63 58 51 55 60 64 71 78 80
86 99 75 84 88 75 84 84 89 91 92 99 99 94 95 95 91 79 77 78 69 68 62 57 54 55 57 63 60 55 54 54 62 78 69 71 72 77 82 81 78 72 64 60 57 61 60 60 61 66 71 72 80 86
82 98 89 69 71 75 83 84 80 85 92 88 96 98 90 80 81 71 69 71 67 39 33 36 43 54 61 60 63 65 66 71 77 80 81 81 82 84 90 91 85 80 78 79 81 78 74 73 74 74 78 80 85 87
92 86 89 94 89 88 91 93 89 82 86 83 81 90 77 72 64 70 73 38 32 37 45 53 61 68 71 67 68 75 72 75 80 80 76 68 70 75 76 91 95 90 90 86 86 89 92 93 90 89 91 92 90 94
95 85 85 100 100 96 89 81 80 83 73 83 76 80 77 76 73 64 39 45 52 56 60 55 54 66 67 70 69 76 75 79 100 100 96 88 82 80 78 78 83 84 91 88 83 88 96 96 94 94 96 99 100 99
97 90 95 100 90 96 95 92 91 92 82 77 74 83 83 82 57 55 55 55 53 53 58 68 75 82 85 93 92 85 76 90 94 98 96 93 92 94 95 98 97 95 96 95 95 92 86 87 84 78 82 93 98 96
88 90 92 95 94 96 96 93 94 78 94 96 97 92 87 92 71 67 57 56 61 76 76 78 77 79 89 92 100 100 94 88 91 92 99 100 98 92 96 98 97 96 97 99 97 99 100 97 88 84 94 100 97 97
94 100 92 98 100 96 94 98 100 100 99 97 94 97 93 91 87 82 60 61 78 83 86 89 87 86 85 87 91 98 100 100 99 98 98 95 93 98 97 92 96 96 97 97 97 98 96 93 95 100 100 96 96 98
97 100 100 100 100 100 95 91 95 94 93 97 94 97 97 94 77 75 55 56 69 83 89 80 79 81 80 80 88 92 96 98 97 100 100 100 100 98 91 92 93 95 96 96 96 96 96 95 96 97 97 97 97 96

GFSWCAN_925_rhum_063.txt.gz
RH
85 97 98 98 97 98 100 100 94 80 82 61 50 58 57 48 46 56 82 63 49 53 67 56 54 51 49 45 48 54 64 65 81 72 65 57 54 49 51 47 51 54 58 56 57 70 66 49 51 56 55 43 42 41
92 94 99 99 99 99 100 97 91 61 95 61 58 60 53 53 53 60 72 73 60 53 68 66 67 71 68 63 49 61 69 69 74 94 68 61 62 57 53 62 50 62 54 54 51 55 50 41 46 47 42 47 48 50
88 97 100 98 100 100 100 100 75 88 84 71 66 67 58 54 54 62 76 67 54 58 57 55 64 69 71 75 70 58 65 68 64 70 71 74 73 67 58 56 58 56 56 61 62 55 54 39 41 42 41 50 53 49
98 94 100 99 99 100 98 99 94 89 80 95 95 84 63 58 52 50 66 63 60 47 57 65 62 63 70 73 74 68 64 63 58 65 66 64 68 61 56 61 60 55 56 54 50 38 38 37 40 43 53 56 55 52
100 97 99 96 99 100 97 95 90 86 93 96 97 90 58 52 52 49 51 55 56 65 62 66 60 68 70 71 72 66 57 53 52 63 68 70 64 64 55 54 52 48 48 50 42 48 55 52 49 58 64 65 58 68
99 99 98 97 100 100 98 96 91 87 92 96 90 60 59 52 49 62 66 56 54 64 78 78 65 69 67 67 63 63 62 59 60 55 60 60 58 69 60 47 38 44 45 50 60 59 66 66 64 61 69 75 74 71
98 95 95 100 99 98 92 94 89 89 95 94 83 64 61 55 53 74 79 79 51 58 68 88 81 69 75 66 63 62 62 65 60 64 60 55 57 65 60 51 36 38 43 52 57 65 74 68 74 70 76 77 76 74
96 99 98 98 99 97 96 93 94 90 100 100 84 62 54 49 67 77 84 59 49 62 68 90 86 77 73 66 70 64 63 63 70 66 63 58 58 57 63 40 40 42 45 48 57 59 66 68 72 70 75 80 82 83
88 99 96 100 98 95 98 96 91 98 98 98 78 55 54 64 69 88 67 57 49 69 79 75 79 75 64 67 73 69 61 65 65 66 61 64 56 73 49 42 37 41 48 50 50 55 58 68 73 77 78 79 84 85
94 94 100 100 94 99 97 94 96 96 96 62 58 67 84 99 83 70 69 67 75 69 68 76 69 71 66 68 78 78 70 71 84 65 64 70 67 47 45 44 45 47 51 54 81 79 72 78 72 72 86 81 80 80
97 98 98 100 98 96 98 97 98 90 67 62 79 94 100 99 83 63 79 73 53 71 66 70 70 68 69 77 75 72 81 81 88 80 77 75 71 52 45 46 46 44 45 47 50 54 60 62 74 76 84 84 84 87
94 100 99 100 100 100 99 99 91 68 60 69 83 93 88 68 73 68 74 67 62 62 72 64 66 63 76 77 70 82 80 82 86 77 86 90 66 76 69 59 50 43 44 47 49 52 56 56 60 65 76 88 87 92
96 100 98 100 100 100 98 90 72 54 63 65 70 83 71 69 59 58 58 64 73 76 85 75 79 68 79 72 75 77 82 80 79 80 81 71 68 49 49 65 63 57 51 50 58 62 62 63 64 71 74 78 81 81
100 100 97 100 98 96 96 73 51 55 49 79 76 54 69 62 64 64 64 82 76 79 77 68 76 75 73 77 72 77 67 75 78 77 79 70 67 60 54 52 53 61 60 62 71 78 81 81 78 82 83 82 84 86
100 100 99 100 100 97 79 64 55 40 56 76 81 54 66 80 82 86 89 83 79 68 71 77 77 67 85 84 67 74 77 82 67 69 76 68 63 65 63 58 54 58 62 69 69 77 82 85 82 78 83 86 92 99
100 100 99 100 98 82 71 58 49 47 77 89 81 81 73 81 87 83 87 90 77 69 68 67 77 77 83 75 78 82 79 77 72 83 65 51 62 64 58 53 50 53 55 54 56 64 75 82 82 83 87 89 92 98
97 96 100 97 87 69 56 44 51 85 90 85 86 66 75 75 78 76 53 60 65 66 74 72 59 65 76 82 78 67 80 71 73 62 53 54 63 51 49 54 57 57 58 53 63 68 72 74 83 91 89 83 86 100
93 100 100 89 67 52 50 60 83 86 83 88 81 80 63 62 65 64 69 67 67 65 70 70 67 75 67 65 63 67 72 87 77 66 56 53 48 47 50 55 58 62 64 72 75 74 73 78 80 67 74 84 91 99
98 99 88 70 52 47 88 83 82 90 97 88 83 78 76 78 77 70 69 70 66 59 75 74 65 70 59 59 68 80 75 64 48 42 43 44 46 48 52 62 73 77 78 78 71 60 56 64 64 71 77 83 86 94
96 84 70 53 38 74 88 88 80 88 92 88 83 86 87 89 84 80 81 75 74 85 74 74 57 48 42 47 66 60 57 51 48 47 38 32 37 46 62 67 67 70 78 74 70 64 62 59 57 54 60 69 76 84
84 74 60 43 73 83 83 88 93 90 90 89 88 84 94 88 95 95 93 87 87 83 78 59 49 47 53 49 50 52 52 52 49 45 38 48 44 55 62 67 73 69 70 63 52 53 58 79 85 80 60 71 79 88
86 59 60 78 88 89 91 89 89 83 88 91 87 82 86 86 91 94 94 91 87 78 71 60 60 59 57 59 54 60 57 57 56 57 56 59 63 58 56 57 63 67 72 70 65 58 63 76 80 63 65 67 74 86
52 46 77 85 87 84 97 90 87 87 84 89 89 81 88 89 92 88 89 83 80 72 73 74 77 72 73 63 59 51 49 58 59 52 49 49 51 53 58 66 59 66 76 74 70 69 70 72 60 57 58 66 72 75
51 88 91 92 86 94 79 91 78 84 82 75 74 82 86 89 87 88 76 74 67 67 69 79 74 61 61 68 59 50 44 52 56 57 55 56 62 60 55 55 56 59 63 65 70 69 66 64 60 60 60 66 73 76
70 88 84 87 82 81 88 88 85 74 80 83 78 86 90 89 84 84 74 78 76 66 67 63 60 59 53 50 50 46 47 52 60 63 59 60 62 64 67 71 70 68 69 74 76 77 74 72 70 70 67 71 75 77
84 93 76 78 83 78 80 78 76 82 81 85 89 89 90 86 81 75 73 77 66 70 67 61 54 50 51 51 58 58 59 66 75 77 73 72 76 79 85 86 84 81 80 85 88 86 82 77 75 75 76 73 74 77
87 94 83 62 67 72 73 72 69 73 79 81 88 92 84 78 73 68 64 64 66 50 43 49 55 65 67 69 69 71 74 77 86 89 89 87 91 94 97 95 91 94 95 97 100 100 99 94 90 85 83 86 87 87
84 77 87 86 80 77 82 79 78 73 78 74 74 80 75 66 62 72 72 50 45 44 50 56 59 61 66 67 74 76 79 78 72 71 75 76 79 76 78 78 85 98 100 96 99 97 98 100 100 100 99 96 94 92
87 78 79 91 87 82 80 74 74 72 64 75 73 72 72 69 70 66 52 50 54 58 62 64 69 68 67 71 74 83 82 88 94 96 92 86 80 78 82 85 89 95 100 100 100 100 99 100 99 98 97 100 100 100
89 85 83 86 81 86 93 89 87 84 73 74 70 73 71 73 66 59 61 62 68 66 71 73 74 77 87 93 91 83 77 78 93 98 95 93 92 95 92 95 100 100 100 98 96 94 93 98 93 90 89 89 92 98
83 82 85 86 94 94 93 89 88 72 86 90 90 85 82 87 74 66 60 59 72 76 75 83 83 83 86 93 96 96 89 82 86 90 97 100 100 96 92 98 98 100 98 98 97 96 98 100 100 97 92 95 98 99
85 92 86 91 96 94 89 91 94 88 90 87 87 90 84 83 82 77 56 57 74 81 85 88 83 83 80 81 82 85 97 93 93 95 97 97 92 87 98 96 90 90 95 96 96 96 97 97 96 96 99 96 96 97
94 93 93 95 96 94 91 87 86 86 85 86 87 90 90 84 75 71 49 53 56 72 78 84 80 72 71 74 76 82 87 94 93 100 100 100 98 98 97 97 93 85 94 96 96 96 97 97 96 96 97 98 97 95

GFSWCAN_925_rhum_066.txt.gz
RH
88 82 79 83 91 100 100 98 100 99 97 97 85 50 48 60 64 56 64 57 55 72 70 58 57 56 51 52 64 61 72 72 84 85 73 77 74 57 57 52 55 73 78 74 68 80 78 50 53 67 60 48 53 56
91 84 80 85 93 99 100 96 99 99 93 99 84 60 51 63 66 51 66 58 49 74 73 66 67 67 69 63 72 67 72 75 82 88 73 68 66 63 59 72 52 72 70 74 63 73 55 42 55 48 49 55 62 66
91 87 82 85 94 100 100 86 100 98 89 98 98 72 55 55 60 52 67 53 53 70 72 67 70 65 70 72 65 75 75 68 70 76 83 84 76 75 73 72 60 60 60 71 69 61 54 44 48 49 61 67 66 63
94 89 85 90 94 99 98 100 99 97 90 98 94 66 68 60 57 50 60 61 54 70 81 76 59 66 68 69 68 63 66 61 64 80 85 70 76 68 76 72 71 66 61 58 60 51 47 52 58 67 68 65 67 66
96 90 87 94 91 98 96 100 95 88 92 99 97 76 71 81 62 54 57 60 61 76 84 82 65 67 68 68 66 59 54 56 67 86 94 89 76 78 63 64 68 59 57 63 72 69 69 63 69 68 73 72 72 75
96 90 90 94 95 91 98 98 90 91 96 95 92 90 78 54 42 52 81 53 51 48 91 94 69 66 64 62 62 62 62 67 73 74 75 73 61 84 82 64 52 51 50 55 64 61 70 71 66 69 74 75 76 75
94 89 98 98 76 93 100 92 89 92 98 94 92 90 75 54 48 87 88 54 58 59 90 91 95 76 71 67 66 70 63 76 78 76 73 69 71 84 81 69 48 49 46 55 58 67 72 69 79 73 72 73 76 78
91 91 99 71 90 100 98 93 93 98 100 98 97 88 56 48 60 68 59 48 42 58 93 94 96 90 74 66 77 71 74 76 85 80 74 71 73 71 85 55 45 47 46 51 54 55 62 63 64 70 68 76 77 78
90 98 92 78 100 99 95 93 100 98 95 92 75 57 47 53 76 61 52 45 44 63 92 97 94 97 73 71 74 78 74 80 78 83 75 74 73 91 65 47 48 50 52 56 58 63 68 66 68 71 71 76 75 73
92 95 74 86 100 98 93 98 100 90 65 54 51 65 92 97 65 65 62 82 90 92 92 95 91 94 80 73 78 74 74 72 83 84 79 82 86 57 53 56 57 57 54 54 82 82 78 84 82 77 76 74 73 74
95 86 76 99 99 100 95 100 98 82 58 66 90 98 100 87 79 73 90 87 85 88 91 92 90 92 77 78 77 74 75 77 86 92 92 71 90 70 57 57 51 48 45 48 50 55 62 68 80 80 74 70 73 74
92 87 89 100 98 94 100 99 87 65 56 66 82 88 86 85 88 69 89 81 78 85 83 86 80 84 83 83 68 82 77 81 84 85 84 86 96 86 76 66 60 59 55 55 50 55 60 64 65 69 72 77 80 76
89 85 99 94 98 100 100 88 68 58 59 69 74 82 83 80 74 49 58 82 91 92 95 91 93 85 79 69 71 72 77 82 87 87 79 91 74 56 59 72 64 59 56 55 63 63 68 73 73 77 78 76 81 77
84 99 100 94 99 99 89 76 67 62 61 89 73 43 68 71 74 86 88 93 96 92 87 88 91 92 76 77 72 80 74 78 81 84 86 92 72 70 65 61 65 69 68 72 77 72 79 83 85 80 80 77 83 85
94 100 100 100 100 95 92 67 68 45 62 76 80 59 80 91 94 97 96 94 94 86 90 91 93 84 85 92 82 86 78 92 88 89 98 91 75 71 74 70 69 70 82 86 63 71 71 73 84 83 76 74 84 89
96 100 97 100 100 98 79 82 54 46 78 89 86 85 79 88 96 96 93 94 92 84 91 92 90 90 92 91 88 91 88 90 90 96 92 71 70 67 68 64 60 57 61 62 60 58 62 67 75 75 76 78 85 87
97 96 99 100 98 84 75 48 48 86 90 86 96 78 89 81 92 92 69 78 74 88 94 93 72 78 91 94 88 86 92 91 95 93 90 64 65 66 61 57 58 61 64 64 63 64 68 67 68 78 90 73 69 80
91 100 100 98 88 75 59 56 82 87 91 96 93 93 73 78 76 80 79 75 86 90 92 84 85 88 87 77 87 91 92 95 95 92 87 67 61 54 52 59 58 60 65 70 74 74 76 74 71 73 64 63 73 81
98 100 97 80 62 51 88 84 85 95 100 96 92 92 89 86 80 77 79 73 71 72 84 92 78 86 88 89 90 94 94 92 68 57 56 48 47 49 47 48 55 67 69 71 79 83 77 64 59 59 69 62 65 70
100 96 76 56 40 71 87 94 78 90 97 95 93 95 95 96 90 91 91 90 92 94 79 77 70 65 60 72 92 91 89 72 66 67 63 55 40 40 43 51 60 61 70 76 76 72 73 71 56 61 68 69 61 67
96 82 60 47 67 80 91 96 96 96 94 95 97 94 98 96 97 96 98 96 94 92 86 87 70 62 55 54 52 53 58 57 68 68 63 75 47 49 53 54 58 69 78 68 72 68 64 64 61 57 79 72 53 63
93 57 53 67 89 89 93 90 92 90 93 96 94 94 96 96 98 98 98 97 95 94 92 88 87 84 70 61 60 56 55 55 53 58 59 56 74 82 70 60 62 76 76 76 76 81 80 78 71 69 82 63 57 60
56 40 76 86 88 82 97 92 89 92 84 94 97 88 96 96 98 95 96 95 95 88 82 85 80 74 72 60 56 44 42 48 65 60 58 55 53 52 54 58 61 72 83 69 65 68 75 74 71 71 69 62 61 61
36 90 94 95 86 99 84 95 82 90 91 90 86 88 94 97 96 96 86 92 93 78 86 85 74 83 69 67 85 53 45 51 55 57 58 60 75 69 61 61 61 63 66 69 71 74 77 79 79 79 76 69 67 71
71 91 89 92 90 84 88 90 94 87 90 90 81 94 96 98 93 89 84 91 92 91 92 71 69 82 83 87 66 50 54 59 66 86 71 70 72 79 79 78 80 81 82 93 97 98 97 92 87 84 80 78 77 77
90 95 86 84 88 77 90 83 89 89 86 89 96 97 98 95 80 70 89 91 90 90 90 85 86 82 86 62 84 71 64 70 76 90 81 80 88 95 94 89 87 84 97 92 97 100 100 98 98 98 97 92 86 81
89 96 79 65 75 76 81 81 75 82 82 83 94 97 92 70 73 80 87 77 86 51 47 44 50 62 78 67 66 70 72 72 78 83 78 73 82 94 100 95 92 91 95 98 99 100 100 100 100 98 99 97 96 94
84 83 82 93 92 92 86 84 83 81 91 86 81 82 64 60 62 86 91 61 55 47 53 55 55 58 67 69 72 75 74 76 70 68 68 70 92 75 84 77 80 96 100 96 100 97 100 100 100 98 97 97 96 97
92 88 88 93 88 86 92 89 90 88 74 90 84 86 80 88 85 82 58 54 56 55 58 61 72 67 65 65 67 78 78 83 100 100 99 97 92 79 84 86 89 90 95 100 100 99 98 98 98 98 98 98 96 96
92 92 85 86 86 98 100 98 98 94 81 81 77 92 89 87 73 60 58 57 62 61 63 69 73 74 77 81 82 75 77 83 94 98 100 99 96 97 92 91 92 94 97 99 97 94 95 95 94 95 96 95 94 98
90 90 88 92 99 100 98 94 92 74 93 96 96 93 93 94 67 64 58 59 61 69 74 80 80 81 85 86 93 98 92 88 89 94 100 100 98 88 87 90 99 98 95 96 96 96 97 95 96 96 96 97 99 97
90 93 90 94 100 97 96 97 97 97 96 96 95 95 93 93 78 91 53 54 74 78 80 86 87 81 77 77 79 82 96 91 92 93 99 97 94 94 97 99 99 96 88 95 95 96 96 96 96 96 99 98 98 97
93 95 95 95 97 96 96 91 90 90 93 96 95 98 98 93 69 80 48 53 51 64 77 79 83 73 67 72 73 78 83 88 91 98 100 100 100 98 97 94 97 95 91 96 96 96 95 96 97 97 97 97 97 97

GFSWCAN_925_rhum_069.txt.gz
RH
90 89 87 88 88 84 95 93 99 98 99 97 92 89 98 87 94 51 58 61 61 91 84 77 76 74 62 70 84 68 75 78 88 86 81 86 78 66 67 63 73 77 85 83 81 90 90 53 60 65 65 61 66 67
90 93 90 88 88 86 96 98 100 99 97 98 91 89 96 98 78 49 62 57 54 82 82 70 72 73 73 71 77 79 79 84 89 90 85 81 75 76 74 80 59 76 70 75 72 75 57 52 64 67 68 73 74 74
93 95 92 90 90 88 90 98 99 99 99 94 88 94 87 91 63 54 57 53 58 84 78 77 76 67 68 68 64 84 83 74 78 84 90 88 80 85 82 84 71 67 64 79 68 63 57 74 76 74 72 74 71 73
96 96 95 92 91 90 83 97 99 95 93 91 95 95 97 87 61 54 51 56 52 79 90 86 66 70 69 65 61 63 71 66 74 88 90 85 84 76 83 77 77 74 66 66 67 62 69 80 79 76 74 73 75 73
98 99 94 93 92 93 82 97 100 90 92 99 89 84 84 70 59 52 58 62 62 67 95 91 72 67 65 65 61 58 60 70 81 89 96 91 86 81 76 71 80 70 71 74 73 72 70 70 76 76 78 79 77 81
99 98 94 95 92 95 76 94 99 86 93 94 88 82 83 68 56 44 63 52 48 50 90 98 73 72 65 64 64 67 68 80 84 84 86 82 69 88 83 79 56 60 61 60 77 67 76 72 70 72 77 80 79 82
98 95 95 95 94 93 77 100 87 88 95 93 91 89 82 62 56 78 71 58 58 48 89 97 99 82 75 72 78 81 73 86 85 84 81 80 79 90 88 77 54 56 63 69 69 66 74 73 76 74 77 77 76 78
96 96 95 94 96 84 75 100 87 94 96 90 82 78 60 50 54 57 58 52 52 67 89 95 98 91 73 81 90 83 84 87 89 88 81 79 77 80 84 68 58 57 62 61 62 61 65 66 65 69 67 71 83 85
97 95 96 96 90 78 83 98 95 97 96 85 72 74 66 62 68 50 47 52 55 48 93 93 95 96 74 80 78 85 84 88 84 88 83 78 82 88 67 61 64 61 60 61 61 68 71 73 79 80 81 81 82 80
94 91 93 91 79 90 100 94 99 92 81 76 69 70 77 84 71 58 65 70 88 93 90 95 96 97 83 79 78 80 80 92 90 87 81 83 88 70 66 67 64 61 56 54 82 73 75 79 78 79 80 78 84 81
90 87 95 78 100 100 96 98 91 77 75 64 90 98 96 76 68 75 84 71 87 88 95 97 91 95 83 89 86 78 79 79 87 91 92 79 87 67 62 59 56 54 52 53 54 58 64 71 82 81 77 72 73 76
87 86 86 92 100 94 99 94 80 70 64 64 76 83 74 79 84 60 87 77 80 84 91 90 90 92 88 83 90 82 79 81 78 88 81 85 96 80 64 57 55 62 58 60 56 61 63 67 69 78 82 83 82 78
83 84 81 97 98 100 95 84 65 62 56 66 71 81 74 76 50 40 45 78 91 96 97 94 98 94 87 72 71 70 79 84 80 77 79 76 88 63 63 80 66 61 62 64 67 64 66 71 70 76 83 78 79 83
79 88 82 83 87 100 94 77 70 65 52 81 67 47 60 59 71 78 76 84 94 94 86 91 96 92 80 80 70 94 76 77 88 89 87 92 70 68 68 64 68 69 72 74 76 70 75 76 74 70 70 68 77 82
86 88 88 100 100 96 94 75 69 59 61 67 71 43 79 88 99 99 98 94 98 89 91 93 95 88 92 93 89 87 83 99 90 89 87 97 84 76 66 71 75 76 85 83 66 72 71 67 73 74 62 62 69 71
87 92 99 100 100 97 93 73 60 44 80 88 87 84 88 94 98 97 93 87 96 89 94 89 93 92 96 93 93 94 90 94 84 97 95 80 71 66 70 68 64 61 64 67 66 68 69 71 74 73 68 59 55 65
95 100 100 100 100 97 76 56 51 90 90 84 91 87 92 92 96 96 84 85 85 86 87 87 63 69 92 95 92 92 90 86 95 95 96 77 65 65 67 61 56 56 62 61 63 65 72 72 76 83 87 51 55 66
97 100 100 100 98 75 61 60 89 89 96 98 92 97 89 88 83 84 84 83 86 94 90 74 87 82 81 68 87 89 94 96 97 95 92 76 66 61 57 60 52 55 59 60 61 64 67 78 88 82 66 53 60 70
100 100 100 97 71 51 82 82 78 97 100 98 97 97 94 89 85 82 80 78 80 81 83 86 70 81 82 91 89 95 97 96 69 57 63 54 50 54 51 49 51 54 58 60 65 75 77 78 83 82 79 72 79 70
100 100 97 62 39 70 87 94 76 90 95 96 95 98 99 99 95 94 93 94 95 91 68 69 60 67 68 76 94 94 95 82 74 66 62 60 45 46 50 56 57 53 61 68 74 74 78 78 72 71 72 76 78 84
100 99 73 47 75 79 91 94 98 96 96 95 98 97 99 96 97 98 97 98 87 92 79 92 74 68 64 61 55 56 60 62 69 71 68 80 60 62 63 59 58 64 76 77 78 75 75 79 79 80 81 83 83 82
97 76 58 57 86 89 93 90 92 93 92 95 95 94 96 96 97 96 98 94 95 94 95 93 92 89 72 64 62 56 54 55 58 61 62 64 78 76 69 65 70 76 75 75 78 83 80 76 79 82 81 82 79 76
75 50 75 78 83 78 95 93 88 92 76 94 97 89 95 95 96 94 89 96 95 94 90 89 84 75 71 64 54 43 45 50 60 60 58 62 65 67 68 71 70 79 82 80 76 81 88 87 89 93 90 84 86 80
47 88 92 92 86 100 87 96 88 93 94 94 88 90 94 94 94 92 74 94 94 89 89 86 74 86 71 65 82 58 54 57 61 64 69 74 83 79 79 83 84 86 90 97 98 98 97 96 91 89 94 97 92 89
64 91 86 98 93 85 88 94 95 84 91 95 84 86 91 95 90 84 76 88 95 93 94 85 80 89 79 88 77 58 64 70 80 93 78 76 93 93 86 88 86 88 98 95 97 98 97 98 100 99 99 99 97 97
86 94 86 82 90 74 85 84 84 90 92 88 93 95 95 91 69 58 85 90 92 92 92 82 81 88 86 76 87 76 76 80 75 82 74 81 90 100 96 87 88 87 80 89 100 98 97 98 98 99 99 96 95 97
90 94 81 71 74 75 80 86 86 80 74 75 91 94 81 62 64 70 89 89 86 65 44 48 48 58 75 68 70 70 70 70 76 78 73 74 84 98 100 93 96 89 95 98 98 99 100 99 98 98 98 97 96 97
87 82 72 91 91 93 87 90 78 75 91 87 76 76 57 57 61 81 87 73 57 48 50 55 57 63 65 66 62 61 63 74 66 62 59 64 73 78 92 79 81 89 98 94 99 98 98 98 98 97 97 98 97 96
96 90 87 94 91 92 95 84 85 92 78 87 76 84 78 90 90 88 68 58 56 57 59 64 71 67 65 64 65 69 75 80 84 100 100 97 94 79 84 84 90 94 96 94 100 99 99 97 98 97 98 99 97 97
94 94 90 92 89 93 98 98 98 94 84 84 80 92 92 94 76 66 60 60 61 55 58 66 69 68 72 72 76 70 79 86 90 96 100 100 98 94 93 97 100 99 95 100 99 93 94 96 90 90 93 94 95 97
94 92 90 91 97 98 97 94 94 76 94 95 95 91 92 93 71 69 61 63 59 65 69 75 76 77 80 80 83 90 84 84 90 95 99 100 99 93 93 97 99 98 97 96 95 96 95 93 96 96 97 98 97 96
90 93 88 91 97 97 96 96 97 96 96 93 92 94 90 86 63 91 58 64 73 76 73 76 80 80 76 72 72 74 88 86 91 96 100 96 94 92 94 98 98 98 89 91 95 95 95 97 97 98 98 98 99 99
90 92 92 92 94 96 96 89 91 89 91 95 95 99 99 88 50 72 56 55 50 53 63 73 81 77 66 66 70 77 84 90 88 97 99 100 99 96 98 93 97 97 91 92 93 94 95 96 98 98 99 99 99 99

GFSWCAN_925_rhum_072.txt.gz
RH
93 92 89 90 90 91 91 96 92 98 99 98 99 91 84 82 92 52 66 63 60 95 88 82 81 66 66 80 87 75 75 77 89 84 82 84 79 70 73 68 75 79 87 87 86 93 93 54 60 65 66 70 71 70
92 92 93 91 94 93 93 95 87 99 99 98 97 87 89 91 82 56 59 60 57 85 86 71 72 74 74 71 82 86 78 87 88 90 89 85 79 80 77 84 63 76 73 79 76 78 64 77 71 73 66 76 74 74
95 94 94 92 96 93 93 90 87 100 98 97 92 86 83 98 86 59 56 57 58 87 78 78 77 66 65 68 67 84 87 77 83 85 90 90 78 87 85 85 70 70 69 80 74 65 82 85 79 75 72 73 73 74
97 97 96 95 96 94 94 82 92 100 96 96 86 88 98 86 62 54 51 54 48 80 91 89 70 71 69 61 60 68 73 73 81 88 90 88 83 80 86 79 81 76 68 75 73 83 84 83 79 78 77 75 76 77
99 96 95 94 96 95 95 78 87 100 92 89 89 95 94 79 64 53 55 62 46 65 92 93 73 66 66 59 59 58 63 75 87 89 95 92 89 82 82 76 81 73 74 77 79 72 73 78 79 76 75 79 82 87
99 96 94 95 96 97 91 79 89 99 86 97 89 81 75 72 58 45 60 57 49 52 92 98 78 77 68 65 67 74 75 85 88 84 90 86 75 87 85 80 63 65 66 65 79 69 75 73 80 73 76 78 80 84
98 96 95 96 97 95 85 93 98 93 98 89 84 78 82 71 62 73 66 66 56 44 91 98 96 82 79 75 81 82 78 90 84 87 83 82 80 90 89 78 62 65 76 78 70 73 77 72 73 69 70 74 73 76
98 97 96 96 96 92 82 100 90 91 90 93 92 75 72 60 54 60 72 69 65 63 87 96 98 88 72 86 86 88 85 87 90 89 84 80 78 81 80 68 64 67 66 62 62 62 63 64 65 70 70 74 82 84
92 96 95 95 96 88 78 91 93 92 92 88 73 68 63 61 60 56 59 54 50 50 91 91 95 97 76 90 86 85 87 88 86 88 86 78 85 88 65 65 62 60 56 59 61 63 65 67 73 74 76 78 82 86
91 88 94 92 92 82 76 96 94 95 89 69 66 74 78 78 70 53 56 66 87 91 91 98 97 96 88 91 86 90 83 96 95 91 81 81 90 72 70 68 66 63 56 55 80 66 71 84 75 76 76 82 84 85
96 89 90 88 91 90 70 100 96 91 74 65 82 92 85 71 65 78 82 67 83 84 95 99 93 99 84 91 87 80 82 79 84 88 88 94 92 73 63 58 56 55 53 53 55 59 64 72 84 82 80 77 78 77
91 87 89 93 93 88 79 99 89 82 62 58 71 72 64 74 80 57 78 76 81 81 94 94 94 93 90 84 91 88 80 77 84 89 79 85 91 79 67 54 52 59 58 61 59 65 66 69 71 80 84 84 77 72
85 87 94 80 90 98 100 90 86 59 59 61 69 78 77 75 42 41 40 73 99 99 100 98 99 93 84 80 82 81 85 89 86 82 85 88 87 70 71 83 63 61 61 64 67 65 66 69 66 72 78 70 71 75
87 92 86 82 100 100 88 90 68 60 58 77 67 50 62 65 69 70 72 84 92 95 89 95 98 93 86 88 84 86 83 82 96 95 90 92 87 69 69 64 67 65 70 73 76 68 74 74 74 68 68 67 71 74
89 91 86 100 100 92 93 83 68 58 56 75 68 47 82 85 96 100 98 97 99 86 93 95 95 87 97 95 86 89 89 100 91 88 89 94 83 76 65 65 72 75 89 88 69 73 67 65 75 76 67 68 71 68
88 94 93 98 100 97 97 79 63 47 84 85 82 86 89 95 99 97 96 94 97 89 94 89 94 89 99 94 92 92 82 83 79 94 94 87 77 68 68 69 69 63 62 59 57 59 62 67 72 77 78 74 70 62
92 85 94 94 98 100 92 66 51 88 90 80 90 88 92 95 97 98 85 83 87 79 81 82 56 65 93 94 93 92 86 82 88 96 96 80 60 60 65 66 61 54 54 55 57 58 61 59 67 79 88 71 72 70
87 81 76 83 100 98 79 68 88 88 95 98 93 97 90 93 90 85 91 88 82 94 87 66 88 78 74 64 82 86 93 96 97 94 93 78 73 66 61 66 58 54 54 55 56 62 64 72 83 85 82 81 84 82
78 84 100 100 97 84 94 87 76 96 100 97 96 96 93 92 90 85 81 80 85 84 80 86 64 79 79 88 84 94 97 97 78 58 63 58 54 55 54 55 59 61 60 61 65 70 75 76 82 83 80 82 91 88
93 100 100 94 65 69 90 97 76 89 92 92 91 98 98 100 95 91 89 94 94 85 63 66 57 57 64 78 92 93 94 85 72 57 53 53 49 56 64 67 67 65 70 71 71 73 79 81 75 73 77 83 84 89
100 100 97 79 79 85 90 96 96 92 95 97 99 97 99 96 97 94 94 95 83 92 76 94 76 72 69 70 60 57 64 62 65 64 63 81 62 71 65 62 63 71 79 76 81 80 79 84 83 82 86 92 93 92
99 98 98 68 90 87 92 89 90 92 92 95 97 95 95 94 94 93 99 88 92 95 95 93 94 91 74 68 64 55 56 58 60 63 66 70 79 84 76 76 83 88 87 88 90 93 95 96 96 98 99 99 97 91
100 85 79 88 88 80 97 93 90 93 77 87 96 89 96 95 94 95 89 94 94 95 95 91 87 77 77 65 50 48 53 59 65 65 66 69 71 78 82 86 90 95 96 93 98 99 97 88 87 88 88 91 96 94
89 93 94 93 88 100 90 96 89 92 95 95 88 94 96 90 93 89 68 92 91 93 92 90 77 88 70 60 82 61 63 67 71 74 74 79 91 92 89 85 87 88 100 98 92 92 93 95 92 94 97 99 99 100
90 96 89 96 96 88 93 98 96 86 93 94 84 93 93 95 84 74 68 86 96 92 95 91 84 90 76 88 80 65 73 78 86 94 69 89 86 88 91 87 84 87 99 83 98 100 98 97 98 99 98 100 98 98
94 95 84 79 93 73 84 80 84 89 90 93 93 95 97 88 65 55 80 86 91 91 92 78 74 86 87 74 88 80 78 82 74 82 72 76 85 100 97 92 95 87 82 95 100 99 98 98 99 99 97 96 95 97
92 93 82 72 76 77 83 86 82 83 86 85 90 91 78 56 55 68 88 94 89 65 44 41 43 49 68 66 70 75 73 70 68 66 66 73 91 79 99 95 98 89 93 98 99 100 100 99 98 98 99 97 95 98
81 78 80 88 92 91 86 92 89 89 91 81 71 65 50 53 61 81 86 71 65 49 53 55 54 58 63 64 62 60 64 67 62 59 63 67 71 76 85 90 94 100 99 94 100 99 99 97 98 99 100 100 98 95
94 87 84 91 89 92 97 93 93 87 74 81 73 77 74 89 94 95 80 71 59 49 68 74 74 68 65 65 67 66 69 68 70 93 97 98 93 78 84 86 90 92 94 92 89 100 100 98 98 98 100 98 97 97
93 94 87 91 90 94 98 94 94 91 81 82 78 93 93 96 83 83 73 73 62 56 52 60 67 69 70 68 70 70 73 80 84 88 100 100 95 91 90 92 96 95 95 95 98 94 91 94 88 91 94 95 97 96
96 91 90 91 98 96 95 91 90 75 89 92 94 90 94 92 74 70 65 61 59 60 70 77 77 75 74 70 69 79 78 81 88 94 96 97 93 94 92 98 100 99 100 95 96 96 95 94 95 95 95 96 98 98
92 94 88 93 96 94 91 93 95 92 92 87 89 94 90 82 67 89 62 70 76 81 72 72 75 76 70 63 61 63 70 79 86 90 97 95 91 96 98 95 99 97 93 93 94 94 95 97 97 98 98 99 99 100
93 84 92 92 92 92 96 86 86 86 89 93 93 99 98 84 53 70 64 66 56 58 62 68 77 76 68 61 61 68 76 79 80 89 99 100 99 97 94 96 96 92 93 93 94 94 94 96 99 100 100 100 100 100

GFSWCAN_925_rhum_075.txt.gz
RH
85 87 93 92 92 92 94 93 93 90 97 96 99 99 99 100 81 61 60 60 66 96 90 86 86 70 77 82 87 78 77 75 87 84 80 85 79 75 76 70 76 81 87 87 83 86 92 63 59 61 65 73 71 70
89 92 94 92 94 93 95 94 94 94 95 97 91 90 92 93 84 66 54 60 62 86 87 74 73 76 76 72 85 86 77 85 86 90 89 89 84 82 79 82 69 77 74 79 78 78 72 82 72 74 68 75 74 74
93 97 96 93 92 94 95 94 90 100 99 98 89 82 84 83 78 62 52 58 54 83 80 81 80 69 66 68 69 84 87 81 85 85 89 89 76 86 85 83 71 72 74 80 74 71 80 82 78 75 74 76 77 79
95 98 97 93 94 95 96 96 84 100 88 86 87 80 94 91 88 67 53 54 52 80 90 88 70 70 66 62 64 70 75 78 85 88 90 87 82 83 88 79 81 76 72 78 77 83 82 81 79 77 78 76 79 80
98 99 96 94 95 96 96 92 84 98 90 84 83 99 88 70 61 63 55 59 50 63 93 92 74 68 67 62 63 63 66 79 87 88 94 91 91 83 86 80 82 78 76 81 84 73 74 75 79 78 72 74 78 85
98 97 96 95 95 96 96 93 82 99 91 86 90 94 78 65 59 51 62 59 49 52 90 96 81 79 72 66 68 76 79 88 89 87 91 89 78 86 85 82 65 69 71 70 74 72 75 77 81 74 68 70 75 82
97 98 96 96 96 89 96 89 86 98 89 86 80 82 73 67 66 69 73 64 53 49 92 98 97 80 81 74 83 82 81 91 84 88 85 83 81 91 85 75 62 70 76 72 70 74 77 72 70 71 68 71 74 75
97 99 96 96 92 85 93 94 99 98 88 86 84 76 72 62 58 62 79 66 60 55 87 96 96 88 71 87 84 89 84 84 92 90 85 80 79 81 79 68 67 73 66 60 59 59 58 66 63 69 71 73 79 79
98 99 95 94 90 86 97 82 100 89 86 84 77 70 61 61 60 62 66 62 50 50 88 93 95 96 80 92 88 84 86 84 86 89 88 80 85 87 60 71 72 72 62 56 60 61 64 63 66 69 71 73 77 82
96 97 93 92 88 86 95 83 98 88 86 80 74 79 79 72 64 64 66 66 86 90 92 96 91 96 89 94 93 89 87 95 94 92 84 83 89 74 71 72 65 64 59 57 75 58 65 83 74 72 74 78 85 87
92 94 91 93 84 88 92 89 96 88 86 70 81 90 80 70 66 73 84 68 82 79 91 98 93 98 85 92 94 83 94 91 92 91 87 96 96 79 69 66 62 58 52 51 55 57 62 69 84 81 80 77 78 80
93 93 93 94 83 89 89 90 95 88 71 62 68 71 66 73 80 54 75 79 77 69 97 95 95 92 93 84 92 87 92 90 88 89 90 94 83 81 72 59 56 60 55 58 58 65 67 70 72 79 83 83 78 71
92 93 92 91 84 91 87 94 92 68 62 62 70 77 76 75 43 39 40 69 98 98 99 99 98 91 85 81 89 89 87 92 84 81 90 89 83 75 70 84 61 61 60 60 63 63 64 65 62 68 76 68 70 76
93 91 90 87 88 90 88 94 90 67 62 80 69 54 66 69 71 67 73 84 92 94 94 97 98 93 87 91 86 87 85 84 95 98 91 90 83 74 70 67 66 59 61 70 76 68 70 69 67 59 59 62 73 82
91 87 87 94 94 82 80 96 90 68 61 77 72 49 78 84 98 99 98 97 99 86 92 97 96 84 97 97 85 85 92 100 89 84 87 90 87 81 70 66 66 71 86 88 68 72 67 62 66 65 57 64 71 76
90 98 99 84 77 91 100 98 87 66 80 85 87 85 90 94 99 98 99 100 98 90 94 87 89 87 99 95 92 90 76 76 77 92 93 90 86 72 68 64 67 67 68 66 60 61 60 58 63 66 71 68 66 74
99 89 80 100 100 100 95 88 74 94 95 82 92 88 90 92 95 97 90 89 88 80 76 84 58 66 93 92 91 91 79 80 87 93 97 82 64 54 62 66 63 61 62 60 57 55 58 59 66 76 86 71 72 74
85 78 95 100 100 100 99 94 98 97 94 98 95 97 87 92 94 91 93 92 87 93 82 66 88 80 72 63 80 89 94 96 97 96 94 75 73 67 59 63 59 62 66 66 67 68 70 72 82 83 82 82 85 85
80 80 98 100 95 95 99 99 90 93 97 98 97 94 90 90 90 88 86 84 86 84 82 86 63 76 71 84 84 95 97 97 88 74 63 61 55 54 57 63 65 66 68 72 75 79 78 77 83 88 89 89 96 93
80 79 98 98 91 84 96 98 86 92 97 93 94 99 98 99 94 92 92 92 92 86 70 66 52 53 62 76 92 92 94 84 64 47 45 51 56 62 68 68 71 72 80 79 80 81 87 88 85 88 91 92 93 96
83 93 100 99 100 96 94 96 94 94 95 96 98 94 97 95 94 93 90 95 88 87 82 91 80 78 81 79 66 65 69 56 57 54 58 83 66 73 69 72 82 89 92 93 93 93 91 94 96 99 100 96 99 99
86 99 98 99 98 96 93 89 91 94 94 95 96 92 91 85 87 89 98 89 91 94 92 90 92 87 75 70 66 54 56 56 59 62 64 69 79 89 84 85 95 98 99 97 99 96 95 88 87 87 91 90 89 93
97 97 98 98 96 90 98 91 94 96 88 94 95 84 92 95 95 95 87 94 94 97 96 90 88 75 80 75 63 61 56 53 64 67 69 72 76 81 88 88 88 99 99 95 94 91 95 90 93 91 91 93 93 93
90 98 98 96 90 97 88 96 92 94 93 89 88 87 94 94 94 88 68 91 88 96 95 95 74 81 74 62 87 73 70 69 70 72 66 75 91 88 84 88 89 91 100 93 88 92 94 98 93 95 99 100 99 98
98 97 96 96 95 93 93 98 95 89 93 92 83 95 94 95 80 74 68 85 98 95 94 87 83 82 74 91 87 74 79 76 81 94 70 88 81 90 90 88 87 82 85 91 98 100 100 98 99 100 100 100 98 97
96 96 92 86 92 73 86 82 86 89 89 92 92 95 96 88 66 54 73 82 92 91 89 71 70 83 86 74 90 84 72 79 68 78 72 82 87 99 100 99 99 86 87 96 100 100 100 100 100 100 100 98 97 98
95 94 84 71 72 75 82 82 78 83 78 79 92 95 85 58 55 67 87 92 86 72 62 48 40 51 70 72 73 72 67 62 63 66 70 80 78 84 93 97 99 94 96 97 99 100 100 100 100 100 100 100 98 98
76 78 80 88 86 93 88 94 92 86 87 88 78 73 54 53 59 76 88 74 66 56 49 50 41 42 57 61 59 59 62 63 64 65 70 77 76 85 83 86 91 97 100 99 100 100 100 99 100 100 100 100 100 98
93 86 81 94 92 92 95 92 92 93 78 86 76 77 75 86 94 97 93 74 62 53 75 79 79 64 62 63 62 60 64 65 64 93 96 98 93 79 84 86 90 91 94 93 90 100 100 100 99 100 100 99 99 98
96 94 91 94 92 94 96 94 95 93 82 79 75 87 87 96 96 95 83 74 68 67 64 62 66 62 69 66 66 71 72 75 76 76 97 98 92 85 90 96 96 96 98 97 93 90 86 88 85 87 89 90 92 95
92 92 92 92 98 96 95 93 92 79 88 89 89 89 91 93 73 82 78 69 58 62 69 80 78 70 68 68 68 77 80 78 81 84 84 84 86 92 98 97 100 99 97 94 93 94 92 91 93 94 94 95 95 98
91 93 89 96 97 96 95 94 92 87 85 83 84 92 90 86 82 90 66 69 70 82 71 67 71 72 70 65 60 60 66 68 76 80 82 85 85 98 96 93 96 91 90 91 93 92 93 94 95 96 97 98 99 99
92 87 91 94 96 94 94 87 84 80 85 86 90 100 98 83 67 74 70 67 57 57 56 60 68 69 68 63 59 65 70 72 74 74 91 100 100 99 98 93 98 95 91 92 92 92 93 95 96 99 100 99 100 100

GFSWCAN_925_rhum_078.txt.gz
RH
82 79 89 93 94 92 94 94 96 95 95 84 96 98 86 71 61 49 61 63 67 97 88 86 86 78 78 78 84 78 76 74 85 81 79 84 80 79 78 70 76 79 84 86 80 79 90 74 61 58 64 73 70 70
84 82 93 94 95 93 91 96 92 93 92 82 93 97 87 74 66 58 52 58 63 88 86 75 74 76 80 76 86 86 76 83 84 89 88 90 84 84 80 80 73 78 74 79 80 74 72 80 74 74 72 76 74 72
88 87 94 92 95 94 95 95 88 100 80 84 86 93 87 80 76 65 50 54 54 83 83 82 82 68 66 69 71 81 86 81 85 85 89 86 75 83 83 83 73 71 76 78 74 71 74 79 77 75 73 76 78 79
90 94 93 94 97 96 96 95 86 100 90 84 88 77 74 77 70 60 52 51 56 79 88 86 71 69 69 64 68 71 75 81 84 88 90 86 78 84 86 78 80 76 76 80 81 73 82 83 81 76 79 75 78 79
88 93 92 98 96 96 94 92 90 79 99 89 91 89 82 80 77 66 58 54 52 63 92 89 74 70 68 64 66 66 69 80 87 88 94 91 92 84 87 83 88 82 79 84 82 70 74 70 78 79 69 67 74 83
87 94 96 99 94 94 90 89 87 78 98 92 92 93 70 60 60 56 69 59 53 54 88 90 81 79 73 66 69 77 80 85 88 87 92 90 80 87 86 87 67 71 73 72 68 73 74 79 80 75 67 68 73 79
89 94 94 99 99 90 90 91 88 88 90 92 95 86 71 63 58 63 70 65 56 54 88 98 94 78 79 73 84 82 79 89 85 88 85 83 83 90 86 79 61 72 76 74 74 75 75 75 72 75 66 70 74 72
95 96 98 98 98 88 87 86 88 93 87 87 78 80 68 60 58 60 73 64 53 55 87 96 95 88 72 83 79 90 82 81 92 90 85 79 79 81 83 70 66 76 70 60 58 59 58 69 64 63 66 70 72 75
96 96 99 97 96 85 86 86 99 95 94 84 76 67 57 53 60 69 72 63 53 53 89 93 94 95 80 91 88 83 85 77 85 87 88 80 81 84 60 67 77 79 65 56 62 62 64 58 59 61 65 67 72 77
96 97 99 93 92 84 82 85 100 95 95 78 74 71 77 72 67 65 67 69 84 89 91 94 96 97 89 94 92 88 87 92 90 88 86 88 88 71 72 72 69 69 66 60 69 50 61 76 64 66 69 76 82 85
94 97 97 93 90 87 81 84 100 96 89 76 81 89 82 75 63 73 82 68 80 79 90 95 94 98 83 91 93 85 94 95 95 90 89 94 95 83 72 72 70 65 56 52 51 54 58 67 84 79 78 75 76 78
93 93 92 91 90 89 82 83 99 89 77 68 71 72 70 73 78 55 78 80 82 65 97 96 94 91 94 85 91 88 92 92 89 92 94 97 84 80 75 64 59 60 53 53 56 60 63 68 71 76 80 79 72 67
90 92 93 92 91 90 84 85 99 82 67 63 68 77 83 78 50 51 43 70 92 95 98 99 98 93 90 83 91 90 89 92 89 88 94 89 79 77 77 79 56 61 61 60 60 61 63 65 61 66 69 62 64 71
94 92 92 90 90 87 87 85 100 85 61 84 78 66 70 73 74 69 67 78 92 95 96 95 98 93 87 91 86 90 83 80 98 100 88 89 76 76 76 69 65 57 56 64 76 71 72 70 64 55 61 60 68 78
94 92 91 91 93 87 95 85 100 84 62 86 84 65 83 80 97 99 98 98 99 88 92 95 96 84 98 96 86 84 93 100 88 75 85 89 86 85 75 71 69 65 85 85 71 75 68 64 70 66 58 60 66 70
94 94 96 88 85 90 97 98 100 99 82 87 84 79 90 93 99 100 100 99 98 90 92 85 94 90 98 93 93 84 74 71 70 91 91 90 89 78 69 63 62 65 68 69 68 68 67 67 71 69 69 68 65 70
96 98 87 89 87 94 100 97 99 99 99 95 91 90 91 93 94 96 90 92 89 80 78 85 53 55 92 91 83 90 74 76 88 92 97 85 76 61 66 66 60 62 66 70 72 69 73 69 75 80 87 75 80 84
100 90 82 86 96 97 100 99 98 98 97 97 95 95 87 88 90 89 90 88 82 85 81 64 89 86 73 58 75 87 93 96 95 97 95 78 76 62 56 62 64 67 71 75 77 79 80 82 90 90 90 94 96 92
96 86 86 92 96 96 99 99 99 97 94 96 99 96 90 86 86 85 89 85 86 79 82 86 62 72 68 80 83 94 96 97 92 88 71 64 56 57 63 66 70 76 82 84 86 91 90 92 95 95 98 99 97 97
92 96 95 99 90 99 98 98 96 92 98 95 97 98 96 94 89 88 89 89 85 85 63 60 50 50 57 71 91 88 94 78 61 48 49 58 62 68 71 74 82 89 89 85 89 88 88 92 85 91 95 85 90 91
100 100 100 98 98 98 98 97 97 92 97 96 98 93 94 89 88 89 90 91 84 83 80 88 77 80 83 83 75 72 66 47 46 41 46 80 68 74 73 81 94 90 94 95 98 93 89 90 88 93 94 93 95 93
99 100 99 99 98 98 97 91 92 93 93 97 95 92 90 86 85 88 95 85 85 88 90 89 93 88 73 71 68 53 54 54 60 68 74 70 80 94 90 96 90 100 99 98 100 97 93 93 91 92 92 90 92 92
97 97 99 98 97 96 96 94 91 96 92 95 96 93 94 92 90 93 83 88 88 97 95 91 87 78 83 79 64 59 52 50 68 70 72 76 81 83 81 78 87 97 100 93 91 91 95 93 94 92 93 96 96 95
88 96 97 97 96 96 95 96 95 95 95 95 93 87 90 92 91 87 70 88 90 98 96 92 75 77 81 71 90 82 68 65 72 72 69 76 93 81 81 85 89 94 99 95 91 93 95 96 95 97 100 100 98 100
92 97 92 96 96 95 96 97 97 94 94 94 89 90 91 94 83 78 67 85 100 96 90 87 86 72 71 93 94 82 74 69 69 92 79 82 74 83 84 84 86 81 88 96 99 100 98 96 98 99 100 100 98 97
95 96 92 92 95 85 92 91 89 88 87 92 88 93 94 90 73 54 67 80 91 88 81 68 64 77 82 76 84 92 77 78 66 71 83 81 78 89 99 100 98 87 98 100 100 100 100 99 100 100 100 100 98 98
94 96 94 79 76 78 84 82 78 81 84 84 92 94 93 72 57 65 85 88 87 83 67 57 46 56 68 81 71 67 69 68 66 64 68 75 76 85 88 94 99 92 100 100 100 100 100 100 100 100 100 100 98 98
94 88 88 90 92 94 81 82 79 73 89 86 72 80 73 57 56 81 88 80 78 70 58 49 40 34 46 59 60 65 71 69 64 66 73 78 78 86 82 88 94 99 100 97 100 100 100 100 100 100 100 100 99 98
89 87 85 96 96 94 94 86 89 96 83 75 73 75 74 91 96 95 94 88 79 61 74 81 81 63 63 62 63 62 61 58 62 88 91 96 92 86 85 97 97 95 93 88 89 99 100 98 100 100 96 97 98 97
93 96 91 94 89 92 96 95 96 94 81 79 77 90 90 93 96 97 91 84 69 64 67 67 70 61 76 69 77 75 67 62 62 64 92 96 84 87 95 95 89 88 90 90 90 87 83 87 86 88 88 89 91 95
95 94 93 94 99 99 96 94 93 83 91 95 93 94 94 94 84 87 82 74 67 67 72 83 76 63 66 69 67 78 85 68 69 72 76 82 92 98 91 91 90 89 90 90 91 89 90 91 93 93 93 94 96 98
95 93 92 96 98 96 96 96 95 92 92 91 88 92 90 87 87 91 75 70 77 78 68 73 74 71 62 63 60 53 50 52 64 72 78 85 95 100 96 91 90 91 89 89 90 91 92 93 93 95 97 99 100 100
95 94 95 94 97 98 97 93 90 84 86 84 82 83 82 82 74 76 75 69 59 62 59 51 51 57 64 63 55 55 60 64 69 73 81 95 99 98 99 89 92 95 90 89 90 91 92 92 94 98 99 100 100 100

GFSWCAN_925_rhum_081.txt.gz
RH
82 79 88 90 94 95 96 95 96 82 93 94 85 80 67 58 46 44 64 62 66 96 88 84 84 85 78 82 81 78 76 74 83 79 77 83 80 81 78 70 75 77 83 84 81 85 87 71 63 60 63 72 68 70
78 84 88 88 92 96 94 96 88 90 90 90 88 86 84 71 59 45 54 59 62 87 85 75 76 76 79 78 86 86 73 81 84 88 87 90 80 85 80 77 74 80 74 77 76 72 68 74 72 73 74 74 73 70
62 88 87 88 92 96 95 96 88 100 98 96 93 90 89 77 67 50 48 51 56 86 83 76 78 69 69 72 74 80 86 81 84 84 88 85 74 81 82 84 75 71 77 79 73 70 74 76 78 74 72 73 78 78
40 90 89 92 92 96 90 95 84 85 94 89 92 88 86 76 70 63 46 52 52 79 88 81 70 69 70 69 70 73 76 82 85 87 88 84 75 85 85 77 81 76 80 80 81 72 76 79 79 77 79 75 78 78
44 89 90 92 94 96 91 85 87 76 93 88 96 88 80 82 73 55 50 53 51 61 89 86 72 70 69 67 69 72 72 80 86 88 93 87 92 85 89 86 91 86 80 83 80 70 72 69 76 80 75 65 71 78
53 93 86 94 97 97 92 84 81 79 77 85 90 87 69 67 70 58 69 57 53 54 87 89 79 77 72 66 69 76 78 85 88 86 91 91 82 88 87 87 69 75 74 70 69 72 73 81 81 75 66 66 70 76
72 94 89 94 99 94 90 82 85 83 90 88 92 92 69 61 59 65 71 62 54 51 86 92 93 75 77 72 82 80 79 88 84 88 84 84 87 92 88 86 60 73 74 78 75 78 76 80 79 80 66 68 70 69
78 96 90 96 97 94 87 83 92 86 94 87 86 81 68 61 59 58 69 60 49 55 84 94 93 87 72 80 76 89 80 80 90 90 86 78 80 84 87 72 66 76 76 63 64 59 55 74 66 64 63 66 63 66
73 95 96 97 96 94 86 84 97 88 94 86 73 69 63 57 58 65 67 57 52 48 88 93 90 90 81 91 88 82 84 74 87 85 85 79 79 85 64 65 75 84 69 62 66 65 68 61 55 56 58 60 66 71
81 96 96 96 93 92 88 86 100 96 97 84 70 70 81 70 79 73 66 70 82 92 92 92 93 96 88 93 92 88 86 93 90 87 86 91 89 68 69 69 70 80 65 68 73 53 57 74 65 53 61 70 78 80
92 92 94 92 92 90 88 84 100 100 91 84 78 89 78 80 67 72 82 70 78 69 95 97 94 96 85 90 92 86 94 96 95 89 90 94 93 81 75 74 76 75 70 57 45 45 51 58 79 72 72 70 72 73
95 92 92 91 92 90 90 84 100 87 79 70 68 74 72 75 82 59 81 77 82 60 97 96 92 88 93 86 92 91 90 92 89 93 94 97 83 77 79 70 68 65 57 51 51 54 58 62 67 75 78 76 66 58
96 92 86 91 92 91 90 85 100 84 76 64 64 73 79 79 55 67 58 69 90 92 98 98 98 92 92 84 92 92 90 92 90 94 95 87 77 76 79 80 61 59 55 58 58 58 61 64 63 68 72 59 60 66
97 94 80 84 90 90 90 87 100 92 88 91 90 92 79 81 81 78 74 84 87 94 96 95 98 91 86 90 86 89 83 80 100 100 82 88 76 73 83 70 63 61 60 57 76 69 74 75 72 63 62 58 64 72
95 92 84 87 89 89 92 97 99 97 94 98 95 83 84 82 96 98 98 97 94 86 86 92 94 82 97 95 86 82 93 100 87 70 82 88 85 86 81 73 70 63 81 86 73 77 75 72 76 73 64 68 72 75
88 93 93 85 87 92 98 100 99 98 99 98 95 79 81 93 93 96 100 99 96 82 88 82 91 90 92 92 98 93 80 70 67 90 91 90 92 82 77 69 65 65 67 71 71 73 75 75 81 82 81 80 84 88
90 96 82 82 90 99 100 97 98 99 99 98 95 86 91 91 91 95 90 86 86 82 80 84 66 58 90 93 87 88 75 74 87 92 98 86 83 73 72 64 63 65 70 74 78 80 83 86 90 92 96 94 91 90
96 86 80 87 99 100 98 92 98 99 98 98 94 93 90 80 90 88 84 91 84 84 81 66 86 92 82 65 70 82 90 95 97 97 92 78 78 65 59 68 68 72 82 85 87 87 91 98 96 96 98 94 98 93
92 86 88 93 98 98 99 99 98 98 95 97 98 99 92 86 86 87 86 82 83 79 85 85 67 74 65 76 80 93 95 97 96 90 77 64 60 66 71 73 80 87 89 89 91 94 94 85 87 88 94 97 92 89
94 91 90 99 99 98 98 98 99 96 100 94 98 99 97 95 90 91 91 84 80 85 72 72 52 46 51 64 90 89 92 85 65 62 60 67 72 73 78 83 91 88 86 92 89 85 86 86 84 91 96 90 91 93
100 97 99 100 99 99 96 97 99 97 98 95 97 96 97 96 95 94 94 87 87 82 75 73 60 70 82 84 78 72 65 46 38 38 46 84 76 76 85 95 84 87 91 94 96 91 88 92 93 96 96 92 94 92
100 98 99 99 98 98 97 97 95 96 95 98 98 96 97 95 95 92 92 87 85 78 77 81 85 85 79 74 65 49 46 53 63 69 72 70 83 96 95 96 88 100 95 98 97 95 94 92 94 94 94 94 89 88
99 98 99 99 97 97 96 95 94 97 96 96 97 96 96 96 95 93 87 88 80 88 89 88 86 79 80 77 64 59 52 53 74 80 78 78 80 88 82 88 93 96 96 96 90 90 92 95 94 96 91 93 95 94
100 98 98 97 96 96 96 96 94 96 96 96 96 96 94 95 95 94 82 84 85 92 90 90 77 78 79 78 83 84 64 60 78 78 71 75 91 84 84 88 92 93 96 92 88 89 91 93 96 93 95 100 97 100
98 97 96 96 96 96 97 97 98 96 96 96 96 96 95 95 90 90 72 79 95 93 85 80 71 60 55 78 90 87 73 59 71 88 83 71 73 91 89 88 82 82 89 89 93 96 94 93 94 96 98 100 98 97
97 96 94 93 97 88 94 98 97 94 95 96 91 96 96 92 86 66 68 75 91 81 79 72 59 72 70 74 77 90 80 65 54 70 85 71 69 70 94 96 97 88 97 98 100 100 100 98 97 98 100 100 100 100
96 96 96 83 82 81 86 82 79 86 86 86 92 97 90 70 66 64 83 90 88 76 62 58 54 51 56 77 65 63 67 67 57 57 63 69 74 75 72 85 92 89 96 97 100 100 100 100 100 100 100 99 97 100
96 91 97 98 94 92 82 86 77 75 77 83 78 82 73 65 58 80 91 86 82 74 73 58 47 44 56 57 64 73 74 69 64 66 78 79 83 83 80 88 96 98 100 98 100 100 100 98 100 100 100 97 95 97
93 86 79 98 98 92 89 79 74 82 77 73 69 79 75 88 94 95 94 94 87 70 71 80 83 61 68 70 69 65 62 63 75 87 88 93 94 87 83 92 100 96 91 88 87 94 100 100 96 97 92 93 95 95
98 93 88 94 84 82 89 93 95 97 83 83 77 88 88 92 96 95 95 96 83 71 70 75 85 72 82 80 87 79 68 61 56 57 86 90 81 78 93 95 90 87 86 85 85 84 89 88 87 88 90 90 92 94
92 90 90 91 94 97 98 97 95 80 93 96 93 92 93 95 97 97 94 93 83 82 79 83 82 72 74 80 79 87 88 67 65 64 60 65 80 88 84 85 85 88 88 88 87 87 89 90 91 91 91 93 97 98
93 91 90 96 100 98 96 95 96 94 95 94 93 94 95 95 93 95 86 82 81 73 64 68 69 74 52 48 53 56 47 48 63 65 72 83 90 90 89 90 93 93 90 87 87 88 90 92 93 93 94 97 99 100
94 95 96 95 98 100 97 93 94 91 90 89 87 88 88 86 78 87 81 69 67 70 71 59 52 47 54 59 56 46 45 51 60 68 81 90 93 96 94 92 96 94 88 87 87 89 90 92 94 94 94 96 99 99

GFSWCAN_925_rhum_084.txt.gz
RH
87 74 55 88 94 97 94 89 98 93 76 92 89 80 70 63 48 49 65 61 65 71 77 76 75 71 69 68 59 68 64 62 65 60 58 61 58 62 61 59 60 60 59 57 60 63 54 54 57 53 49 55 53 54
84 74 30 88 92 96 96 91 91 96 90 66 78 95 88 77 59 45 59 60 61 67 73 76 77 77 78 75 72 70 62 67 64 65 64 61 57 63 60 50 62 61 53 52 53 46 51 55 58 58 55 53 58 57
81 74 24 90 90 98 97 89 91 95 90 86 68 78 94 82 73 46 48 54 59 65 67 67 67 73 72 74 75 68 69 70 72 69 62 64 61 55 54 54 58 59 59 57 58 56 55 56 61 60 59 58 62 63
82 74 22 88 92 98 98 92 86 90 89 89 88 78 92 86 67 57 43 51 55 62 68 67 69 69 69 72 73 76 73 76 71 72 65 61 58 65 58 60 58 55 64 60 58 56 59 58 58 57 64 64 64 63
81 68 21 90 89 96 99 92 89 82 79 87 98 76 76 82 72 52 47 52 53 61 69 69 70 68 70 70 75 78 73 67 66 69 72 63 69 68 67 68 65 60 55 55 46 54 54 55 58 61 65 58 56 56
84 61 22 86 90 97 97 92 88 84 77 90 92 83 66 65 73 62 62 54 53 57 78 78 70 69 73 68 70 69 69 66 67 64 68 72 72 71 72 61 48 57 60 55 52 57 56 66 67 66 61 56 57 58
86 48 27 82 91 97 98 90 83 83 83 94 88 93 67 59 59 61 64 66 56 53 70 83 80 67 75 69 71 65 70 70 65 70 67 66 74 77 72 61 46 53 56 59 58 63 68 71 64 67 62 58 62 57
86 39 34 88 92 96 94 85 86 93 90 94 92 82 64 59 57 58 70 60 57 55 76 86 82 76 72 66 66 72 62 65 73 71 69 63 67 69 73 54 52 58 63 64 66 60 48 61 62 59 55 52 46 43
80 36 46 90 95 93 94 82 95 92 94 86 77 69 61 56 59 68 67 60 55 57 75 80 81 80 73 79 75 70 67 62 74 70 66 67 62 75 51 51 56 66 61 54 54 54 58 53 50 46 45 43 46 42
74 31 66 93 96 90 91 82 100 94 90 78 72 66 72 74 79 70 66 69 73 73 76 76 79 83 74 78 77 74 72 69 81 70 76 76 65 49 50 48 51 61 56 56 73 61 58 61 56 41 41 41 47 50
66 35 79 92 94 90 90 84 100 93 85 82 78 79 76 74 66 64 72 71 59 62 75 78 81 82 74 77 68 73 80 83 85 79 80 74 72 58 61 60 61 61 54 50 41 36 41 44 57 53 49 52 57 62
50 42 85 88 92 88 90 85 100 88 77 68 67 72 70 66 72 64 74 62 70 55 80 81 79 76 81 76 75 82 81 87 84 79 88 81 66 67 70 65 65 60 56 47 44 46 51 51 56 60 66 73 71 69
36 54 80 88 90 88 90 86 98 85 62 60 63 74 74 74 69 69 67 63 71 76 87 89 89 80 83 74 81 79 86 85 80 90 80 66 61 65 68 70 65 53 47 49 53 54 57 60 62 64 61 58 58 58
34 67 78 86 90 87 91 89 96 83 76 89 87 89 80 82 74 75 68 71 74 84 87 82 88 77 74 77 73 82 72 74 96 93 71 66 65 68 65 56 56 59 57 56 70 72 70 69 66 65 65 67 68 66
49 87 76 80 85 85 93 99 94 93 92 98 94 96 90 74 82 83 89 91 86 81 80 79 81 71 82 84 73 80 90 97 81 67 64 68 72 78 69 59 57 61 67 70 72 75 77 79 75 71 76 84 84 84
84 94 92 79 81 85 94 100 99 97 99 100 99 91 73 79 84 92 94 89 86 81 76 74 78 83 79 81 93 91 80 70 65 79 72 69 82 76 70 63 56 56 56 62 73 78 84 87 88 90 90 85 80 82
94 82 68 74 79 87 100 97 98 99 100 99 97 83 75 81 76 74 71 72 78 73 78 76 72 65 82 86 83 76 79 69 74 79 80 78 76 67 58 57 57 58 60 69 81 84 90 94 82 89 83 82 90 90
86 80 80 75 91 100 100 97 96 100 100 97 94 85 77 67 77 79 79 85 80 78 73 70 76 82 80 72 67 75 78 85 85 83 76 67 62 58 56 57 63 70 81 84 85 89 92 90 78 73 82 84 83 76
79 73 84 99 98 97 99 100 100 99 95 93 90 90 83 79 77 78 79 83 79 73 74 80 76 80 65 68 72 82 84 87 79 74 64 59 60 61 68 74 79 85 83 87 85 81 82 81 80 80 83 84 78 78
69 83 92 100 96 98 100 98 99 96 99 91 94 98 87 87 85 85 88 85 83 88 82 78 58 46 43 48 68 72 79 73 63 59 58 63 70 76 81 80 79 87 88 90 85 82 77 72 75 85 86 84 82 82
92 88 97 100 100 99 94 97 99 96 93 94 94 92 94 95 96 99 96 86 90 92 81 59 50 45 70 73 76 75 72 57 50 44 47 65 74 80 90 91 87 84 80 80 74 74 78 78 84 90 87 82 87 86
94 95 98 99 98 98 96 95 91 94 93 95 99 93 97 99 98 96 93 96 94 80 65 62 71 79 76 74 66 63 55 43 46 53 58 68 80 84 87 85 86 89 90 92 83 81 82 84 89 87 88 86 90 87
98 96 99 99 97 96 96 97 96 98 97 97 97 99 99 98 96 93 96 93 88 75 73 80 87 82 76 74 64 58 55 56 64 67 66 69 78 82 88 90 88 93 91 93 92 92 91 93 92 91 88 89 88 87
98 98 98 97 93 95 94 96 94 95 94 95 97 98 99 98 94 96 94 90 72 80 85 90 79 75 74 72 65 66 62 60 71 71 69 79 83 80 84 88 90 88 88 90 88 88 91 91 96 92 93 97 95 97
98 98 97 97 96 95 98 97 97 96 96 96 99 100 98 96 96 98 92 80 84 84 84 83 71 58 54 52 75 73 63 63 67 71 77 68 75 92 94 95 87 87 87 85 90 94 95 96 96 98 98 99 95 94
97 95 95 88 95 89 93 99 97 96 95 100 97 94 93 92 96 93 80 73 75 79 85 81 69 63 58 49 60 79 75 58 58 69 75 68 67 75 86 86 85 91 87 85 91 96 97 98 100 97 98 98 100 100
97 96 95 77 80 81 84 82 79 84 91 87 97 100 95 82 78 70 69 79 78 81 66 66 56 53 50 67 65 59 55 60 57 55 56 61 65 61 62 78 87 80 84 88 93 98 100 100 100 100 100 100 98 99
93 93 94 96 90 87 88 88 85 79 75 80 76 92 81 76 74 72 80 84 82 77 71 63 54 48 56 63 59 71 71 69 65 68 74 79 77 75 74 74 77 79 86 90 94 99 100 100 100 98 100 96 95 96
95 92 86 98 99 93 80 76 75 74 68 72 70 70 74 80 88 91 90 94 92 86 81 80 88 64 71 71 73 67 64 70 77 85 81 80 92 92 82 81 82 83 87 90 90 100 99 100 98 97 92 92 95 95
95 88 88 95 83 80 82 88 86 92 81 78 74 84 86 92 94 92 93 98 92 86 74 65 84 68 80 80 91 90 73 66 52 59 73 78 73 61 70 78 80 84 88 89 89 89 95 86 86 89 91 93 95 95
88 90 92 92 84 92 92 93 90 78 89 93 91 88 85 96 97 95 94 95 90 88 86 83 82 82 76 76 75 84 86 69 56 54 53 52 55 64 72 73 78 83 86 88 88 85 84 86 90 92 94 95 97 97
91 87 89 93 99 97 96 94 93 89 97 96 96 97 98 99 93 94 93 96 92 88 78 74 77 79 66 58 56 47 42 46 55 58 59 60 64 67 71 75 81 85 86 88 87 85 87 91 93 94 95 96 97 98
96 96 97 96 98 100 96 92 92 90 94 95 96 96 95 88 76 88 95 89 84 78 75 71 64 59 52 42 48 48 43 45 51 63 71 68 67 71 74 80 85 86 88 88 87 88 91 93 94 95 95 95 96 95

GFSWCAN_925_rhum_087.txt.gz
RH
95 90 74 30 84 91 97 91 90 87 83 89 84 71 71 72 52 51 66 66 69 56 66 65 62 59 59 56 50 58 57 55 54 56 48 46 44 46 48 43 43 46 45 43 46 51 48 44 49 50 46 45 45 47
96 90 74 37 64 94 92 96 84 93 84 79 81 84 74 72 73 48 57 57 64 59 66 68 69 69 68 66 60 58 55 54 53 55 48 44 44 46 44 36 48 47 43 45 43 42 42 44 48 48 46 45 49 49
96 89 75 42 65 92 96 93 88 84 85 82 81 90 89 80 72 64 54 50 63 57 62 61 59 65 72 71 73 60 55 61 58 60 52 51 55 45 41 39 45 46 46 49 50 39 45 43 46 48 48 49 52 53
99 90 74 44 68 89 92 97 89 76 77 85 87 86 80 81 73 62 49 48 61 54 68 61 64 61 69 71 74 70 64 65 60 62 59 52 52 50 43 49 47 43 53 48 47 40 47 46 46 46 52 54 56 55
99 92 75 41 64 90 96 94 90 82 77 80 89 85 72 72 70 55 50 52 54 62 68 59 61 63 67 66 69 70 68 61 57 63 72 58 54 57 52 58 53 46 42 51 35 40 42 47 48 48 54 56 50 49
98 92 76 36 65 90 92 93 88 84 76 77 91 85 68 64 70 63 58 60 52 52 74 75 61 60 64 63 62 63 62 58 60 57 57 59 62 67 66 50 34 37 42 39 42 45 47 54 55 54 56 53 49 49
100 94 78 32 53 85 95 93 87 79 79 81 90 90 74 62 60 58 57 68 52 48 66 91 78 61 67 62 59 56 60 59 60 62 62 56 64 73 68 56 32 37 44 48 48 52 59 60 54 58 55 53 54 50
100 95 78 28 49 81 89 87 81 89 96 90 92 86 66 62 60 59 67 57 50 61 71 94 85 73 66 60 61 60 57 57 65 62 59 59 62 64 72 48 44 42 47 52 53 52 45 51 55 58 54 45 42 37
100 96 76 25 56 83 86 80 90 82 86 87 76 72 63 67 58 72 68 62 52 60 76 79 87 82 66 66 64 61 60 64 65 66 59 61 57 79 52 41 46 50 56 52 57 48 47 46 44 43 41 37 37 34
100 97 74 24 52 84 86 83 98 90 83 76 71 65 65 72 65 69 75 66 69 70 68 75 67 77 71 67 66 68 61 63 84 63 66 71 66 47 42 42 41 47 52 52 72 66 58 62 55 39 39 33 34 39
100 97 73 24 63 85 87 85 99 93 83 85 67 68 81 69 69 55 75 76 60 72 67 68 71 68 66 74 61 60 76 75 84 75 74 72 67 47 42 42 44 50 50 49 41 39 41 45 56 46 44 45 49 56
100 97 66 28 72 85 88 85 100 90 84 77 66 65 71 64 73 74 79 62 67 56 63 67 67 66 69 67 68 70 82 82 81 72 81 81 65 66 59 53 54 52 47 43 38 46 46 44 49 53 62 74 73 71
100 96 50 40 82 87 92 84 99 89 63 58 65 90 72 78 77 68 67 68 69 66 78 79 83 69 73 71 73 78 90 83 70 86 79 69 61 60 66 69 65 56 47 42 47 49 52 52 54 55 54 51 53 54
100 97 37 52 82 87 91 87 98 75 70 81 98 83 83 84 73 75 61 72 67 72 79 77 81 72 66 77 66 88 64 69 88 90 73 71 62 60 59 61 58 55 50 63 76 70 67 65 60 57 59 66 69 67
100 91 34 70 83 89 92 95 95 87 87 99 98 95 93 70 77 79 85 75 75 68 77 77 79 65 78 79 66 75 83 90 73 74 80 73 73 67 60 53 54 62 70 74 69 74 76 78 72 65 71 75 70 67
100 75 90 76 85 91 98 100 97 94 99 100 100 98 77 79 86 83 87 84 79 72 72 70 78 81 80 75 80 85 75 74 77 86 74 64 77 69 60 54 51 51 52 62 71 76 82 84 82 78 80 74 75 77
95 86 79 81 87 92 99 97 98 100 100 100 98 84 73 80 79 67 57 54 64 73 80 80 80 73 79 81 78 69 82 85 85 74 69 68 73 64 57 54 51 50 50 58 68 77 85 90 80 80 74 77 86 83
85 75 61 79 88 99 98 99 100 100 100 96 96 85 75 57 60 56 57 65 72 76 75 80 71 76 75 72 73 87 87 84 80 74 71 66 58 53 53 52 52 60 76 81 81 84 87 83 69 61 71 75 75 66
78 62 62 82 97 98 100 100 100 98 93 92 87 77 71 65 58 58 58 66 68 64 76 80 76 83 71 71 76 90 88 80 72 66 60 54 50 50 60 67 72 81 79 82 75 67 67 71 70 71 73 74 70 70
81 78 86 97 95 98 100 100 99 99 96 86 88 89 79 76 68 68 70 76 75 82 89 88 66 55 49 56 74 72 80 73 63 60 56 54 57 74 78 75 70 82 81 86 84 77 68 62 66 73 76 78 75 73
100 97 100 99 95 97 95 97 96 94 91 88 87 88 86 90 92 94 91 82 92 95 94 75 51 38 48 58 63 63 70 64 56 46 45 60 59 68 81 84 82 75 70 68 61 64 69 64 71 79 78 75 77 80
91 99 99 99 99 99 100 90 88 88 90 90 95 88 93 97 95 92 91 97 93 74 73 59 55 49 57 69 72 75 68 60 45 46 50 60 69 78 78 78 79 75 72 75 68 64 67 71 77 79 79 77 82 79
97 97 100 99 98 97 96 92 93 94 96 97 95 95 94 95 88 89 95 88 83 63 60 61 70 73 70 72 69 69 61 54 54 56 60 58 67 74 79 81 82 88 87 84 83 82 82 83 80 82 80 78 79 79
98 99 99 97 97 96 94 95 93 92 92 92 94 94 92 91 92 96 95 79 66 72 74 77 74 72 74 76 70 68 66 53 62 66 62 67 77 71 75 73 79 85 81 84 87 85 84 79 87 81 84 90 89 89
99 99 100 98 95 93 94 94 92 92 93 90 94 92 96 92 96 93 90 80 81 70 69 72 70 59 57 59 60 58 60 58 57 62 73 66 70 78 82 82 81 85 84 91 87 87 89 90 91 91 92 92 93 92
97 98 97 90 93 89 90 93 95 94 89 97 93 89 90 92 98 96 81 80 61 64 69 73 68 66 59 53 57 61 66 58 54 59 75 68 67 76 86 85 81 84 83 86 91 91 91 92 93 95 94 92 94 99
97 98 94 67 72 76 80 74 71 84 96 94 94 94 85 93 90 73 62 64 65 74 59 62 59 60 56 54 48 46 54 59 52 50 48 59 61 60 61 78 82 73 73 78 84 88 94 94 96 97 98 98 98 99
88 85 92 90 83 78 89 86 91 89 83 75 79 94 92 83 70 72 76 79 77 77 72 69 66 58 54 54 66 71 74 62 60 62 69 70 68 63 60 62 64 67 74 79 83 88 91 100 100 100 100 99 95 94
95 86 81 98 91 86 85 83 81 70 62 74 78 70 77 71 80 74 78 87 90 87 87 86 88 76 80 80 74 69 68 68 75 82 78 78 89 88 73 72 75 84 83 84 97 100 93 97 95 100 93 91 91 91
99 80 86 90 89 85 79 73 79 80 70 68 63 68 67 74 85 80 84 98 93 89 83 79 90 79 84 79 87 90 80 66 54 55 68 72 72 62 66 70 76 80 79 82 82 86 100 92 90 87 90 92 93 95
87 86 89 81 86 84 86 86 80 72 82 86 86 83 74 87 86 90 90 92 93 91 90 91 85 78 76 74 76 81 84 77 63 51 44 44 44 52 59 66 73 74 78 80 81 85 91 88 88 91 93 92 94 96
87 85 84 89 88 93 92 91 91 89 90 90 88 91 90 88 85 87 89 97 98 93 85 83 78 82 72 69 67 54 51 53 56 49 47 47 50 53 59 67 71 75 78 80 83 84 85 87 89 91 92 92 94 95
94 90 93 92 99 99 94 91 90 90 90 91 88 90 89 83 79 82 89 92 89 86 85 83 77 76 76 67 67 46 38 37 46 48 50 48 50 57 63 67 72 77 79 81 84 84 87 89 90 91 92 93 95 95

GFSWCAN_925_rhum_090.txt.gz
RH
94 91 94 76 41 68 80 75 83 91 78 74 73 72 78 74 68 43 60 56 70 71 71 65 62 71 68 64 66 65 64 66 68 71 60 56 57 56 55 42 45 54 58 62 54 60 67 47 51 57 55 47 48 49
98 92 94 81 59 27 81 86 74 81 87 81 75 76 77 82 70 54 56 48 63 73 76 66 67 67 69 70 82 65 62 58 70 74 62 54 56 52 48 52 48 60 53 65 53 59 47 44 52 52 50 54 50 53
98 93 94 86 67 26 68 89 87 70 76 76 78 82 78 81 72 61 46 46 64 71 72 66 64 64 66 68 70 86 70 70 66 70 77 69 66 57 60 55 45 47 49 64 55 44 49 50 50 49 49 51 57 57
96 95 95 93 71 36 60 83 86 87 72 74 82 85 75 76 63 57 50 44 60 63 90 75 60 60 63 66 71 69 70 67 66 76 82 77 70 55 60 59 59 55 58 58 57 48 47 50 46 55 58 56 59 58
97 99 94 97 74 34 66 80 86 89 79 72 79 85 75 66 75 64 50 46 46 72 86 73 60 62 63 63 66 68 68 73 76 83 96 86 69 66 64 70 77 61 62 66 63 49 52 59 52 53 62 61 55 52
99 100 96 98 76 38 76 82 85 87 80 74 73 83 82 62 66 77 84 56 46 58 94 94 66 61 62 62 61 63 67 68 75 81 81 73 67 80 89 80 47 42 44 47 50 51 61 61 57 55 57 57 53 51
99 98 92 99 78 35 66 80 84 83 78 76 77 84 85 66 65 73 80 75 51 50 86 94 95 68 65 64 65 69 64 74 76 82 81 73 80 91 92 80 45 42 48 55 55 61 64 63 68 61 58 55 56 53
98 99 97 99 80 33 62 77 79 85 89 88 89 88 74 61 60 68 64 56 55 66 89 98 96 85 67 76 78 69 76 75 83 86 72 76 78 82 95 72 51 46 56 60 59 54 59 64 65 66 59 53 49 48
98 100 99 100 78 30 60 77 87 87 86 86 78 74 62 65 67 78 64 60 54 71 97 95 95 95 72 78 77 76 74 84 80 86 79 72 80 90 72 61 56 55 63 64 69 57 56 59 60 57 51 43 42 43
97 100 100 100 74 27 60 77 96 95 81 75 68 70 79 72 62 66 74 84 91 93 91 96 90 93 84 81 84 84 75 91 95 85 79 88 86 60 61 56 51 58 62 68 74 70 60 67 55 46 46 42 44 51
97 100 100 100 70 27 69 80 98 96 81 83 75 85 76 64 69 70 92 93 88 88 90 91 90 90 75 93 87 76 92 94 97 92 91 94 91 66 53 55 54 64 63 64 58 60 60 62 70 51 53 56 64 67
96 100 100 100 68 32 76 82 96 93 88 82 70 64 67 76 91 82 90 82 81 83 77 85 81 80 83 81 90 82 93 94 97 87 94 97 87 69 63 62 64 62 58 48 48 55 53 56 57 61 68 72 64 60
98 100 100 100 60 45 80 84 100 91 74 58 70 87 90 88 84 86 78 86 88 86 92 92 93 84 84 86 87 92 96 94 82 91 93 84 77 75 76 75 71 62 50 53 61 56 56 57 55 56 61 60 65 66
100 100 100 100 46 57 82 87 98 93 64 95 91 88 84 94 91 88 88 94 91 92 95 91 94 91 78 92 83 97 78 80 97 100 85 93 76 74 77 73 68 62 68 77 82 72 71 67 63 61 68 71 72 70
100 100 100 95 50 75 90 92 93 78 85 98 96 93 96 85 93 95 95 91 90 87 91 91 94 81 93 91 80 87 89 98 90 82 90 92 77 74 76 69 68 75 84 86 77 79 80 77 75 72 71 72 71 72
100 100 100 85 64 88 93 100 99 92 97 99 99 96 89 92 97 96 96 96 92 87 92 92 91 94 93 94 92 92 90 83 80 94 96 79 82 72 67 65 66 68 71 75 74 77 78 82 84 77 77 76 77 81
100 98 95 66 73 91 100 97 95 100 100 100 98 92 96 94 95 94 88 80 77 90 96 96 94 78 91 95 95 87 88 84 94 95 94 77 84 75 65 60 56 55 57 64 73 77 86 80 71 78 81 77 77 76
94 91 85 75 89 100 100 99 99 100 98 96 99 96 93 81 79 66 68 77 90 93 96 90 88 85 87 87 87 87 93 96 93 95 89 77 69 64 58 60 54 58 74 76 74 80 80 74 79 71 68 72 75 68
94 97 84 75 96 96 100 100 100 98 94 98 96 90 86 82 73 69 75 76 78 77 92 93 91 92 88 89 85 93 96 92 80 81 70 60 57 58 60 61 69 77 75 76 79 75 70 67 67 70 74 75 75 74
95 99 84 96 95 96 100 100 99 99 98 94 95 96 94 96 85 83 85 85 91 92 98 96 86 78 74 69 87 87 91 86 73 71 66 61 57 71 77 77 79 74 79 79 77 76 71 68 66 69 74 79 79 75
100 100 100 100 99 97 99 99 99 98 98 96 95 94 98 96 98 95 97 94 97 94 97 89 75 62 56 50 50 54 66 77 70 59 63 70 65 74 83 76 74 75 77 77 76 71 72 65 67 73 79 78 76 80
99 100 99 100 100 100 100 98 94 94 97 97 97 95 98 99 98 96 92 97 93 74 75 60 61 72 73 64 68 59 55 66 64 52 52 58 69 83 83 84 82 82 74 70 64 64 65 67 70 77 79 78 80 80
100 100 100 100 98 98 98 86 95 98 99 99 98 100 99 98 98 86 97 95 89 76 64 64 63 65 74 63 62 66 62 70 67 60 59 61 62 66 76 83 80 87 89 84 74 75 76 75 77 82 81 79 79 83
100 100 99 98 98 97 97 97 97 96 96 98 97 99 97 98 97 98 95 96 74 90 77 71 75 87 89 88 88 80 73 70 62 58 60 70 82 82 80 75 79 77 71 72 76 78 78 73 78 81 80 87 90 90
99 99 99 98 98 96 96 97 97 97 96 96 95 95 100 97 100 97 93 92 77 76 71 75 83 75 72 66 68 76 66 66 67 67 70 63 66 78 78 74 77 78 75 78 85 84 84 83 84 88 90 90 91 95
98 98 96 90 96 88 91 96 96 96 94 97 93 96 97 98 100 97 94 90 65 66 75 81 78 81 77 66 79 80 75 65 64 67 80 68 64 74 84 86 87 88 78 67 71 82 85 84 88 91 89 92 93 96
97 98 98 73 80 80 84 82 79 91 95 94 97 97 96 98 95 85 87 88 67 79 59 64 70 74 70 75 59 56 60 66 56 52 56 63 55 55 62 79 81 59 62 70 73 72 78 84 88 91 94 95 96 94
95 92 94 91 92 90 92 91 93 90 89 86 83 98 91 87 83 82 82 78 71 68 58 65 66 66 65 60 61 72 77 67 59 58 75 74 71 78 75 57 53 55 60 64 68 72 75 80 85 92 95 95 93 89
97 89 82 98 95 92 86 86 84 79 72 80 81 88 87 87 89 91 84 64 67 86 90 91 88 73 72 73 73 77 78 69 73 79 75 78 90 83 71 65 74 74 69 79 88 73 77 83 88 92 91 88 86 89
97 85 92 92 90 86 86 82 87 87 84 84 82 84 80 83 86 71 67 82 96 96 84 78 84 82 92 90 95 97 82 66 46 48 58 69 75 59 68 75 78 76 75 79 92 98 99 100 100 93 87 87 89 93
89 95 91 89 88 95 95 94 90 77 91 94 94 89 70 94 88 77 68 65 71 85 90 96 95 84 89 88 88 87 88 75 67 54 41 39 40 48 59 65 70 72 74 74 76 85 99 90 86 86 88 90 92 96
94 88 88 92 94 99 97 96 97 95 97 96 94 97 95 92 83 90 77 78 99 98 91 89 88 86 84 76 74 65 58 66 72 55 40 40 46 50 53 60 68 70 72 74 76 82 84 82 85 88 89 91 94 95
96 95 96 95 100 100 100 95 98 97 96 99 97 96 93 88 76 83 74 69 70 74 84 86 82 74 75 76 70 64 56 53 51 45 40 40 37 46 53 63 66 68 71 75 79 79 83 85 86 88 89 91 94 95

GFSWCAN_925_rhum_093.txt.gz
RH
92 97 95 92 92 69 25 70 80 80 86 79 75 69 70 72 70 57 52 54 69 86 79 68 65 75 76 80 81 74 69 72 79 78 71 70 66 61 55 51 46 59 64 70 67 65 62 50 54 57 54 51 54 53
90 96 96 93 93 76 36 55 73 74 75 80 77 73 72 75 72 61 52 50 62 77 76 65 64 64 65 68 85 82 71 75 81 82 81 72 64 65 61 59 51 57 55 63 56 58 49 56 53 54 57 58 56 59
90 93 95 97 92 85 51 58 79 74 66 72 77 78 73 72 73 64 56 48 69 83 82 77 77 64 65 66 66 82 84 79 80 78 85 84 75 71 69 69 52 51 57 60 55 44 53 53 53 59 55 56 62 63
87 90 94 100 93 93 65 39 82 79 74 63 73 81 77 68 68 58 54 48 63 77 92 78 62 64 62 65 69 70 72 72 76 86 88 87 83 65 71 63 67 57 60 64 67 57 51 51 58 61 63 67 67 60
87 89 90 99 94 96 74 36 73 85 82 67 68 80 83 65 68 70 55 50 54 77 91 80 64 63 63 64 68 70 73 81 88 88 96 88 85 73 78 77 88 67 62 68 62 53 52 59 58 63 69 69 68 62
86 87 89 97 97 95 82 36 70 84 86 72 66 80 84 74 63 69 85 63 50 56 94 88 73 66 64 62 64 70 77 80 85 88 88 88 73 80 89 93 65 60 58 53 53 55 60 63 63 58 67 66 58 56
88 87 89 98 100 96 87 38 63 79 81 73 69 78 84 80 62 78 79 71 55 50 89 85 94 74 65 66 73 78 70 82 85 88 88 85 82 90 94 77 58 54 50 57 60 67 67 66 69 65 64 60 57 54
89 86 87 98 98 96 90 37 55 77 80 87 83 86 84 64 63 65 68 57 54 63 88 91 87 86 68 82 84 82 83 85 86 87 85 82 83 87 94 76 62 53 54 65 68 59 63 73 74 71 64 58 50 47
91 87 86 97 100 99 91 32 68 87 89 94 92 83 68 63 73 74 69 64 56 67 94 95 90 90 79 82 86 83 84 88 85 88 88 82 87 92 72 70 65 63 66 71 69 70 71 73 78 70 54 49 43 44
95 86 88 95 100 100 92 39 85 94 88 79 71 76 85 72 62 64 80 84 92 95 96 93 96 89 88 89 91 90 86 94 95 87 82 90 87 66 63 66 58 60 67 73 76 73 66 71 65 55 48 49 57 67
96 89 88 95 100 100 84 50 95 98 81 76 82 88 75 65 71 77 91 90 92 86 93 94 93 92 81 92 91 86 94 96 96 87 91 93 94 77 68 64 62 66 74 69 61 63 61 62 71 56 62 69 66 64
96 92 91 97 100 100 70 61 93 92 80 81 74 67 68 80 91 70 84 86 85 81 86 87 80 87 85 86 91 86 93 92 95 92 95 96 82 76 72 72 73 74 67 59 60 65 62 61 58 64 70 73 65 63
98 93 92 98 100 100 62 68 94 88 85 61 72 81 86 84 84 80 75 82 92 90 93 93 89 86 82 88 92 95 96 96 87 98 95 86 84 73 73 76 71 59 55 59 63 61 59 62 56 56 65 67 67 70
100 94 94 100 100 100 62 76 96 94 62 92 85 84 84 94 92 86 84 82 85 93 95 95 96 92 88 92 90 93 82 86 100 100 85 90 84 76 76 76 65 63 67 73 80 70 68 63 64 67 69 68 68 69
100 98 98 100 100 99 65 82 100 90 81 96 96 98 95 83 95 96 97 90 92 92 92 94 94 87 95 94 90 89 95 100 92 80 85 93 80 78 80 71 68 73 82 83 77 78 78 71 70 75 69 71 70 71
100 100 100 100 100 92 77 96 100 87 95 100 98 99 91 95 98 98 96 96 94 92 95 93 94 98 97 94 96 94 93 88 71 89 91 86 78 78 77 72 69 71 71 74 72 72 77 78 76 72 77 75 73 76
100 97 99 100 100 84 98 98 95 100 100 100 98 95 93 95 93 95 89 89 88 90 92 95 92 74 87 98 100 92 89 81 89 96 96 83 82 81 70 70 69 68 69 68 75 76 76 75 73 81 82 75 74 73
98 98 96 100 97 100 100 99 96 100 99 98 99 97 91 90 87 86 89 92 93 94 94 90 87 88 84 84 88 83 88 94 97 94 94 84 81 78 64 64 58 58 65 71 71 77 81 80 83 79 71 73 74 72
96 99 100 100 98 98 100 100 99 98 94 96 94 97 89 87 83 75 85 84 87 87 90 95 85 88 79 85 82 86 95 93 58 73 84 75 70 68 63 59 58 68 73 76 77 77 79 76 68 68 70 74 79 78
99 100 100 100 98 99 100 100 99 99 98 94 98 98 93 91 84 88 90 88 90 93 96 98 81 70 70 74 84 81 88 85 78 73 72 73 63 64 72 73 75 73 72 74 75 78 75 73 68 67 70 75 84 77
100 100 100 100 100 100 100 99 99 98 99 99 98 94 97 98 98 95 95 94 96 96 96 84 78 59 67 62 52 61 67 79 72 61 51 85 70 73 80 75 70 75 79 80 80 83 81 74 65 69 71 77 77 78
98 100 99 100 100 100 100 100 97 96 95 97 98 97 99 100 99 97 95 98 96 74 77 89 64 62 72 74 62 60 50 56 62 66 64 64 83 91 86 82 84 83 78 76 79 82 78 67 67 68 77 78 78 77
98 98 99 100 98 99 99 98 95 98 99 99 98 100 100 100 97 91 98 94 90 87 67 69 60 63 73 62 64 64 59 64 76 78 70 68 67 67 71 83 78 80 86 84 78 80 67 67 69 78 77 80 76 80
98 100 99 98 98 97 97 97 97 96 96 96 98 100 100 99 98 99 97 92 88 92 90 76 73 90 93 90 86 72 75 72 72 70 63 73 86 84 75 79 78 76 66 67 75 78 70 74 77 78 82 79 84 86
98 98 98 98 98 96 97 97 97 97 96 96 98 100 100 97 99 99 92 93 91 71 72 81 84 79 75 68 71 71 66 73 80 77 76 65 71 86 84 79 78 73 70 75 89 85 78 72 75 78 82 86 86 87
97 98 96 90 96 90 92 97 96 96 96 98 93 98 98 97 100 97 94 89 70 63 75 82 80 85 87 76 71 87 80 71 70 79 78 68 69 73 82 84 88 92 80 71 81 85 82 78 79 82 86 88 92 98
97 98 98 84 81 83 88 86 80 91 95 94 97 99 96 95 94 84 80 84 80 85 57 61 72 77 72 79 75 69 65 66 69 68 66 67 65 59 64 74 76 58 60 77 81 68 73 78 80 82 85 91 91 88
96 95 93 95 91 88 94 95 95 89 89 89 85 100 93 86 81 79 82 76 69 62 62 68 68 67 69 68 65 73 80 80 77 76 84 89 83 74 61 50 44 43 45 60 67 67 68 67 72 79 87 89 90 88
97 88 83 98 91 90 88 90 87 89 80 80 79 89 86 83 85 85 87 65 68 64 88 92 84 78 76 73 73 71 72 79 83 86 85 90 97 93 78 75 75 58 52 77 82 66 65 68 74 82 85 87 86 88
97 85 92 93 90 93 87 87 89 91 91 81 83 94 90 88 82 72 66 87 96 88 71 66 69 82 93 91 99 95 83 76 65 69 70 72 68 72 84 80 71 71 79 78 82 89 98 99 100 100 90 88 90 92
90 91 92 92 90 98 98 96 91 82 92 94 92 90 86 93 85 76 69 61 66 70 84 96 95 86 88 93 92 94 94 86 72 62 53 46 47 55 71 66 74 78 78 78 81 99 100 99 94 88 89 90 93 92
95 92 91 94 97 96 94 93 95 94 93 90 89 98 92 90 81 85 61 72 86 94 84 81 87 83 76 72 69 64 64 60 73 66 58 43 42 54 58 67 76 73 76 80 88 95 90 85 86 86 87 90 91 94
96 96 96 94 96 97 98 92 95 95 95 97 95 95 92 86 76 76 63 60 56 61 69 69 66 67 60 61 67 68 68 59 61 66 49 34 33 46 65 73 75 70 69 72 79 85 84 80 83 86 87 88 93 95

GFSWCAN_925_rhum_096.txt.gz
RH
91 90 93 94 91 90 88 52 42 73 70 82 82 76 70 72 72 62 56 53 66 85 80 70 67 75 79 82 80 71 69 70 82 79 76 74 72 64 66 55 50 54 67 73 73 74 69 56 57 54 44 57 58 58
91 89 90 92 94 93 91 74 26 67 78 70 79 81 75 70 75 65 49 49 62 76 77 67 64 64 66 68 80 82 73 76 85 84 85 84 68 74 66 66 49 69 58 55 60 58 43 58 45 52 56 57 55 60
91 90 89 91 94 92 90 85 51 41 73 81 70 77 79 69 70 65 62 49 71 84 84 77 73 61 61 65 69 82 87 77 84 81 89 87 83 77 77 76 56 52 60 67 52 41 57 54 55 57 59 57 59 62
91 88 87 90 92 97 94 92 68 23 65 81 75 75 82 72 66 70 57 52 64 83 92 79 64 62 60 61 66 70 77 73 79 88 88 89 86 72 80 66 69 58 62 65 70 61 58 56 62 62 62 68 68 66
92 88 84 88 89 95 100 91 78 27 59 78 78 70 84 80 63 69 71 55 52 67 86 78 70 64 64 63 67 72 74 82 90 91 98 92 88 82 85 83 92 70 62 68 55 52 48 50 56 65 72 72 72 65
96 88 85 84 86 93 100 92 86 36 60 72 80 71 80 84 67 71 84 67 54 59 89 81 76 68 66 64 65 74 82 87 90 91 91 91 81 82 90 93 69 66 61 50 51 53 59 59 65 67 70 73 69 63
100 93 86 84 85 90 99 96 90 44 58 72 74 73 79 86 77 75 80 71 56 57 85 82 84 77 67 68 78 81 76 84 88 89 95 89 85 90 94 77 58 63 58 57 58 69 66 69 70 71 69 65 60 58
100 98 88 83 84 87 99 100 92 41 61 77 79 84 92 75 67 67 66 60 56 63 82 88 82 83 71 84 83 87 85 88 88 89 90 87 86 92 98 76 68 67 60 62 69 64 60 74 77 74 68 63 54 48
100 100 92 84 85 88 98 100 92 39 78 98 96 96 84 69 74 74 75 68 62 66 86 94 83 79 80 86 88 85 88 89 86 93 91 86 89 95 78 73 70 62 61 64 75 79 82 80 82 77 65 53 49 51
99 100 97 85 85 89 98 100 68 74 94 95 84 74 86 74 69 66 81 85 92 95 97 93 97 93 87 92 92 90 90 95 96 87 86 95 92 75 68 69 72 68 66 74 80 80 75 89 83 66 54 51 52 63
100 100 100 90 88 90 100 99 62 97 92 74 82 92 75 69 70 79 89 87 90 91 94 94 91 92 84 89 89 87 95 96 100 85 92 94 93 80 72 75 75 81 74 67 64 65 66 69 73 63 68 68 64 62
100 100 100 99 91 91 100 98 79 93 74 74 75 71 70 80 89 76 86 86 91 86 91 92 86 87 89 87 91 90 90 91 99 92 96 99 81 71 79 76 77 77 69 64 63 69 66 63 58 64 71 74 69 67
100 100 100 100 98 93 100 94 89 91 85 69 70 80 86 84 88 85 79 88 93 90 96 96 95 90 88 88 94 95 94 95 89 98 97 86 74 77 80 76 67 59 59 62 64 62 61 65 59 58 67 64 66 70
100 100 100 100 100 99 100 92 94 87 74 88 84 86 89 93 92 84 82 82 81 91 93 93 98 92 90 95 91 94 78 86 100 100 83 87 71 78 80 77 63 61 64 71 80 70 66 63 63 60 61 63 65 65
100 100 100 100 100 100 100 91 93 93 78 96 94 98 95 80 92 90 94 94 97 88 93 92 95 85 97 92 93 90 96 99 93 80 83 85 76 79 81 79 72 71 83 82 79 79 73 68 69 72 67 67 65 70
100 100 100 100 100 100 100 98 100 96 95 100 99 100 94 97 96 98 96 92 97 92 95 90 96 98 95 92 98 96 93 92 74 89 88 86 75 75 81 81 76 72 73 72 71 68 70 72 72 69 72 72 73 74
100 98 97 100 100 100 100 99 99 100 100 100 97 94 95 97 92 92 80 82 90 87 88 94 88 74 91 100 99 91 89 81 83 88 97 84 73 76 82 80 75 72 70 66 65 69 70 72 67 78 88 79 75 74
99 98 98 100 100 100 100 100 100 100 99 98 98 96 91 87 92 92 84 92 88 90 89 82 84 89 88 86 91 86 87 94 94 93 88 77 82 84 80 78 72 71 70 70 68 70 74 78 84 84 74 73 73 72
98 99 100 100 98 98 100 100 100 98 97 97 98 98 92 93 85 77 85 84 89 88 90 95 85 89 81 84 81 87 93 90 73 80 79 75 76 80 78 68 63 67 70 74 77 79 76 68 69 75 73 73 76 75
100 100 100 99 94 99 99 100 100 99 98 92 98 97 94 94 87 88 89 89 91 93 97 96 81 64 70 70 80 77 85 82 72 69 63 71 73 76 78 75 73 66 70 74 72 71 76 80 75 74 71 72 78 80
100 100 100 100 99 100 100 99 99 98 98 98 98 93 96 98 97 98 96 87 93 95 93 77 68 56 68 65 61 66 69 80 69 53 48 71 70 73 78 75 69 74 79 80 80 85 78 78 72 72 71 75 80 76
92 99 98 100 100 99 100 100 97 97 96 98 98 95 99 100 99 95 95 96 96 73 72 50 50 59 63 76 65 65 53 60 60 61 61 64 76 93 93 85 89 86 79 74 72 74 80 80 76 70 68 70 79 78
99 98 100 100 99 99 98 99 96 98 97 98 98 100 100 100 97 90 96 94 88 83 60 57 60 71 72 61 60 59 57 66 69 72 69 73 67 64 69 79 81 82 84 81 69 67 72 74 76 70 68 80 78 76
98 100 99 98 98 98 98 98 97 96 97 96 96 96 98 98 97 100 99 96 94 93 72 68 70 73 92 91 83 67 63 78 72 74 71 79 86 83 71 76 80 78 71 66 74 75 74 75 73 80 75 77 77 79
98 98 99 98 98 96 97 98 98 97 96 96 96 96 97 98 99 100 97 94 93 80 73 78 85 83 80 75 71 69 62 74 83 80 74 76 73 86 90 82 79 76 73 68 88 84 81 74 81 80 78 78 81 84
97 98 96 92 97 90 94 97 96 96 95 96 94 95 98 97 100 96 92 89 66 67 66 74 78 89 86 76 71 81 74 72 75 87 74 76 76 76 85 90 96 93 82 70 69 85 85 80 83 80 80 82 86 86
97 98 98 86 83 85 90 86 83 90 95 96 95 97 97 93 91 83 84 86 80 78 58 67 72 74 73 79 75 69 66 64 71 72 66 66 68 68 70 78 82 65 65 75 68 67 78 82 82 80 80 80 82 91
97 97 93 94 92 94 94 95 94 90 90 87 82 97 93 84 78 79 77 78 66 56 64 63 63 64 67 65 61 70 83 82 82 77 77 81 78 74 68 64 59 57 50 56 68 72 71 68 71 74 77 80 84 86
99 90 84 97 93 91 88 90 88 82 74 79 77 87 86 86 87 86 87 75 74 74 92 94 95 83 81 77 74 73 72 86 91 93 93 93 100 96 79 69 62 61 50 71 92 68 62 58 62 66 70 76 80 84
98 88 94 92 92 90 87 82 87 86 88 75 75 91 90 91 87 74 74 90 88 83 74 70 78 85 91 91 99 98 86 81 76 76 86 86 86 77 85 78 75 69 68 87 94 89 89 88 93 91 85 88 88 90
90 94 95 94 91 95 97 97 93 84 94 95 95 93 90 92 84 74 73 71 70 65 75 88 94 83 87 93 91 92 89 82 78 73 63 58 60 63 80 83 79 76 82 85 85 94 99 100 96 91 90 89 90 92
97 95 93 96 97 96 96 96 95 92 94 91 93 97 92 89 78 87 59 74 84 91 81 73 84 81 57 58 61 58 53 49 55 69 71 59 52 61 78 78 78 80 81 86 90 99 97 95 92 87 88 90 94 90
96 94 94 94 97 99 96 93 95 96 97 98 97 96 92 88 77 81 61 56 58 62 66 61 54 57 55 52 52 54 61 59 52 60 68 64 51 60 81 83 80 80 85 88 93 92 93 88 84 83 85 88 90 90

GFSWCAN_925_rhum_099.txt.gz
RH
86 92 93 92 90 89 91 90 82 40 57 60 72 76 73 69 74 69 60 53 68 82 78 76 70 75 79 84 81 70 70 70 83 77 81 76 77 67 70 62 53 56 67 79 79 83 75 58 57 52 46 58 57 59
89 90 94 90 90 88 89 89 90 62 52 60 65 74 77 72 70 70 61 51 64 79 78 69 66 62 62 65 83 82 73 75 84 86 88 87 76 81 70 67 54 69 56 52 65 64 45 57 50 51 57 59 59 58
99 96 95 92 90 90 89 88 89 84 39 68 71 72 78 78 67 71 67 62 68 87 85 77 75 64 65 63 63 76 87 80 84 84 89 89 85 83 82 84 62 56 63 69 57 47 56 55 57 59 62 58 57 59
100 100 100 94 89 89 89 85 89 90 53 57 79 70 75 83 71 67 65 58 60 83 92 76 66 65 64 65 66 69 76 77 82 88 87 89 87 73 81 68 72 58 67 69 74 62 60 58 60 59 62 63 66 67
100 100 100 100 90 89 89 86 98 91 76 43 79 72 68 84 84 64 71 66 54 67 83 75 68 66 66 66 68 73 75 82 91 92 99 97 90 86 88 88 87 70 56 65 57 50 44 42 46 62 71 74 74 69
99 99 100 100 98 87 91 88 95 92 86 40 75 77 68 82 85 69 87 73 59 61 89 80 72 71 68 67 69 79 83 88 91 93 94 93 83 83 91 96 71 66 60 50 49 49 56 55 59 67 70 75 76 69
96 99 100 100 100 92 90 90 93 96 88 43 73 78 75 83 82 71 82 73 60 59 84 82 83 78 69 71 81 85 82 88 90 90 97 92 87 92 96 83 62 59 62 63 64 62 63 67 62 73 72 74 65 62
92 92 99 100 100 99 91 91 94 99 89 45 76 85 87 92 73 72 69 66 58 65 80 85 81 83 73 84 85 90 89 91 91 91 91 93 89 93 98 80 71 68 70 72 71 71 61 68 78 77 73 66 62 54
94 92 93 99 100 100 93 91 95 100 78 52 90 98 94 81 74 74 79 74 68 68 86 94 84 74 83 88 90 90 90 93 88 95 94 89 92 98 80 77 74 69 68 70 72 72 76 77 84 80 73 62 54 52
93 92 92 97 100 100 99 93 96 98 68 98 98 84 89 75 75 69 85 86 93 94 97 94 95 93 86 92 93 91 93 95 96 88 89 98 95 77 74 72 75 76 74 77 85 85 83 90 84 77 69 54 50 57
92 92 94 97 100 100 100 97 100 90 100 82 82 92 76 74 72 79 91 92 91 95 95 95 89 91 85 88 86 88 95 96 98 89 94 96 94 78 68 75 76 82 87 88 71 64 75 77 83 67 59 58 60 62
93 90 98 100 100 100 100 100 100 93 78 70 70 73 74 78 88 85 90 84 96 89 91 94 90 86 92 89 90 93 91 92 98 93 98 100 82 65 70 74 76 73 70 66 62 65 64 74 66 62 70 72 66 62
95 95 92 98 100 100 100 100 100 88 78 77 71 82 86 86 93 92 81 86 93 89 97 96 98 91 92 89 95 94 92 95 89 99 98 89 74 67 74 78 74 60 62 65 65 64 62 64 58 60 69 63 61 67
92 95 98 100 100 100 100 100 100 92 85 96 96 93 91 93 93 86 81 82 83 94 93 92 99 91 90 95 90 89 82 87 99 99 89 87 67 63 75 80 70 59 62 69 83 72 69 64 59 56 54 57 62 67
96 99 99 100 100 100 100 100 99 96 90 99 98 96 95 81 94 94 90 92 94 87 91 92 95 85 98 94 93 92 97 99 96 83 83 82 60 74 75 83 81 73 83 83 81 82 74 65 65 66 61 59 59 60
99 100 99 99 100 100 100 100 100 98 100 100 98 99 94 96 97 99 96 94 95 83 90 87 95 93 90 91 98 95 92 93 76 89 83 77 72 73 76 83 84 74 76 74 76 70 67 70 70 65 64 66 64 64
99 98 98 98 100 100 100 100 100 100 100 100 98 92 93 96 93 91 87 86 84 81 84 90 84 70 88 97 96 90 88 80 82 82 85 83 65 62 74 82 85 77 76 72 69 68 66 66 68 72 91 75 70 70
100 96 97 96 99 100 100 100 100 100 99 98 99 92 90 89 94 96 86 90 86 89 86 82 84 90 84 81 87 88 86 91 90 88 81 75 69 75 78 83 80 77 76 72 66 64 70 79 82 78 66 67 74 75
98 99 98 97 99 96 99 99 100 98 96 99 95 98 92 93 87 88 84 81 87 83 85 93 84 86 76 80 85 86 91 89 68 68 82 78 67 76 77 78 74 78 78 77 77 75 73 68 65 60 64 70 78 74
99 99 100 100 97 98 99 99 100 99 99 95 97 97 97 97 88 92 90 88 86 92 97 99 80 68 65 72 78 71 77 71 66 59 57 67 73 76 83 84 82 74 77 78 74 75 76 76 68 65 69 73 78 76
100 99 100 100 99 100 100 99 99 98 99 97 98 92 97 99 99 97 98 92 95 96 87 79 50 41 58 58 54 60 62 72 63 49 47 64 60 68 74 76 78 76 83 84 85 82 78 75 71 68 70 76 72 69
99 99 99 99 100 99 100 100 98 98 96 98 97 92 99 98 99 95 94 98 94 78 78 58 52 50 53 65 58 66 53 58 60 61 58 57 64 88 87 79 91 88 84 78 75 72 73 78 68 65 68 69 80 76
99 98 100 100 99 98 98 99 97 98 98 98 97 97 97 98 98 92 97 91 77 92 70 63 59 57 61 55 57 63 56 62 62 67 62 64 59 60 61 69 77 82 87 83 77 75 72 75 76 74 70 75 74 80
96 99 99 98 98 97 98 98 96 97 98 98 98 97 97 96 97 98 98 95 84 84 68 69 65 64 65 90 76 65 62 76 67 63 63 72 75 74 70 68 72 75 71 66 77 79 75 76 78 83 73 77 80 78
98 98 98 97 98 96 97 97 97 96 96 97 98 100 97 97 96 97 94 95 97 84 71 69 65 65 66 62 60 62 60 67 75 75 69 76 70 85 88 79 78 74 70 75 87 90 85 73 80 83 78 78 80 79
97 97 95 93 96 91 95 99 98 97 97 97 94 95 98 97 96 92 93 83 80 77 71 70 66 67 69 69 69 83 72 72 73 79 74 76 82 81 84 89 94 89 81 77 81 89 87 82 84 87 86 81 81 80
97 97 98 89 85 86 92 87 84 92 94 95 96 97 96 96 93 85 89 89 74 64 54 54 61 67 67 72 73 68 63 62 75 73 68 67 71 72 75 81 85 72 66 76 78 74 82 85 86 83 83 79 76 83
98 97 96 95 94 94 94 96 96 89 91 87 83 100 95 87 79 78 81 83 64 62 65 63 64 66 69 68 70 77 79 79 81 78 74 76 73 77 78 76 72 66 60 66 75 74 69 70 77 79 79 78 75 81
98 94 89 96 98 94 90 88 88 83 79 80 83 87 87 86 87 87 87 71 70 68 94 94 96 80 77 73 72 76 76 88 90 93 93 90 97 85 79 77 73 70 63 81 91 76 66 60 62 66 68 66 66 74
99 85 90 93 94 91 87 84 91 92 88 80 77 88 88 91 88 79 76 87 88 83 73 73 83 89 91 88 97 97 86 78 70 75 82 82 83 65 76 77 74 72 71 82 94 92 89 86 89 91 75 77 82 88
92 92 95 95 92 94 96 97 94 84 93 96 94 87 84 93 84 72 79 74 71 74 82 92 98 87 88 92 90 88 88 76 74 71 69 66 61 66 79 78 75 74 82 84 89 93 94 98 95 88 85 86 86 89
97 94 94 98 97 96 98 96 96 95 97 95 94 96 92 90 80 80 61 74 86 88 79 79 85 84 68 51 47 46 43 39 43 53 73 73 64 65 79 87 83 83 86 87 94 96 94 92 90 86 86 85 87 89
96 95 95 95 96 95 96 95 96 97 96 96 96 94 92 88 84 80 59 57 60 58 68 69 53 44 39 38 41 46 52 53 52 50 59 71 62 63 77 88 84 81 84 91 95 93 89 85 85 83 82 82 87 88

GFSWCAN_925_rhum_102.txt.gz
RH
98 99 100 96 95 94 88 89 85 89 78 41 68 68 75 72 68 71 67 55 66 83 78 75 68 74 82 85 80 69 74 72 84 75 82 79 78 73 73 64 58 59 69 83 88 90 81 58 57 52 45 54 56 64
99 100 100 100 98 92 92 88 85 86 88 48 51 72 73 80 67 69 67 56 56 78 76 67 64 62 63 63 80 83 76 73 83 87 89 87 83 85 75 70 58 62 54 53 66 64 47 56 57 50 53 56 57 60
100 99 99 100 100 95 92 89 86 85 88 82 37 70 76 86 75 67 69 69 62 89 85 78 74 63 65 65 64 78 86 81 84 83 88 88 85 86 85 88 66 56 62 66 61 46 56 55 54 64 59 59 51 61
99 100 99 99 100 100 91 90 90 86 86 88 46 62 73 80 88 70 70 63 59 80 93 75 68 67 66 66 67 69 74 81 83 90 88 89 88 76 84 74 75 59 66 68 77 60 60 52 57 57 60 65 62 64
98 98 99 99 100 100 100 89 92 87 95 91 65 62 73 68 94 87 70 72 59 64 82 76 63 66 69 69 70 73 75 82 91 92 99 98 91 87 88 91 97 72 63 74 60 46 52 49 46 51 63 69 73 73
98 98 99 98 99 100 99 96 90 88 92 97 78 57 81 71 88 87 89 80 63 56 89 83 65 74 73 72 75 81 83 88 91 93 93 92 85 85 89 94 75 70 63 57 57 53 58 55 60 61 64 71 74 72
95 96 95 96 97 100 99 100 90 91 90 99 80 54 85 81 90 82 81 74 62 59 82 84 84 76 72 74 84 88 88 92 92 92 98 93 89 95 97 86 58 68 63 66 68 68 74 69 65 66 70 77 71 66
70 78 88 92 94 98 100 100 97 90 93 100 76 63 88 94 94 81 74 74 61 65 79 87 82 78 74 87 88 92 92 92 92 93 92 95 88 94 98 69 70 69 72 74 72 74 73 74 70 77 78 76 71 68
76 82 90 92 93 92 99 100 100 92 95 100 67 84 99 99 83 75 83 80 72 72 88 92 86 75 84 91 92 93 91 95 90 97 95 91 91 98 84 78 77 75 67 69 74 81 81 84 79 83 79 74 70 59
69 76 84 89 91 92 94 100 100 97 100 89 99 99 98 78 78 84 89 90 92 95 96 94 93 84 87 94 95 93 94 96 97 90 91 96 93 74 71 75 80 78 80 80 92 87 84 90 87 85 79 67 60 54
74 76 80 85 89 91 96 100 100 100 100 100 90 93 81 82 74 78 91 96 95 96 94 94 86 90 87 88 88 88 94 95 98 92 96 96 96 82 69 70 75 77 82 86 88 81 76 78 87 84 73 60 54 57
77 85 85 83 88 94 97 100 100 100 96 87 77 77 77 80 88 89 91 87 96 86 93 88 88 85 93 90 91 97 94 95 97 92 99 99 85 68 68 66 68 74 74 76 72 77 72 80 82 76 72 73 64 59
80 83 85 85 84 90 94 100 100 99 92 86 84 97 92 88 97 98 85 90 93 89 94 96 98 90 96 89 95 94 96 97 89 99 97 87 74 63 70 73 74 70 64 65 65 64 67 72 68 65 71 62 61 63
82 88 88 80 82 86 92 100 100 99 88 100 99 97 95 97 93 86 81 85 85 91 89 86 96 88 88 97 92 93 86 87 100 100 91 84 70 60 69 76 79 67 66 66 82 78 75 71 64 59 57 58 59 65
86 82 73 84 86 85 93 100 100 96 97 100 99 96 97 84 94 94 94 94 97 81 88 89 92 82 97 95 94 91 99 100 94 83 83 79 61 61 70 76 84 80 80 82 85 86 79 66 64 62 57 55 53 55
81 75 91 93 93 96 99 100 100 99 100 100 99 99 95 96 95 100 98 98 94 79 90 91 92 90 86 90 100 91 86 82 76 90 82 68 58 70 74 73 80 82 76 73 76 72 66 69 67 62 60 57 55 55
85 99 92 98 94 100 99 100 100 100 99 99 99 96 94 96 93 91 88 89 79 81 87 89 87 68 91 97 96 87 85 82 83 85 83 73 61 58 63 68 78 83 78 73 68 69 65 59 64 66 88 64 59 58
97 96 86 87 77 96 100 98 100 99 98 99 99 97 89 88 94 95 92 84 79 92 88 85 83 88 86 85 86 83 85 88 89 81 74 66 68 60 64 71 76 80 80 76 72 68 70 77 84 76 65 56 65 70
90 90 79 87 97 96 98 99 100 98 96 99 98 97 92 93 91 89 86 77 93 84 89 96 78 86 80 81 80 86 88 79 58 61 68 68 64 62 65 71 73 79 83 81 80 74 71 70 66 66 63 62 80 75
76 88 83 84 100 98 99 99 100 99 99 94 97 97 98 98 92 93 88 85 92 94 96 98 78 68 67 67 80 82 76 63 63 59 57 62 68 72 75 76 80 76 81 82 79 76 74 77 71 66 63 64 77 78
83 93 85 93 100 100 100 98 99 97 99 99 96 94 95 98 100 96 97 90 97 97 94 63 73 57 59 54 60 66 60 59 55 46 43 55 55 65 68 73 71 80 87 86 88 85 82 78 69 71 68 77 68 66
91 91 98 100 99 100 100 100 98 97 97 99 97 94 99 99 98 94 92 97 95 80 70 62 61 62 55 56 55 59 54 56 52 55 52 56 53 78 76 68 84 85 86 80 77 75 77 78 75 70 71 70 73 69
93 100 100 100 99 98 98 99 98 98 99 98 98 99 98 99 97 96 98 95 78 63 63 64 66 68 63 54 54 54 58 60 55 56 54 54 51 52 62 62 68 76 80 78 77 76 77 76 79 79 70 76 73 76
100 100 99 98 98 97 99 98 97 97 98 98 97 96 99 99 97 97 96 84 65 80 71 71 74 72 68 68 65 58 59 67 60 55 52 56 62 61 62 62 67 64 63 61 70 80 79 79 83 87 78 80 83 85
99 98 99 97 98 97 97 99 98 98 96 97 97 97 97 98 97 97 95 91 82 74 72 71 69 68 66 62 59 58 55 61 74 73 62 66 63 69 83 77 70 71 70 72 86 86 86 82 87 91 84 83 86 84
98 96 95 95 97 93 94 98 98 98 98 98 95 95 98 97 96 93 92 88 69 74 69 66 65 68 71 65 64 62 76 65 68 75 66 69 75 75 80 84 88 83 78 76 81 87 90 88 92 93 87 82 81 82
97 98 98 91 88 89 94 87 84 93 97 94 97 97 96 96 94 84 87 86 76 66 56 54 60 64 64 61 59 58 61 64 69 70 64 64 69 71 74 84 83 73 64 75 83 79 84 88 90 89 86 83 81 81
95 95 98 96 96 95 93 97 95 93 88 90 85 98 93 90 81 81 78 78 71 64 64 62 61 63 64 62 64 70 78 79 81 76 75 76 72 76 78 79 78 72 68 67 76 81 78 79 84 85 84 84 82 79
100 96 91 97 98 98 92 88 89 87 82 84 84 89 88 89 89 88 88 75 72 72 90 90 89 82 80 75 75 77 76 90 88 90 87 86 93 76 74 79 83 80 71 72 95 83 75 74 76 77 72 70 70 74
99 90 93 96 95 96 87 85 90 93 88 81 78 88 89 92 87 65 71 82 90 82 73 73 83 88 91 90 96 98 91 85 78 74 80 79 78 59 66 76 79 78 73 81 94 93 91 88 89 92 80 78 79 84
91 95 96 96 94 94 94 97 97 85 96 95 95 90 75 90 85 65 76 72 72 76 85 93 96 89 88 90 86 84 86 82 74 72 67 54 54 57 65 72 76 77 81 89 90 94 95 98 96 92 86 86 84 87
99 95 94 100 98 96 98 97 97 95 97 96 93 98 94 91 85 85 59 75 86 88 79 77 82 85 77 67 68 61 51 43 46 62 74 72 65 62 66 74 79 79 84 91 96 99 95 93 92 88 88 85 90 86
97 98 98 94 99 99 97 94 97 95 98 99 95 93 92 88 79 80 65 59 59 59 61 69 66 61 53 52 57 62 56 45 42 42 50 66 67 64 72 81 82 81 86 93 98 94 89 85 85 82 80 82 86 82

GFSWCAN_925_rhum_105.txt.gz
RH
100 98 100 100 100 99 96 93 89 83 84 88 60 55 64 75 73 67 70 63 70 82 77 75 68 77 85 85 80 67 72 74 86 80 82 79 82 75 74 62 62 69 78 90 92 96 85 57 60 50 43 46 50 64
99 99 100 100 100 99 99 92 91 86 83 85 86 49 68 65 81 69 71 63 59 76 70 65 60 58 58 60 82 83 75 74 83 85 90 88 84 87 78 75 59 67 52 53 67 66 47 58 54 51 50 53 52 60
98 98 98 98 99 100 100 97 92 92 87 83 87 61 70 67 80 78 70 73 69 88 84 82 80 62 66 66 61 80 86 80 86 83 88 87 86 82 85 88 69 58 61 64 58 47 54 54 52 55 57 60 57 60
91 93 94 97 98 100 100 100 96 92 91 84 85 84 60 75 76 82 78 69 65 79 93 75 68 69 67 68 67 68 74 84 85 90 88 90 88 78 86 76 82 63 64 67 73 60 56 50 58 54 52 61 67 63
89 92 94 94 97 98 100 100 100 93 92 88 88 91 56 77 78 87 87 85 71 69 90 78 65 69 71 72 72 74 75 85 91 93 99 97 92 90 90 92 98 74 67 75 62 54 52 52 49 47 54 58 63 73
86 91 98 93 95 96 99 100 100 99 92 89 92 96 61 78 82 87 86 83 79 64 88 86 68 76 77 76 79 83 83 89 91 92 94 93 86 88 94 96 72 74 67 54 54 56 64 65 66 60 62 60 68 77
90 91 93 95 94 96 97 98 100 100 95 94 94 97 64 84 89 86 79 75 66 60 82 84 83 76 75 78 88 92 92 93 92 93 99 94 91 96 98 86 51 70 67 67 68 68 71 66 66 69 73 76 71 73
80 82 76 75 81 88 94 95 99 100 100 99 99 99 73 92 97 92 68 83 65 64 80 91 84 76 77 89 92 93 97 95 95 94 93 98 95 95 98 78 64 65 69 75 76 78 72 76 81 80 75 81 78 76
74 68 64 70 82 88 91 93 92 100 100 100 100 84 93 100 97 80 84 92 72 72 88 92 87 76 86 92 93 95 92 98 92 99 96 94 94 98 84 82 77 74 70 65 69 79 80 82 81 84 83 81 80 74
74 61 55 58 67 83 89 89 91 98 100 100 90 99 100 90 82 89 93 92 95 96 97 96 86 81 88 95 96 94 95 96 100 91 94 98 90 69 72 77 76 73 75 76 86 75 74 89 85 82 86 82 78 68
78 66 63 62 68 75 80 89 92 99 100 95 99 99 92 91 84 82 92 96 96 99 95 93 82 89 85 90 88 88 95 95 100 93 98 96 93 87 73 76 68 77 78 79 79 77 81 79 88 82 84 77 69 62
75 76 70 69 73 80 77 84 94 100 94 90 92 87 89 93 96 93 93 88 97 91 92 95 87 80 90 87 89 98 94 98 98 95 99 98 81 73 66 70 75 77 77 78 80 85 85 86 80 86 86 81 63 56
80 76 72 76 78 82 81 80 90 100 100 94 96 100 99 99 98 97 93 95 97 92 97 96 97 89 97 89 91 91 99 96 90 100 96 82 75 62 66 69 66 73 76 70 69 66 66 69 75 80 76 64 59 62
79 81 74 73 72 86 79 77 82 100 92 99 99 98 97 98 96 91 84 86 86 95 93 94 99 94 90 98 91 96 88 90 100 100 89 84 73 61 60 67 69 65 73 71 79 82 79 75 74 67 65 60 60 66
76 80 76 76 78 76 85 82 86 100 97 99 99 97 96 85 94 94 95 92 94 89 87 90 96 87 97 96 92 93 100 100 94 81 82 81 65 64 61 72 76 76 84 83 89 86 82 76 70 66 61 59 56 55
76 74 86 83 79 68 64 76 97 99 100 100 99 99 95 95 96 99 98 93 93 82 91 87 90 96 86 91 100 93 92 87 74 89 81 74 58 60 57 64 66 74 79 76 77 74 70 74 72 63 59 58 56 53
82 96 88 73 74 74 79 88 99 100 100 99 97 98 97 96 90 91 83 82 78 76 89 92 94 76 91 98 100 90 87 79 82 80 80 72 58 54 60 62 63 73 81 76 70 69 68 62 64 65 82 63 57 52
94 82 84 80 85 87 92 98 100 99 98 97 96 84 94 87 90 90 86 81 84 88 93 92 88 87 87 83 88 83 82 87 86 76 70 61 62 60 58 60 60 67 78 77 74 69 70 73 82 73 65 55 59 62
86 84 77 75 78 94 100 100 100 98 92 98 97 99 93 93 91 86 87 78 90 88 90 98 92 92 62 82 80 83 89 83 61 57 60 60 60 62 62 61 63 70 78 80 81 76 73 70 65 64 64 63 69 66
86 87 83 79 78 100 100 100 100 99 98 93 98 98 97 99 96 92 86 79 92 96 98 97 91 52 69 67 74 68 84 69 64 56 53 51 61 66 70 65 65 63 75 78 80 78 78 76 72 68 66 67 74 71
93 90 92 78 91 95 100 99 98 98 100 98 93 93 98 100 100 98 94 84 94 98 97 87 65 55 48 46 57 66 64 64 57 51 47 57 51 60 64 68 64 73 78 78 78 80 81 82 70 74 74 75 69 62
92 89 90 76 98 100 99 99 98 99 99 98 97 93 99 99 98 93 91 97 96 83 80 63 60 60 59 58 51 58 48 55 52 55 52 52 54 75 75 68 81 79 78 72 68 68 70 72 78 74 74 72 76 70
91 86 98 100 99 99 96 99 98 98 97 98 98 98 97 98 98 90 98 96 80 66 65 64 63 69 68 60 63 56 52 55 51 50 53 51 50 51 51 53 61 67 75 71 70 69 68 72 76 82 76 78 82 84
95 100 99 98 98 97 99 98 98 98 98 97 98 97 98 100 98 98 96 97 68 75 65 66 66 71 68 69 70 66 60 59 62 59 54 56 61 58 53 57 64 68 63 54 68 72 75 77 79 87 82 83 87 84
99 98 99 98 99 98 97 96 96 97 97 96 97 97 96 98 96 96 96 89 70 66 66 65 67 67 66 62 62 61 55 58 66 72 65 63 61 60 75 66 64 65 64 72 78 83 84 83 87 90 88 85 87 86
98 96 96 90 96 95 94 97 97 98 97 99 96 95 97 96 96 92 92 72 62 64 67 68 68 67 67 65 67 64 59 62 63 73 67 68 70 71 76 77 83 78 72 70 74 85 87 89 91 94 90 86 84 86
97 98 98 94 94 91 94 88 87 95 100 97 99 98 95 96 93 82 88 90 73 62 59 57 61 65 63 60 58 60 61 59 66 68 62 63 66 69 71 80 81 73 64 69 83 80 86 90 90 94 92 90 85 87
94 94 91 96 97 96 93 98 97 97 91 91 89 100 94 89 80 82 78 79 64 57 57 62 65 64 64 62 61 62 72 74 76 77 75 72 70 74 77 77 77 71 65 64 70 81 82 83 88 92 91 90 91 85
97 97 95 96 95 96 95 90 91 89 82 88 87 90 87 86 90 87 80 62 60 73 90 88 78 78 75 74 73 73 69 87 91 92 89 84 92 78 70 76 84 81 76 72 95 84 81 80 82 84 84 84 84 78
96 94 96 95 95 95 88 87 90 93 89 83 82 88 89 89 85 50 60 75 89 82 72 73 72 85 87 89 92 92 89 85 80 75 81 80 81 57 57 70 82 85 82 81 95 97 96 93 94 97 88 88 88 87
96 96 99 97 95 93 93 97 98 87 95 97 97 92 68 88 83 55 62 63 65 72 84 89 92 87 87 91 86 87 84 81 80 80 71 52 49 51 56 67 76 84 82 85 91 96 98 100 98 94 92 93 93 93
99 94 97 100 99 95 100 100 100 98 99 99 92 100 96 93 88 62 44 61 82 83 74 71 73 71 76 68 67 52 47 50 57 67 77 65 54 55 61 69 77 80 82 88 94 99 96 95 94 91 89 88 92 89
96 95 97 99 99 100 100 96 100 97 100 100 97 92 87 73 66 64 59 45 53 54 55 56 62 60 59 60 63 64 61 50 50 53 57 71 61 59 62 71 79 82 86 94 99 96 92 88 87 85 86 91 87 81

GFSWCAN_925_rhum_108.txt.gz
RH
96 100 100 99 98 100 99 98 91 88 87 85 85 82 42 62 70 68 70 70 62 62 55 62 59 64 71 64 49 57 60 68 69 66 58 51 57 49 55 45 47 51 62 71 73 81 80 42 54 41 29 34 37 43
99 100 96 97 98 98 99 99 99 91 88 87 85 86 59 61 67 76 73 68 64 67 58 62 58 56 60 57 54 66 58 60 56 61 62 60 63 63 51 48 49 52 37 34 43 41 34 41 36 38 39 41 42 44
97 99 97 92 94 97 99 99 99 99 92 90 88 86 84 52 68 78 78 72 74 75 64 70 64 64 63 64 62 56 68 64 70 68 62 63 68 59 55 58 51 45 42 45 46 30 35 31 32 34 35 39 38 40
99 90 90 92 91 95 96 98 99 100 99 93 90 86 90 60 68 75 90 78 69 74 80 60 63 68 67 66 69 68 70 78 75 74 71 68 69 56 57 50 54 38 49 44 46 39 37 37 36 36 39 41 45 46
92 84 85 92 98 94 94 95 97 100 99 98 95 89 95 72 66 73 84 96 86 72 75 67 66 67 70 72 76 76 76 72 73 77 86 88 69 71 65 74 69 52 48 53 46 34 35 32 34 42 46 47 47 50
75 82 85 86 94 94 92 94 94 98 100 100 97 96 96 80 72 71 80 82 88 72 80 86 67 74 80 80 82 80 77 74 75 74 74 72 72 72 77 72 47 48 43 38 38 33 37 37 46 48 51 51 50 57
68 78 85 89 91 94 89 91 92 92 99 100 99 100 100 85 85 76 75 74 78 68 76 85 82 73 78 80 81 82 88 79 77 79 88 77 77 81 86 67 32 44 47 46 44 48 55 56 50 52 57 54 57 65
82 76 78 83 77 69 77 84 90 92 94 100 100 100 100 86 97 95 77 84 69 64 80 88 85 68 76 82 82 82 84 86 86 81 85 88 85 85 93 59 49 46 45 51 50 52 49 56 63 60 57 60 67 65
77 66 67 70 67 62 74 80 85 88 90 100 100 100 93 97 100 88 84 96 82 73 90 86 85 80 78 80 80 85 80 92 78 92 87 84 83 96 67 54 52 56 60 55 60 62 62 65 62 55 61 67 71 67
61 67 73 70 62 65 63 78 78 85 90 100 99 94 100 97 91 90 97 91 93 89 89 94 76 77 78 83 85 86 84 84 98 80 83 95 86 64 57 56 54 57 58 62 80 75 66 72 68 64 68 66 67 64
61 65 76 70 65 65 69 76 81 96 100 98 100 99 100 99 93 86 93 97 89 97 89 89 82 75 74 82 75 76 86 86 99 82 92 89 88 66 55 57 51 54 65 63 63 59 59 63 75 71 68 72 72 69
61 68 71 69 67 67 72 75 81 100 97 96 95 97 99 98 100 99 95 86 94 87 78 87 82 70 79 75 75 87 86 91 96 84 95 94 74 62 61 63 62 61 63 64 63 62 68 70 74 73 76 82 74 70
69 69 71 71 73 71 74 78 78 92 100 99 97 99 100 98 97 96 96 94 93 80 86 85 87 73 88 83 79 84 98 93 80 94 91 77 64 55 59 66 67 63 60 59 61 67 66 66 68 74 74 74 68 65
70 67 69 70 75 73 74 73 76 98 93 100 99 98 96 96 92 84 78 79 71 83 84 76 88 78 78 87 78 95 75 82 98 99 83 75 61 54 49 56 57 60 61 62 79 80 75 72 68 69 73 67 64 59
73 72 71 69 74 77 69 68 81 99 98 100 100 96 96 79 85 84 85 83 85 80 80 80 83 72 85 88 84 86 96 99 89 77 76 74 60 62 56 54 54 57 67 75 74 80 82 74 71 66 66 66 62 59
78 79 84 75 73 69 62 62 72 97 100 100 100 99 94 94 93 90 89 84 84 78 82 79 85 91 87 85 97 94 83 82 71 84 74 62 54 57 58 54 51 52 53 60 72 72 72 74 73 68 63 64 61 57
91 94 85 77 69 60 56 76 81 100 100 99 98 87 81 95 87 81 70 66 72 76 90 94 97 91 93 92 91 76 83 75 80 77 70 65 57 48 48 49 52 54 56 60 65 68 71 65 67 70 74 68 61 57
95 84 77 74 80 85 84 74 99 100 100 96 98 74 72 66 64 66 72 76 78 84 89 96 92 94 91 87 74 76 76 74 74 72 64 56 51 50 50 49 53 55 63 70 70 71 72 77 78 70 66 61 60 63
90 75 72 75 77 87 98 99 95 99 91 93 88 71 71 70 77 68 73 73 73 81 89 97 97 96 87 75 68 70 80 76 56 46 45 48 57 50 50 57 55 59 68 72 74 69 66 69 63 60 65 65 61 64
86 85 86 88 80 85 100 100 100 99 90 81 94 90 84 76 77 82 78 77 85 93 97 97 89 73 71 54 62 54 51 48 50 50 45 43 47 60 67 62 57 53 62 70 73 71 73 74 74 70 71 68 66 64
86 84 81 89 96 94 100 100 98 96 96 99 92 77 84 98 97 98 94 82 92 97 94 77 62 55 52 45 42 51 47 56 52 46 35 37 45 53 54 63 62 61 61 62 64 66 72 73 61 70 73 72 70 65
88 87 87 89 100 100 99 98 98 95 98 97 97 98 98 97 94 95 95 97 96 81 67 59 56 56 58 56 52 52 51 45 48 45 43 44 48 57 60 55 72 70 68 65 60 60 61 65 67 71 72 72 72 74
89 89 98 99 98 97 89 98 98 98 92 96 98 97 98 97 94 91 97 97 78 61 60 62 61 60 60 54 54 60 59 60 57 53 48 46 44 46 51 54 62 72 74 69 66 67 73 74 75 84 78 78 77 82
86 100 99 98 98 90 98 98 97 94 96 90 96 94 98 96 96 98 97 95 69 59 65 69 65 66 63 66 68 64 61 60 64 61 56 56 58 52 51 54 52 54 58 53 58 82 84 90 99 98 91 79 84 80
99 98 98 94 97 98 97 96 96 96 96 96 96 96 95 96 96 97 94 87 64 62 65 65 66 67 69 64 60 59 55 61 66 67 61 61 63 63 64 62 59 57 60 73 75 71 77 83 88 80 85 82 84 84
97 91 96 89 88 96 94 96 98 95 96 98 95 94 96 96 96 94 86 62 56 57 60 65 64 66 67 65 65 62 58 58 64 70 65 63 66 73 79 77 77 73 68 67 70 74 79 81 81 85 88 84 82 86
96 91 96 86 91 90 93 86 84 92 96 95 95 96 96 96 94 82 80 78 68 70 61 58 62 65 64 60 58 59 59 59 65 67 60 63 63 69 72 80 79 73 68 69 77 78 80 85 83 86 87 88 86 90
94 92 80 86 97 95 91 96 96 99 92 87 89 97 94 91 80 78 77 72 58 53 57 57 63 67 68 67 66 64 62 67 75 75 74 75 72 69 74 75 75 74 71 68 71 81 84 85 86 89 91 90 92 92
94 79 96 97 100 98 93 91 91 85 76 86 86 83 87 82 84 82 74 54 57 64 82 77 72 64 71 72 74 73 72 76 87 88 88 78 77 78 67 70 78 81 77 72 86 78 78 80 84 88 89 89 90 90
93 95 99 98 96 95 87 86 89 89 84 79 78 84 86 84 77 46 56 64 84 74 64 62 56 80 76 80 75 86 82 80 80 75 80 78 79 65 66 74 84 85 80 80 90 96 98 98 99 100 95 96 96 94
94 97 100 97 86 77 92 93 89 80 89 93 95 90 65 78 77 49 54 51 55 62 81 75 70 75 75 78 79 74 78 70 66 75 68 70 66 56 66 72 76 83 84 84 91 99 100 100 100 99 98 98 96 93
97 97 87 100 87 96 97 99 96 96 99 99 91 99 96 95 92 55 40 50 73 73 66 67 65 59 58 67 57 60 51 47 49 59 61 68 71 55 55 66 76 82 86 92 98 100 97 97 97 95 95 95 95 91
99 99 99 99 100 99 100 98 100 100 100 100 99 90 78 73 72 56 39 41 48 53 53 47 49 53 58 56 58 60 60 55 54 56 63 63 63 53 62 65 72 85 90 95 98 96 95 93 93 92 92 94 92 88

GFSWCAN_925_rhum_111.txt.gz
RH
97 97 98 98 98 98 98 98 98 95 87 88 86 84 82 48 52 65 73 68 70 54 45 48 46 47 54 52 40 50 53 59 63 59 44 40 43 34 43 28 37 46 58 69 61 64 73 34 46 39 26 28 30 34
100 100 98 98 96 99 98 97 97 98 97 90 88 87 85 72 56 61 71 67 68 70 53 59 52 52 51 45 43 47 44 48 44 54 48 42 48 43 38 38 30 40 28 29 39 44 29 35 26 29 33 35 33 34
97 99 100 100 95 93 93 96 96 100 98 98 91 88 89 87 60 59 85 75 77 73 63 67 57 59 63 62 58 47 43 42 56 56 52 48 62 40 48 42 39 32 30 40 31 26 27 25 28 28 29 31 32 33
99 100 100 98 96 93 94 92 94 97 100 99 99 93 91 93 75 67 85 80 78 69 79 52 58 63 66 67 71 63 58 67 62 65 62 56 54 40 49 38 42 35 36 41 38 32 29 28 28 27 27 30 36 38
82 85 85 85 86 92 100 96 92 92 96 100 99 98 96 96 87 70 84 88 88 73 76 64 60 67 69 73 74 74 68 61 63 70 82 74 53 59 52 54 62 41 40 45 43 28 29 27 28 34 36 40 40 43
61 65 70 77 79 82 94 96 92 91 94 94 100 100 100 100 92 70 72 77 89 86 83 90 66 67 75 78 74 72 72 67 65 69 68 62 60 62 67 58 36 30 34 32 33 28 29 28 38 34 40 42 42 45
61 59 72 80 86 89 88 88 83 81 91 94 98 100 100 100 93 73 70 77 77 74 76 90 77 69 75 75 76 76 79 72 78 79 82 70 70 78 75 65 32 25 31 33 32 33 39 39 44 42 42 46 48 49
63 71 80 73 75 80 76 69 80 86 89 87 91 100 100 100 95 95 88 86 72 67 82 94 91 69 71 73 74 72 78 77 78 75 80 85 74 80 88 55 41 35 37 35 38 38 41 40 50 52 51 52 53 50
62 78 77 69 70 67 62 62 81 87 86 89 90 100 99 100 100 90 86 92 89 75 96 90 90 90 71 71 69 78 70 86 68 85 78 73 71 94 69 55 46 40 46 49 46 45 46 55 56 53 50 50 58 58
58 60 60 62 72 70 62 61 63 82 83 99 100 98 100 100 98 85 97 92 98 95 98 96 66 78 68 72 74 75 74 78 89 74 75 93 78 58 51 50 47 44 46 51 82 77 71 74 70 51 58 56 57 59
68 65 62 59 74 70 66 63 80 87 99 99 100 100 100 100 97 85 91 99 92 98 88 83 75 70 62 76 67 65 82 79 96 80 89 82 81 59 46 45 43 41 44 53 54 56 54 54 66 66 62 66 70 69
66 67 66 62 68 68 68 64 78 96 92 97 94 99 99 99 100 100 99 86 93 87 70 79 76 68 66 62 66 77 84 85 92 77 88 92 68 59 59 52 49 49 42 52 54 60 63 56 60 68 72 80 76 76
58 67 64 65 70 71 73 68 76 95 100 98 98 100 100 100 100 96 94 94 92 75 79 78 84 66 73 76 72 80 94 91 70 86 85 68 55 49 43 62 60 55 54 58 57 54 56 60 68 72 73 72 72 73
68 70 68 67 67 70 73 71 76 99 94 100 100 98 98 95 93 84 78 81 70 75 82 73 79 73 65 81 71 91 69 74 89 91 78 67 53 52 43 49 56 61 57 58 76 78 76 74 68 64 70 68 66 62
75 70 69 67 67 67 68 71 62 90 97 99 100 95 96 80 85 84 95 80 79 71 79 93 95 90 93 96 91 91 92 90 76 73 75 75 62 56 54 50 49 54 64 73 73 80 82 79 71 62 64 67 65 60
76 78 85 76 72 62 62 66 71 84 98 100 100 99 87 95 96 90 90 88 78 72 75 80 94 95 93 91 96 90 85 80 75 85 79 60 59 54 51 55 50 44 42 53 72 74 75 77 75 68 62 65 67 63
79 90 81 71 57 52 56 83 76 99 100 100 98 75 74 76 80 75 68 62 63 85 94 98 96 90 94 95 92 73 84 70 69 80 72 62 59 51 44 46 51 51 47 46 55 62 72 69 69 72 75 70 65 62
90 84 82 68 67 79 90 85 99 100 98 93 96 79 70 54 55 52 48 61 74 76 92 95 86 96 92 94 89 75 74 68 68 65 55 50 50 46 47 47 49 49 57 61 63 67 69 78 80 71 68 66 69 72
88 92 83 68 78 85 100 100 92 94 95 73 58 55 59 63 58 53 54 60 63 64 86 98 98 92 72 56 59 62 65 60 59 43 46 44 44 44 43 52 54 59 65 64 66 62 60 66 61 61 64 69 69 66
83 89 90 78 81 99 100 100 100 95 73 62 73 77 63 61 56 55 60 69 75 91 98 97 78 60 55 49 52 52 48 43 46 49 45 39 36 47 66 62 59 55 59 61 69 65 63 66 67 63 62 67 73 66
99 90 88 96 98 100 99 98 98 91 88 76 71 76 72 79 86 85 86 82 91 95 85 64 58 51 44 39 37 41 42 42 41 41 43 47 40 39 50 62 63 57 56 54 57 59 64 62 54 63 70 78 76 71
97 86 91 94 100 100 99 100 97 90 97 91 97 96 88 81 85 87 98 97 95 81 72 63 56 53 53 50 47 46 45 45 46 47 48 49 54 53 53 52 58 65 64 62 53 49 47 54 60 64 73 78 81 80
86 86 97 100 100 99 94 96 91 80 79 72 92 86 80 78 82 97 97 93 77 59 57 60 60 57 59 53 52 52 51 53 55 55 54 54 52 52 56 55 52 70 71 63 60 58 56 57 63 66 79 87 97 98
96 100 100 99 97 93 95 92 84 73 71 74 73 75 66 65 81 97 89 71 60 51 53 60 59 60 59 62 64 62 59 57 59 59 58 60 65 61 56 56 53 53 57 58 58 61 71 64 64 76 94 98 98 97
99 98 99 97 95 93 97 92 88 78 79 72 78 80 82 90 93 90 79 59 57 58 56 58 60 62 66 61 57 56 53 56 63 66 60 60 61 61 65 64 62 59 59 64 72 68 68 73 85 96 99 98 96 96
97 93 93 89 91 90 86 74 80 80 74 84 87 80 82 95 96 92 68 61 58 58 55 58 65 62 62 62 64 62 58 55 60 67 63 62 64 71 81 80 80 75 68 67 71 75 74 76 90 96 96 98 97 97
96 94 91 72 67 77 77 69 63 71 93 95 88 97 97 96 91 61 41 64 56 59 56 56 58 61 61 58 54 57 59 60 63 63 58 61 63 67 73 82 81 73 70 69 70 77 78 80 83 92 95 94 89 85
88 77 80 80 92 75 69 68 91 93 82 78 82 98 95 87 74 63 79 72 63 65 56 53 55 65 69 66 65 67 66 65 64 72 73 74 73 74 75 71 75 76 75 71 70 73 79 82 85 86 87 89 90 88
91 79 80 86 76 93 92 88 73 70 67 80 70 69 70 61 51 60 62 51 52 60 78 73 64 55 63 59 68 70 73 82 86 84 84 80 74 77 64 66 78 80 81 78 78 75 76 84 86 88 91 91 94 94
89 80 79 85 92 88 79 82 77 65 70 64 63 70 65 64 58 42 54 64 74 69 64 62 57 73 70 70 69 65 74 74 80 76 78 75 74 64 64 67 80 87 85 84 85 90 96 96 97 99 99 100 100 98
80 86 90 76 71 64 59 74 84 71 82 89 87 80 64 60 61 54 59 57 59 59 66 68 67 67 77 74 69 69 70 64 66 67 73 71 69 63 62 60 72 83 87 86 86 96 100 100 99 100 98 98 97 96
94 91 79 80 72 70 92 93 91 93 92 97 78 95 89 86 73 56 42 46 63 69 61 60 66 63 55 57 58 60 56 53 55 54 60 78 84 68 66 61 74 88 85 87 93 100 97 96 98 97 96 96 96 94
92 95 96 82 91 86 94 94 97 99 98 92 86 73 72 72 72 50 39 37 46 50 51 49 51 54 58 57 59 58 51 51 54 57 58 60 71 68 65 58 69 78 87 93 98 96 95 94 94 94 95 95 93 88

GFSWCAN_925_rhum_114.txt.gz
RH
99 99 98 97 97 97 97 96 95 96 98 97 94 90 83 80 52 53 70 60 70 79 67 47 45 50 55 60 52 60 62 68 74 76 63 57 55 44 48 37 64 76 90 88 76 84 87 46 49 46 38 32 34 39
100 99 99 99 99 99 94 93 93 91 92 96 98 95 90 85 78 55 75 70 66 78 70 59 50 47 50 57 62 53 56 54 59 70 67 60 60 51 50 56 32 46 46 55 61 65 41 45 40 42 38 40 37 38
96 96 95 94 99 100 97 96 93 92 89 94 95 96 94 89 85 73 74 72 79 85 78 75 67 59 55 52 55 64 55 54 61 74 78 72 75 62 66 59 48 37 33 47 39 35 31 29 39 39 39 41 38 37
90 90 99 100 97 90 89 93 97 91 88 91 99 100 98 93 88 86 87 89 78 75 95 69 58 58 60 63 65 60 65 63 64 77 83 79 73 53 61 54 58 48 41 45 44 37 33 31 30 29 32 34 37 40
83 83 83 84 83 82 84 87 97 91 90 91 92 99 100 98 92 90 85 99 90 82 95 86 62 68 66 67 71 71 70 70 77 86 98 93 75 65 61 62 63 49 43 46 46 35 35 33 33 33 38 40 42 46
68 64 61 64 72 77 82 86 95 91 87 86 92 90 100 100 97 86 80 77 84 90 95 96 71 70 74 74 71 73 73 76 80 84 85 78 70 73 93 89 51 47 43 37 36 36 38 36 42 38 43 45 45 49
73 66 61 64 77 84 92 93 88 76 72 84 90 92 97 100 100 82 80 74 76 86 87 92 94 73 74 75 79 81 77 83 86 84 90 87 80 82 96 74 37 35 36 40 39 41 46 43 47 46 46 49 49 51
73 70 66 81 78 76 77 74 70 72 87 89 88 85 86 100 100 98 92 88 74 69 81 94 92 84 74 84 88 74 82 80 91 91 86 91 83 91 96 61 49 47 44 42 37 43 44 48 52 51 52 57 62 67
77 68 69 82 71 68 66 62 59 65 87 83 80 88 100 98 100 98 96 92 86 78 98 96 96 94 79 81 85 87 71 82 81 97 92 88 91 96 76 64 57 51 53 52 52 55 50 52 57 60 63 65 67 65
69 66 62 61 58 66 72 64 59 57 80 87 98 98 99 100 100 92 98 98 99 99 99 99 90 97 85 85 89 88 77 83 92 81 82 98 82 62 54 52 50 51 56 54 73 69 66 69 72 69 70 63 66 67
63 67 67 65 61 62 73 66 70 87 94 90 99 99 99 99 96 98 99 99 99 100 98 94 90 86 75 90 84 80 92 91 95 87 92 92 89 66 52 54 55 55 54 50 61 58 65 62 68 67 66 69 74 73
60 59 60 62 62 62 69 65 72 92 95 97 96 98 99 100 99 100 99 98 99 88 88 86 87 88 79 75 87 85 95 92 96 88 91 91 82 63 63 60 60 61 61 62 61 69 68 63 64 69 75 83 76 71
71 70 63 64 59 63 70 71 73 95 97 89 94 100 100 98 100 98 96 99 97 92 92 91 93 82 83 87 90 94 99 93 85 89 92 87 75 54 58 60 64 63 64 57 59 60 63 62 62 71 79 74 72 77
69 68 60 68 67 66 65 69 78 91 85 96 98 98 97 89 98 91 92 92 89 95 93 90 93 90 80 93 88 98 86 85 98 94 89 88 63 61 59 57 63 60 58 60 79 81 73 70 75 68 70 66 69 75
72 67 63 73 72 69 64 63 80 80 77 92 100 96 94 86 95 96 98 91 90 86 88 98 97 95 99 99 98 98 97 95 94 87 85 85 67 62 55 54 56 58 64 76 78 83 80 78 80 73 64 63 67 67
77 76 81 72 68 61 61 61 76 89 89 100 98 94 88 93 95 97 96 97 91 87 91 95 87 91 95 97 98 94 96 92 82 88 88 76 64 59 54 52 50 54 53 56 70 70 72 77 81 75 64 62 64 66
80 97 84 73 60 56 62 90 80 100 100 100 97 93 88 90 93 93 93 88 76 91 98 99 98 90 96 98 99 96 95 87 81 64 86 77 72 53 44 52 49 52 51 50 51 53 66 59 64 75 80 71 64 63
90 98 89 77 64 67 83 87 94 98 99 93 91 70 76 73 73 67 62 76 89 93 98 96 95 100 95 97 69 68 80 68 71 69 57 41 56 56 56 56 52 48 54 52 56 57 61 76 86 76 70 66 66 68
82 92 92 88 75 85 100 100 96 96 91 88 72 65 66 63 70 66 71 71 71 79 95 100 96 86 69 57 60 60 61 60 56 48 44 44 58 60 57 53 54 59 63 62 61 65 60 63 62 62 64 72 72 72
80 86 94 91 93 100 99 99 99 95 84 63 73 73 75 70 62 63 57 56 72 95 95 90 81 66 62 55 59 52 48 45 45 50 51 44 37 42 64 68 65 56 63 63 67 67 70 70 64 63 65 66 72 68
86 86 98 100 100 100 100 99 98 94 94 92 81 69 71 82 72 73 73 66 78 77 78 73 65 55 49 45 42 44 46 47 48 46 46 49 44 44 48 48 50 60 71 64 73 71 68 71 55 57 63 67 66 59
89 96 98 100 100 100 99 100 97 94 96 90 97 94 90 80 77 73 69 85 80 74 72 67 61 58 57 55 52 50 49 49 50 51 51 51 58 57 57 57 64 69 72 71 66 61 56 53 57 61 62 61 64 74
99 100 100 100 99 99 98 99 98 98 97 96 94 91 90 74 68 82 83 86 82 71 65 63 63 60 64 58 58 58 57 58 60 59 56 56 55 56 61 62 61 73 73 69 66 68 68 64 61 60 64 70 82 98
100 99 98 98 98 97 98 96 98 96 93 88 88 78 81 71 78 86 81 63 56 56 60 62 62 64 63 64 66 63 58 57 62 62 61 67 71 67 63 64 62 63 65 66 67 67 68 71 68 67 76 88 99 98
99 98 98 98 97 98 97 100 100 97 92 87 84 86 89 90 93 83 71 60 55 54 54 51 50 51 54 53 51 51 48 54 63 66 61 64 68 70 72 71 70 68 66 71 76 76 74 71 74 79 80 98 98 97
97 96 97 90 95 93 91 95 97 91 79 82 82 85 87 78 80 81 64 59 54 53 50 52 54 56 62 64 65 67 62 57 58 82 67 64 68 74 80 81 82 77 71 72 80 82 80 79 81 87 98 100 99 99
96 97 98 82 87 87 90 75 65 82 84 86 90 83 95 97 90 62 76 71 57 54 47 50 66 76 84 76 61 59 59 58 62 65 56 57 60 62 72 81 79 71 69 71 71 74 81 84 94 99 99 99 98 98
93 84 89 91 99 86 77 80 92 86 85 89 92 98 98 89 60 48 56 40 39 44 56 56 61 57 75 70 67 66 60 58 62 69 70 70 67 66 66 69 70 66 79 82 77 74 75 80 86 98 98 98 96 96
99 94 85 86 82 98 91 87 78 79 69 85 69 64 60 50 49 53 48 47 46 59 87 72 60 56 68 64 64 64 68 79 93 90 85 77 66 65 52 57 61 66 73 83 85 82 78 78 82 85 87 90 91 90
90 69 77 85 91 91 84 90 85 63 57 55 53 54 54 53 48 45 50 58 68 67 58 54 54 64 72 68 67 62 56 67 77 77 76 71 65 54 60 62 66 65 74 90 88 89 94 92 95 99 97 97 97 96
79 82 92 81 77 70 66 61 81 76 86 92 85 77 70 64 55 48 54 56 57 63 65 68 67 64 69 70 69 68 63 51 50 54 59 66 67 66 69 61 60 65 84 88 89 91 98 100 96 97 98 99 98 99
90 74 71 76 73 66 93 95 90 85 72 92 75 87 98 95 78 61 47 46 58 69 68 65 67 62 52 52 54 58 58 58 59 57 55 57 60 60 76 73 66 69 89 87 89 96 96 95 95 95 95 96 97 95
96 92 89 85 78 90 96 93 98 96 100 78 71 70 72 72 74 56 42 40 46 50 52 50 50 52 53 54 56 58 57 57 53 54 55 55 60 66 72 79 70 81 92 90 95 94 94 93 94 95 95 95 94 92

GFSWCAN_925_rhum_117.txt.gz
RH
98 97 98 98 96 93 96 97 96 91 91 91 92 95 90 81 73 50 62 56 56 88 80 52 46 52 59 66 59 56 59 70 83 80 79 71 66 51 50 51 78 82 91 89 81 79 89 49 49 44 39 34 34 35
100 100 99 98 98 99 99 93 91 93 91 89 90 91 93 90 82 70 68 66 63 74 67 60 53 53 48 50 63 61 57 66 75 82 79 73 66 63 58 60 47 62 57 74 70 67 47 51 44 42 39 36 36 38
97 97 96 97 98 100 99 94 90 88 88 86 88 89 96 95 92 87 74 73 75 91 85 79 68 58 58 57 52 64 65 58 73 74 82 82 82 74 76 69 53 44 44 52 47 43 46 39 42 44 44 45 42 43
86 89 91 98 100 96 90 87 88 94 88 87 86 88 100 100 99 95 89 88 76 83 94 74 59 58 59 60 62 61 66 66 72 84 82 88 84 65 70 58 60 52 54 50 47 36 34 32 33 33 34 40 44 45
88 86 83 83 82 83 83 82 84 93 94 88 86 90 95 100 100 98 96 98 95 72 88 87 71 70 66 64 67 70 70 75 85 84 98 97 89 74 75 77 61 52 49 59 54 34 36 33 34 33 36 37 41 47
77 71 66 63 61 66 74 85 89 91 90 88 76 90 96 100 100 95 85 80 85 84 95 94 76 71 70 71 74 76 79 83 86 90 91 89 77 76 92 96 69 46 43 38 40 35 38 40 42 37 40 45 48 52
75 72 67 63 61 71 80 88 90 86 77 71 86 94 91 96 100 89 87 73 74 85 87 93 90 79 76 78 84 87 82 88 90 90 94 90 86 84 94 96 44 45 45 48 49 52 52 50 46 47 49 46 50 50
67 71 69 63 73 75 70 69 68 67 68 87 87 83 79 93 100 100 100 99 83 71 78 98 93 90 75 90 92 81 87 85 91 94 91 93 88 90 93 66 62 61 60 57 51 50 46 48 51 56 56 59 60 65
68 80 72 70 81 72 69 67 62 59 64 88 80 80 98 97 100 100 98 99 90 77 99 99 98 90 82 88 91 90 82 94 83 99 94 92 93 97 76 74 70 63 65 55 53 59 61 61 64 63 64 64 71 74
65 67 72 64 65 62 69 72 64 57 66 89 88 89 97 100 100 97 99 98 99 99 100 99 94 97 88 91 90 94 85 88 92 87 83 98 89 66 57 53 52 52 52 54 73 68 69 69 68 66 69 70 72 69
55 63 68 67 66 65 66 74 67 83 100 97 99 98 99 100 98 100 100 100 100 99 96 96 94 88 79 90 88 85 96 91 91 90 90 93 90 76 61 64 60 60 62 65 67 66 67 63 63 70 69 69 72 73
58 62 65 66 68 67 65 71 72 88 95 97 94 98 100 99 100 100 98 99 99 94 95 96 92 89 85 79 93 94 96 95 92 91 96 90 83 73 71 64 57 62 70 69 71 74 74 67 63 68 72 77 74 69
69 65 63 63 64 67 64 69 72 84 96 81 94 96 99 98 99 98 95 99 99 93 94 91 92 87 82 84 89 99 98 91 89 90 87 85 74 62 60 65 59 64 63 63 69 67 65 69 65 66 71 65 69 74
70 68 65 67 61 66 62 68 79 91 90 94 89 91 93 94 93 92 93 91 87 95 94 91 94 91 87 96 93 100 88 99 97 98 90 86 68 56 61 62 59 54 59 63 72 77 74 70 70 61 63 65 70 78
75 74 68 66 57 66 63 65 78 88 86 84 98 94 90 86 95 97 96 90 90 90 90 98 98 97 97 99 96 98 100 97 94 86 85 91 64 66 64 56 48 42 53 62 70 74 74 67 69 63 56 56 65 68
70 79 86 73 66 67 66 68 87 94 95 100 98 91 78 97 91 95 98 97 93 91 94 96 93 95 95 95 100 96 96 94 83 90 90 85 72 72 60 59 54 49 53 56 55 61 63 70 72 63 52 57 61 64
71 91 84 82 76 69 71 91 90 100 99 99 96 84 96 97 93 93 94 89 87 89 94 97 99 91 95 99 99 94 96 75 79 79 79 67 70 44 45 59 60 58 55 50 55 53 58 51 54 74 81 61 64 62
93 77 77 87 85 79 87 91 87 98 96 93 98 78 96 90 88 83 86 92 92 95 98 95 96 92 86 97 71 75 84 87 80 74 52 45 43 44 46 50 53 53 58 57 56 59 58 66 83 73 64 64 69 64
90 80 82 82 88 100 100 100 99 97 91 96 92 92 86 79 80 70 79 80 77 89 98 100 99 94 82 62 64 65 64 61 58 52 49 48 45 42 41 46 53 66 66 64 60 58 55 57 59 57 61 65 75 65
86 87 89 84 89 100 99 99 100 98 98 88 87 62 70 66 57 68 69 68 76 94 83 80 67 56 54 47 51 66 76 63 47 44 44 41 40 44 49 53 55 53 59 63 68 71 72 75 66 66 68 67 72 66
92 84 85 90 95 99 100 99 98 96 94 89 73 66 83 94 86 77 77 79 89 77 75 61 55 49 45 43 42 45 47 48 48 47 50 53 46 46 50 51 53 54 59 60 63 64 64 74 65 63 66 68 68 68
89 89 91 84 99 100 99 100 98 96 96 94 97 89 95 87 70 67 87 87 86 68 63 62 60 59 58 56 53 50 50 51 52 53 54 55 61 61 58 57 62 69 70 70 69 72 70 66 66 67 65 66 64 68
85 84 82 92 99 99 97 99 98 98 99 99 98 92 95 95 89 88 90 84 62 55 56 59 57 55 61 57 59 61 61 62 65 64 60 60 60 60 62 63 64 74 76 71 70 75 76 73 74 74 74 70 71 73
86 98 98 98 98 96 99 98 98 97 98 98 96 96 93 89 92 90 84 59 52 49 55 60 60 64 64 70 75 69 63 61 63 63 62 65 70 66 63 65 66 67 71 75 76 78 78 79 81 79 78 81 80 80
98 97 98 97 98 97 97 97 95 100 97 95 88 94 88 92 86 99 69 55 58 57 56 53 54 55 58 56 52 51 47 50 60 72 77 75 70 66 70 70 72 72 72 77 85 83 84 84 84 85 93 96 97 98
96 95 97 93 94 94 94 100 100 98 95 94 95 89 95 90 93 84 80 60 53 53 52 51 51 52 55 55 57 67 84 89 99 98 95 77 68 75 79 79 78 72 64 68 81 86 87 88 93 91 98 100 99 99
96 96 98 95 94 90 91 82 79 88 91 90 93 99 98 96 93 76 61 61 54 56 47 48 52 63 62 61 64 78 81 90 95 79 68 66 64 66 75 78 76 66 63 66 70 76 86 85 85 98 100 100 99 99
91 95 94 89 100 94 88 95 89 85 83 86 90 91 87 85 60 48 58 40 37 34 47 47 47 54 69 68 66 70 71 66 65 73 80 77 70 63 63 70 66 56 70 80 84 85 86 88 89 89 98 99 98 98
99 100 87 92 96 100 88 84 82 80 70 84 63 60 56 45 43 47 41 39 41 48 67 63 56 54 59 64 67 73 72 76 84 87 83 74 66 56 48 50 52 55 63 80 83 86 88 89 88 84 84 89 90 91
98 88 92 94 90 92 80 86 88 64 54 52 50 50 51 50 44 40 45 49 63 70 59 57 59 64 66 64 67 64 62 67 78 82 77 74 67 52 49 50 57 61 67 78 81 88 92 91 94 91 91 92 93 96
91 85 89 84 77 61 60 56 84 66 80 75 70 71 66 59 51 48 52 54 57 62 71 72 65 56 61 69 72 72 72 62 61 60 62 67 68 67 62 57 60 69 68 70 87 92 95 97 94 95 96 97 97 98
87 82 74 84 72 65 86 90 89 80 72 77 77 71 72 92 81 64 52 53 58 65 59 58 64 64 56 57 58 62 64 64 61 59 58 60 61 59 60 62 70 75 74 80 90 93 95 93 95 95 94 95 97 96
97 94 80 74 88 82 91 89 96 100 100 79 73 69 71 72 76 59 44 43 48 53 54 52 52 52 52 53 57 59 60 62 59 55 54 58 62 62 69 70 73 80 81 86 95 93 94 91 93 93 93 94 95 95